Wetterdaten: Dienstag, 25.10.2016
Datum Zeit Temp. A. Feuchte A. Luftdruck Regen Wind Richtung Richtung Sonnenschein ET UV Solar Taupunkt Windchill Windben Empfang
25.10.2016 00:00 7,7 C 98 % 1016,4 hPa 0,0 l/m 2,4 km/h (1 Bft) O-NO 62 0 min 0,000 mm 0,0 UV-I 0 W/m 7,4 C 7,7 C 4,8 km/h (1 Bft) 97,56 %
25.10.2016 00:02 7,7 C 98 % 1016,3 hPa 0,0 l/m 3,4 km/h (1 Bft) O 92 0 min 0,000 mm 0,0 UV-I 0 W/m 7,4 C 7,7 C 4,8 km/h (1 Bft) 5,26 %
25.10.2016 00:04 7,7 C 98 % 1016,4 hPa 0,0 l/m 1,3 km/h (1 Bft) O 92 0 min 0,000 mm 0,0 UV-I 0 W/m 7,4 C 7,7 C 3,2 km/h (1 Bft) 91,43 %
25.10.2016 00:06 7,7 C 98 % 1016,5 hPa 0,0 l/m 0,0 km/h (0 Bft) O 92 0 min 0,000 mm 0,0 UV-I 0 W/m 7,4 C 7,7 C 0,0 km/h (0 Bft) 97,87 %
25.10.2016 00:08 7,7 C 98 % 1016,5 hPa 0,0 l/m 0,4 km/h (0 Bft) O 92 0 min 0,000 mm 0,0 UV-I 0 W/m 7,4 C 7,7 C 1,6 km/h (1 Bft) 94,44 %
25.10.2016 00:10 7,7 C 98 % 1016,4 hPa 0,0 l/m 0,7 km/h (0 Bft) O 92 0 min 0,000 mm 0,0 UV-I 0 W/m 7,4 C 7,7 C 1,6 km/h (1 Bft) 98,08 %
25.10.2016 00:12 7,7 C 98 % 1016,4 hPa 0,0 l/m 3,1 km/h (1 Bft) O-NO 74 0 min 0,000 mm 0,0 UV-I 0 W/m 7,4 C 7,7 C 6,4 km/h (2 Bft) 100,00 %
25.10.2016 00:14 7,7 C 98 % 1016,4 hPa 0,0 l/m 3,4 km/h (1 Bft) O-NO 74 0 min 0,000 mm 0,0 UV-I 0 W/m 7,4 C 7,7 C 6,4 km/h (2 Bft) 100,00 %
25.10.2016 00:16 7,7 C 98 % 1016,4 hPa 0,0 l/m 3,5 km/h (1 Bft) O-NO 74 0 min 0,000 mm 0,0 UV-I 0 W/m 7,4 C 7,7 C 6,4 km/h (2 Bft) 100,00 %
25.10.2016 00:18 7,7 C 98 % 1016,4 hPa 0,0 l/m 4,4 km/h (1 Bft) O-NO 74 0 min 0,000 mm 0,0 UV-I 0 W/m 7,4 C 7,7 C 6,4 km/h (2 Bft) 96,00 %
25.10.2016 00:20 7,7 C 98 % 1016,4 hPa 0,0 l/m 3,2 km/h (1 Bft) O-NO 67 0 min 0,000 mm 0,0 UV-I 0 W/m 7,4 C 7,7 C 4,8 km/h (1 Bft) 100,00 %
25.10.2016 00:22 7,7 C 98 % 1016,3 hPa 0,0 l/m 4,2 km/h (1 Bft) O-NO 78 0 min 0,000 mm 0,0 UV-I 0 W/m 7,4 C 7,7 C 6,4 km/h (2 Bft) 100,00 %
25.10.2016 00:24 7,7 C 98 % 1016,3 hPa 0,0 l/m 4,4 km/h (1 Bft) O-NO 78 0 min 0,000 mm 0,0 UV-I 0 W/m 7,4 C 7,7 C 6,4 km/h (2 Bft) 100,00 %
25.10.2016 00:26 7,6 C 98 % 1016,4 hPa 0,0 l/m 4,3 km/h (1 Bft) O-NO 69 0 min 0,000 mm 0,0 UV-I 0 W/m 7,3 C 7,6 C 6,4 km/h (2 Bft) 98,11 %
25.10.2016 00:28 7,6 C 98 % 1016,4 hPa 0,0 l/m 3,2 km/h (1 Bft) O-NO 66 0 min 0,000 mm 0,0 UV-I 0 W/m 7,3 C 7,6 C 6,4 km/h (2 Bft) 100,00 %
25.10.2016 00:30 7,6 C 98 % 1016,4 hPa 0,0 l/m 0,7 km/h (0 Bft) O-NO 66 0 min 0,000 mm 0,0 UV-I 0 W/m 7,3 C 7,6 C 3,2 km/h (1 Bft) 100,00 %
25.10.2016 00:32 7,6 C 98 % 1016,4 hPa 0,0 l/m 1,1 km/h (1 Bft) O-NO 66 0 min 0,000 mm 0,0 UV-I 0 W/m 7,3 C 7,6 C 3,2 km/h (1 Bft) 100,00 %
25.10.2016 00:34 7,6 C 98 % 1016,3 hPa 0,0 l/m 3,4 km/h (1 Bft) O 82 0 min 0,000 mm 0,0 UV-I 0 W/m 7,3 C 7,6 C 4,8 km/h (1 Bft) 100,00 %
25.10.2016 00:36 7,6 C 98 % 1016,4 hPa 0,0 l/m 4,2 km/h (1 Bft) O 82 0 min 0,000 mm 0,0 UV-I 0 W/m 7,3 C 7,6 C 6,4 km/h (2 Bft) 100,00 %
25.10.2016 00:38 7,6 C 98 % 1016,4 hPa 0,0 l/m 4,3 km/h (1 Bft) O-NO 62 0 min 0,000 mm 0,0 UV-I 0 W/m 7,3 C 7,6 C 6,4 km/h (2 Bft) 100,00 %
25.10.2016 00:40 7,6 C 98 % 1016,4 hPa 0,0 l/m 3,0 km/h (1 Bft) O-NO 62 0 min 0,000 mm 0,0 UV-I 0 W/m 7,3 C 7,6 C 4,8 km/h (1 Bft) 100,00 %
25.10.2016 00:42 7,6 C 98 % 1016,4 hPa 0,0 l/m 3,9 km/h (1 Bft) O-NO 64 0 min 0,000 mm 0,0 UV-I 0 W/m 7,3 C 7,6 C 6,4 km/h (2 Bft) 100,00 %
25.10.2016 00:44 7,6 C 98 % 1016,4 hPa 0,0 l/m 2,1 km/h (1 Bft) O-NO 71 0 min 0,000 mm 0,0 UV-I 0 W/m 7,3 C 7,6 C 4,8 km/h (1 Bft) 100,00 %
25.10.2016 00:46 7,5 C 98 % 1016,4 hPa 0,0 l/m 5,7 km/h (1 Bft) O 82 0 min 0,000 mm 0,0 UV-I 0 W/m 7,2 C 7,5 C 8,0 km/h (2 Bft) 100,00 %
25.10.2016 00:48 7,5 C 98 % 1016,3 hPa 0,0 l/m 5,1 km/h (1 Bft) NO 46 0 min 0,000 mm 0,0 UV-I 0 W/m 7,2 C 7,5 C 8,0 km/h (2 Bft) 100,00 %
25.10.2016 00:50 7,5 C 98 % 1016,4 hPa 0,0 l/m 5,7 km/h (1 Bft) NO 55 0 min 0,000 mm 0,0 UV-I 0 W/m 7,2 C 7,5 C 8,0 km/h (2 Bft) 100,00 %
25.10.2016 00:52 7,5 C 98 % 1016,3 hPa 0,0 l/m 4,4 km/h (1 Bft) O-NO 69 0 min 0,000 mm 0,0 UV-I 0 W/m 7,2 C 7,5 C 6,4 km/h (2 Bft) 100,00 %
25.10.2016 00:54 7,5 C 98 % 1016,4 hPa 0,0 l/m 3,6 km/h (1 Bft) O-NO 59 0 min 0,000 mm 0,0 UV-I 0 W/m 7,2 C 7,5 C 6,4 km/h (2 Bft) 100,00 %
25.10.2016 00:56 7,5 C 98 % 1016,4 hPa 0,0 l/m 3,7 km/h (1 Bft) O-NO 63 0 min 0,000 mm 0,0 UV-I 0 W/m 7,2 C 7,5 C 6,4 km/h (2 Bft) 100,00 %
25.10.2016 00:58 7,5 C 98 % 1016,4 hPa 0,0 l/m 3,7 km/h (1 Bft) O-NO 65 0 min 0,000 mm 0,0 UV-I 0 W/m 7,2 C 7,5 C 6,4 km/h (2 Bft) 100,00 %
25.10.2016 01:00 7,5 C 98 % 1016,4 hPa 0,0 l/m 3,4 km/h (1 Bft) NO 51 0 min 0,000 mm 0,0 UV-I 0 W/m 7,2 C 7,5 C 6,4 km/h (2 Bft) 100,00 %
25.10.2016 01:02 7,5 C 98 % 1016,3 hPa 0,0 l/m 5,2 km/h (1 Bft) N-NO 30 0 min 0,000 mm 0,0 UV-I 0 W/m 7,2 C 7,5 C 6,4 km/h (2 Bft) 97,14 %
25.10.2016 01:04 7,5 C 98 % 1016,3 hPa 0,0 l/m 6,3 km/h (2 Bft) NO 49 0 min 0,000 mm 0,0 UV-I 0 W/m 7,2 C 7,5 C 8,0 km/h (2 Bft) 98,31 %
25.10.2016 01:06 7,5 C 98 % 1016,3 hPa 0,0 l/m 5,0 km/h (1 Bft) NO 49 0 min 0,000 mm 0,0 UV-I 0 W/m 7,2 C 7,5 C 6,4 km/h (2 Bft) 100,00 %
25.10.2016 01:08 7,5 C 98 % 1016,3 hPa 0,0 l/m 5,8 km/h (2 Bft) NO 48 0 min 0,000 mm 0,0 UV-I 0 W/m 7,2 C 7,5 C 8,0 km/h (2 Bft) 100,00 %
25.10.2016 01:10 7,4 C 98 % 1016,3 hPa 0,0 l/m 4,1 km/h (1 Bft) O-NO 58 0 min 0,000 mm 0,0 UV-I 0 W/m 7,1 C 7,4 C 6,4 km/h (2 Bft) 100,00 %
25.10.2016 01:12 7,4 C 98 % 1016,3 hPa 0,0 l/m 3,6 km/h (1 Bft) O-NO 57 0 min 0,000 mm 0,0 UV-I 0 W/m 7,1 C 7,4 C 4,8 km/h (1 Bft) 97,73 %
25.10.2016 01:14 7,4 C 98 % 1016,3 hPa 0,0 l/m 4,0 km/h (1 Bft) O-NO 57 0 min 0,000 mm 0,0 UV-I 0 W/m 7,1 C 7,4 C 6,4 km/h (2 Bft) 100,00 %
25.10.2016 01:16 7,4 C 98 % 1016,3 hPa 0,0 l/m 2,2 km/h (1 Bft) O-NO 57 0 min 0,000 mm 0,0 UV-I 0 W/m 7,1 C 7,4 C 3,2 km/h (1 Bft) 100,00 %
25.10.2016 01:18 7,4 C 98 % 1016,3 hPa 0,0 l/m 4,5 km/h (1 Bft) O-NO 60 0 min 0,000 mm 0,0 UV-I 0 W/m 7,1 C 7,4 C 8,0 km/h (2 Bft) 100,00 %
25.10.2016 01:20 7,4 C 98 % 1016,3 hPa 0,0 l/m 3,5 km/h (1 Bft) O-NO 60 0 min 0,000 mm 0,0 UV-I 0 W/m 7,1 C 7,4 C 6,4 km/h (2 Bft) 100,00 %
25.10.2016 01:22 7,4 C 99 % 1016,2 hPa 0,0 l/m 4,3 km/h (1 Bft) O-NO 61 0 min 0,000 mm 0,0 UV-I 0 W/m 7,3 C 7,4 C 6,4 km/h (2 Bft) 100,00 %
25.10.2016 01:24 7,4 C 99 % 1016,2 hPa 0,0 l/m 5,4 km/h (1 Bft) O-NO 77 0 min 0,000 mm 0,0 UV-I 0 W/m 7,3 C 7,4 C 6,4 km/h (2 Bft) 98,00 %
25.10.2016 01:26 7,4 C 99 % 1016,2 hPa 0,0 l/m 7,0 km/h (2 Bft) O 91 0 min 0,000 mm 0,0 UV-I 0 W/m 7,3 C 6,9 C 11,3 km/h (2 Bft) 100,00 %
25.10.2016 01:28 7,4 C 99 % 1016,2 hPa 0,0 l/m 4,6 km/h (1 Bft) O-NO 71 0 min 0,000 mm 0,0 UV-I 0 W/m 7,3 C 7,4 C 6,4 km/h (2 Bft) 98,11 %
25.10.2016 01:30 7,4 C 99 % 1016,2 hPa 0,0 l/m 4,6 km/h (1 Bft) O-NO 57 0 min 0,000 mm 0,0 UV-I 0 W/m 7,3 C 7,4 C 6,4 km/h (2 Bft) 100,00 %
25.10.2016 01:32 7,4 C 99 % 1016,2 hPa 0,0 l/m 6,9 km/h (2 Bft) NO 53 0 min 0,000 mm 0,0 UV-I 0 W/m 7,3 C 7,0 C 9,7 km/h (2 Bft) 100,00 %
25.10.2016 01:34 7,4 C 99 % 1016,2 hPa 0,0 l/m 5,8 km/h (2 Bft) NO 55 0 min 0,000 mm 0,0 UV-I 0 W/m 7,3 C 7,4 C 9,7 km/h (2 Bft) 98,00 %
25.10.2016 01:36 7,4 C 99 % 1016,1 hPa 0,0 l/m 6,5 km/h (2 Bft) O-NO 58 0 min 0,000 mm 0,0 UV-I 0 W/m 7,3 C 7,3 C 9,7 km/h (2 Bft) 100,00 %
25.10.2016 01:38 7,4 C 98 % 1016,0 hPa 0,0 l/m 6,1 km/h (2 Bft) O-NO 67 0 min 0,000 mm 0,0 UV-I 0 W/m 7,1 C 7,4 C 9,7 km/h (2 Bft) 97,37 %
25.10.2016 01:40 7,4 C 98 % 1016,0 hPa 0,0 l/m 6,3 km/h (2 Bft) O-NO 57 0 min 0,000 mm 0,0 UV-I 0 W/m 7,1 C 7,4 C 9,7 km/h (2 Bft) 96,43 %
25.10.2016 01:42 7,4 C 98 % 1016,0 hPa 0,0 l/m 5,9 km/h (2 Bft) NO 56 0 min 0,000 mm 0,0 UV-I 0 W/m 7,1 C 7,4 C 9,7 km/h (2 Bft) 98,00 %
25.10.2016 01:44 7,4 C 98 % 1016,0 hPa 0,0 l/m 5,3 km/h (1 Bft) NO 46 0 min 0,000 mm 0,0 UV-I 0 W/m 7,1 C 7,4 C 8,0 km/h (2 Bft) 97,37 %
25.10.2016 01:46 7,4 C 98 % 1015,9 hPa 0,0 l/m 6,3 km/h (2 Bft) O-NO 65 0 min 0,000 mm 0,0 UV-I 0 W/m 7,1 C 7,4 C 9,7 km/h (2 Bft) 96,23 %
25.10.2016 01:48 7,4 C 98 % 1016,0 hPa 0,0 l/m 5,2 km/h (1 Bft) O-NO 59 0 min 0,000 mm 0,0 UV-I 0 W/m 7,1 C 7,4 C 9,7 km/h (2 Bft) 96,00 %
25.10.2016 01:50 7,4 C 98 % 1016,0 hPa 0,0 l/m 3,8 km/h (1 Bft) O-NO 57 0 min 0,000 mm 0,0 UV-I 0 W/m 7,1 C 7,4 C 6,4 km/h (2 Bft) 97,37 %
25.10.2016 01:52 7,4 C 98 % 1016,0 hPa 0,0 l/m 4,4 km/h (1 Bft) NO 38 0 min 0,000 mm 0,0 UV-I 0 W/m 7,1 C 7,4 C 6,4 km/h (2 Bft) 97,87 %
25.10.2016 01:54 7,4 C 98 % 1016,1 hPa 0,0 l/m 6,3 km/h (2 Bft) O-NO 69 0 min 0,000 mm 0,0 UV-I 0 W/m 7,1 C 7,4 C 9,7 km/h (2 Bft) 97,87 %
25.10.2016 01:56 7,4 C 98 % 1016,1 hPa 0,0 l/m 5,9 km/h (2 Bft) NO 51 0 min 0,000 mm 0,0 UV-I 0 W/m 7,1 C 7,4 C 8,0 km/h (2 Bft) 98,00 %
25.10.2016 01:58 7,4 C 98 % 1016,2 hPa 0,0 l/m 4,1 km/h (1 Bft) O-NO 61 0 min 0,000 mm 0,0 UV-I 0 W/m 7,1 C 7,4 C 8,0 km/h (2 Bft) 98,11 %
25.10.2016 02:00 7,4 C 98 % 1016,3 hPa 0,0 l/m 1,2 km/h (1 Bft) O-NO 61 0 min 0,000 mm 0,0 UV-I 0 W/m 7,1 C 7,4 C 4,8 km/h (1 Bft) 97,56 %
25.10.2016 02:02 7,4 C 99 % 1016,3 hPa 0,0 l/m 0,0 km/h (0 Bft) O-NO 61 0 min 0,000 mm 0,0 UV-I 0 W/m 7,3 C 7,4 C 1,6 km/h (1 Bft) 96,00 %
25.10.2016 02:04 7,4 C 99 % 1016,3 hPa 0,0 l/m 1,1 km/h (1 Bft) O-NO 61 0 min 0,000 mm 0,0 UV-I 0 W/m 7,3 C 7,4 C 1,6 km/h (1 Bft) 95,74 %
25.10.2016 02:06 7,4 C 99 % 1016,3 hPa 0,0 l/m 0,6 km/h (0 Bft) O-NO 61 0 min 0,000 mm 0,0 UV-I 0 W/m 7,3 C 7,4 C 1,6 km/h (1 Bft) 97,44 %
25.10.2016 02:08 7,4 C 99 % 1016,3 hPa 0,0 l/m 1,4 km/h (1 Bft) O-SO 107 0 min 0,000 mm 0,0 UV-I 0 W/m 7,3 C 7,4 C 3,2 km/h (1 Bft) 96,00 %
25.10.2016 02:10 7,4 C 99 % 1016,3 hPa 0,0 l/m 2,7 km/h (1 Bft) SO 126 0 min 0,000 mm 0,0 UV-I 0 W/m 7,3 C 7,4 C 4,8 km/h (1 Bft) 97,37 %
25.10.2016 02:12 7,4 C 99 % 1016,3 hPa 0,0 l/m 4,7 km/h (1 Bft) O 82 0 min 0,000 mm 0,0 UV-I 0 W/m 7,3 C 7,4 C 6,4 km/h (2 Bft) 98,21 %
25.10.2016 02:14 7,3 C 98 % 1016,2 hPa 0,0 l/m 1,8 km/h (1 Bft) O 82 0 min 0,000 mm 0,0 UV-I 0 W/m 7,0 C 7,3 C 3,2 km/h (1 Bft) 98,11 %
25.10.2016 02:16 7,3 C 98 % 1016,2 hPa 0,0 l/m 0,1 km/h (0 Bft) O 82 0 min 0,000 mm 0,0 UV-I 0 W/m 7,0 C 7,3 C 1,6 km/h (1 Bft) 100,00 %
25.10.2016 02:18 7,3 C 98 % 1016,2 hPa 0,0 l/m 2,0 km/h (1 Bft) O 82 0 min 0,000 mm 0,0 UV-I 0 W/m 7,0 C 7,3 C 3,2 km/h (1 Bft) 97,87 %
25.10.2016 02:20 7,3 C 98 % 1016,2 hPa 0,0 l/m 2,1 km/h (1 Bft) O 82 0 min 0,000 mm 0,0 UV-I 0 W/m 7,0 C 7,3 C 3,2 km/h (1 Bft) 97,37 %
25.10.2016 02:22 7,3 C 98 % 1016,2 hPa 0,0 l/m 2,1 km/h (1 Bft) O 82 0 min 0,000 mm 0,0 UV-I 0 W/m 7,0 C 7,3 C 4,8 km/h (1 Bft) 98,25 %
25.10.2016 02:24 7,3 C 98 % 1016,2 hPa 0,0 l/m 0,7 km/h (0 Bft) O 82 0 min 0,000 mm 0,0 UV-I 0 W/m 7,0 C 7,3 C 3,2 km/h (1 Bft) 100,00 %
25.10.2016 02:26 7,3 C 98 % 1016,2 hPa 0,0 l/m 0,0 km/h (0 Bft) O 82 0 min 0,000 mm 0,0 UV-I 0 W/m 7,0 C 7,3 C 1,6 km/h (1 Bft) 100,00 %
25.10.2016 02:28 7,4 C 98 % 1016,3 hPa 0,0 l/m 1,4 km/h (1 Bft) O-NO 74 0 min 0,000 mm 0,0 UV-I 0 W/m 7,1 C 7,4 C 4,8 km/h (1 Bft) 100,00 %
25.10.2016 02:30 7,4 C 98 % 1016,4 hPa 0,0 l/m 1,8 km/h (1 Bft) O-NO 74 0 min 0,000 mm 0,0 UV-I 0 W/m 7,1 C 7,4 C 4,8 km/h (1 Bft) 98,00 %
25.10.2016 02:32 7,4 C 98 % 1016,5 hPa 0,0 l/m 0,7 km/h (0 Bft) O-NO 74 0 min 0,000 mm 0,0 UV-I 0 W/m 7,1 C 7,4 C 3,2 km/h (1 Bft) 100,00 %
25.10.2016 02:34 7,4 C 98 % 1016,4 hPa 0,0 l/m 0,2 km/h (0 Bft) O-NO 74 0 min 0,000 mm 0,0 UV-I 0 W/m 7,1 C 7,4 C 1,6 km/h (1 Bft) 100,00 %
25.10.2016 02:36 7,3 C 98 % 1016,4 hPa 0,0 l/m 0,9 km/h (0 Bft) O-NO 74 0 min 0,000 mm 0,0 UV-I 0 W/m 7,0 C 7,3 C 3,2 km/h (1 Bft) 100,00 %
25.10.2016 02:38 7,3 C 98 % 1016,4 hPa 0,0 l/m 1,8 km/h (1 Bft) O-NO 74 0 min 0,000 mm 0,0 UV-I 0 W/m 7,0 C 7,3 C 3,2 km/h (1 Bft) 100,00 %
25.10.2016 02:40 7,4 C 98 % 1016,5 hPa 0,0 l/m 2,1 km/h (1 Bft) O-NO 74 0 min 0,000 mm 0,0 UV-I 0 W/m 7,1 C 7,4 C 3,2 km/h (1 Bft) 100,00 %
25.10.2016 02:42 7,4 C 99 % 1016,6 hPa 0,0 l/m 0,2 km/h (0 Bft) O-NO 74 0 min 0,000 mm 0,0 UV-I 0 W/m 7,3 C 7,4 C 1,6 km/h (1 Bft) 97,37 %
25.10.2016 02:44 7,3 C 99 % 1016,6 hPa 0,0 l/m 0,0 km/h (0 Bft) O-NO 74 0 min 0,000 mm 0,0 UV-I 0 W/m 7,2 C 7,3 C 1,6 km/h (1 Bft) 100,00 %
25.10.2016 02:46 7,3 C 99 % 1016,6 hPa 0,0 l/m 0,5 km/h (0 Bft) O-NO 74 0 min 0,000 mm 0,0 UV-I 0 W/m 7,2 C 7,3 C 3,2 km/h (1 Bft) 100,00 %
25.10.2016 02:48 7,3 C 99 % 1016,7 hPa 0,0 l/m 0,6 km/h (0 Bft) O-NO 71 0 min 0,000 mm 0,0 UV-I 0 W/m 7,2 C 7,3 C 3,2 km/h (1 Bft) 100,00 %
25.10.2016 02:50 7,3 C 99 % 1016,7 hPa 0,0 l/m 3,2 km/h (1 Bft) S 185 0 min 0,000 mm 0,0 UV-I 0 W/m 7,2 C 7,3 C 6,4 km/h (2 Bft) 100,00 %
25.10.2016 02:52 7,3 C 99 % 1016,6 hPa 0,0 l/m 0,4 km/h (0 Bft) S 185 0 min 0,000 mm 0,0 UV-I 0 W/m 7,2 C 7,3 C 3,2 km/h (1 Bft) 100,00 %
25.10.2016 02:54 7,3 C 99 % 1016,6 hPa 0,0 l/m 1,6 km/h (1 Bft) O-NO 65 0 min 0,000 mm 0,0 UV-I 0 W/m 7,2 C 7,3 C 4,8 km/h (1 Bft) 98,00 %
25.10.2016 02:56 7,4 C 99 % 1016,5 hPa 0,0 l/m 0,1 km/h (0 Bft) O-NO 65 0 min 0,000 mm 0,0 UV-I 0 W/m 7,3 C 7,4 C 1,6 km/h (1 Bft) 100,00 %
25.10.2016 02:58 7,4 C 99 % 1016,5 hPa 0,0 l/m 0,5 km/h (0 Bft) O-NO 65 0 min 0,000 mm 0,0 UV-I 0 W/m 7,3 C 7,4 C 1,6 km/h (1 Bft) 100,00 %
25.10.2016 03:00 7,4 C 99 % 1016,5 hPa 0,0 l/m 0,0 km/h (0 Bft) O-NO 65 0 min 0,000 mm 0,0 UV-I 0 W/m 7,3 C 7,4 C 0,0 km/h (0 Bft) 100,00 %
25.10.2016 03:02 7,3 C 99 % 1016,6 hPa 0,0 l/m 0,1 km/h (0 Bft) O-NO 65 0 min 0,000 mm 0,0 UV-I 0 W/m 7,2 C 7,3 C 1,6 km/h (1 Bft) 100,00 %
25.10.2016 03:04 7,3 C 99 % 1016,7 hPa 0,0 l/m 0,0 km/h (0 Bft) O-NO 65 0 min 0,000 mm 0,0 UV-I 0 W/m 7,2 C 7,3 C 1,6 km/h (1 Bft) 100,00 %
25.10.2016 03:06 7,3 C 99 % 1016,8 hPa 0,0 l/m 0,0 km/h (0 Bft) O-NO 64 0 min 0,000 mm 0,0 UV-I 0 W/m 7,2 C 7,3 C 0,0 km/h (0 Bft) 97,87 %
25.10.2016 03:08 7,4 C 99 % 1016,8 hPa 0,0 l/m 0,0 km/h (0 Bft) O-NO 65 0 min 0,000 mm 0,0 UV-I 0 W/m 7,3 C 7,4 C 0,0 km/h (0 Bft) 100,00 %
25.10.2016 03:10 7,4 C 99 % 1016,8 hPa 0,0 l/m 0,2 km/h (0 Bft) O-NO 65 0 min 0,000 mm 0,0 UV-I 0 W/m 7,3 C 7,4 C 1,6 km/h (1 Bft) 100,00 %
25.10.2016 03:12 7,4 C 99 % 1016,9 hPa 0,0 l/m 1,0 km/h (0 Bft) O-NO 65 0 min 0,000 mm 0,0 UV-I 0 W/m 7,3 C 7,4 C 1,6 km/h (1 Bft) 98,00 %
25.10.2016 03:14 7,4 C 99 % 1016,9 hPa 0,0 l/m 0,7 km/h (0 Bft) O-NO 65 0 min 0,000 mm 0,0 UV-I 0 W/m 7,3 C 7,4 C 1,6 km/h (1 Bft) 100,00 %
25.10.2016 03:16 7,4 C 99 % 1016,9 hPa 0,0 l/m 0,1 km/h (0 Bft) O-NO 65 0 min 0,000 mm 0,0 UV-I 0 W/m 7,3 C 7,4 C 1,6 km/h (1 Bft) 100,00 %
25.10.2016 03:18 7,4 C 99 % 1016,8 hPa 0,0 l/m 0,0 km/h (0 Bft) O-NO 65 0 min 0,000 mm 0,0 UV-I 0 W/m 7,3 C 7,4 C 0,0 km/h (0 Bft) 97,96 %
25.10.2016 03:20 7,4 C 99 % 1016,7 hPa 0,0 l/m 0,5 km/h (0 Bft) O-NO 65 0 min 0,000 mm 0,0 UV-I 0 W/m 7,3 C 7,4 C 3,2 km/h (1 Bft) 95,74 %
25.10.2016 03:22 7,4 C 99 % 1016,8 hPa 0,0 l/m 1,6 km/h (1 Bft) O-NO 64 0 min 0,000 mm 0,0 UV-I 0 W/m 7,3 C 7,4 C 3,2 km/h (1 Bft) 100,00 %
25.10.2016 03:24 7,4 C 99 % 1016,8 hPa 0,0 l/m 0,2 km/h (0 Bft) O-NO 65 0 min 0,000 mm 0,0 UV-I 0 W/m 7,3 C 7,4 C 1,6 km/h (1 Bft) 100,00 %
25.10.2016 03:26 7,4 C 99 % 1016,7 hPa 0,0 l/m 0,2 km/h (0 Bft) O-NO 65 0 min 0,000 mm 0,0 UV-I 0 W/m 7,3 C 7,4 C 1,6 km/h (1 Bft) 98,00 %
25.10.2016 03:28 7,4 C 99 % 1016,7 hPa 0,0 l/m 0,8 km/h (0 Bft) O-NO 65 0 min 0,000 mm 0,0 UV-I 0 W/m 7,3 C 7,4 C 3,2 km/h (1 Bft) 100,00 %
25.10.2016 03:30 7,4 C 99 % 1016,6 hPa 0,0 l/m 0,8 km/h (0 Bft) O-NO 65 0 min 0,000 mm 0,0 UV-I 0 W/m 7,3 C 7,4 C 3,2 km/h (1 Bft) 100,00 %
25.10.2016 03:32 7,4 C 99 % 1016,6 hPa 0,0 l/m 0,0 km/h (0 Bft) O-NO 65 0 min 0,000 mm 0,0 UV-I 0 W/m 7,3 C 7,4 C 0,0 km/h (0 Bft) 100,00 %
25.10.2016 03:34 7,4 C 99 % 1016,6 hPa 0,0 l/m 2,0 km/h (1 Bft) O 84 0 min 0,000 mm 0,0 UV-I 0 W/m 7,3 C 7,4 C 4,8 km/h (1 Bft) 97,87 %
25.10.2016 03:36 7,4 C 99 % 1016,5 hPa 0,0 l/m 4,8 km/h (1 Bft) O 97 0 min 0,000 mm 0,0 UV-I 0 W/m 7,3 C 7,4 C 6,4 km/h (2 Bft) 100,00 %
25.10.2016 03:38 7,4 C 99 % 1016,5 hPa 0,0 l/m 2,6 km/h (1 Bft) SO 132 0 min 0,000 mm 0,0 UV-I 0 W/m 7,3 C 7,4 C 4,8 km/h (1 Bft) 100,00 %
25.10.2016 03:40 7,4 C 99 % 1016,4 hPa 0,0 l/m 4,2 km/h (1 Bft) SO 130 0 min 0,000 mm 0,0 UV-I 0 W/m 7,3 C 7,4 C 6,4 km/h (2 Bft) 96,00 %
25.10.2016 03:42 7,3 C 99 % 1016,4 hPa 0,0 l/m 5,4 km/h (1 Bft) O-SO 105 0 min 0,000 mm 0,0 UV-I 0 W/m 7,2 C 7,3 C 9,7 km/h (2 Bft) 96,23 %
25.10.2016 03:44 7,3 C 99 % 1016,4 hPa 0,0 l/m 5,4 km/h (1 Bft) O-SO 103 0 min 0,000 mm 0,0 UV-I 0 W/m 7,2 C 7,3 C 9,7 km/h (2 Bft) 98,00 %
25.10.2016 03:46 7,3 C 99 % 1016,4 hPa 0,0 l/m 3,5 km/h (1 Bft) O-SO 111 0 min 0,000 mm 0,0 UV-I 0 W/m 7,2 C 7,3 C 6,4 km/h (2 Bft) 94,29 %
25.10.2016 03:48 7,3 C 99 % 1016,5 hPa 0,0 l/m 1,5 km/h (1 Bft) O-SO 111 0 min 0,000 mm 0,0 UV-I 0 W/m 7,2 C 7,3 C 3,2 km/h (1 Bft) 96,43 %
25.10.2016 03:50 7,3 C 99 % 1016,5 hPa 0,0 l/m 2,9 km/h (1 Bft) SO 126 0 min 0,000 mm 0,0 UV-I 0 W/m 7,2 C 7,3 C 4,8 km/h (1 Bft) 97,56 %
25.10.2016 03:52 7,3 C 99 % 1016,6 hPa 0,0 l/m 1,9 km/h (1 Bft) SO 126 0 min 0,000 mm 0,0 UV-I 0 W/m 7,2 C 7,3 C 3,2 km/h (1 Bft) 95,74 %
25.10.2016 03:54 7,3 C 99 % 1016,6 hPa 0,0 l/m 1,3 km/h (1 Bft) SO 126 0 min 0,000 mm 0,0 UV-I 0 W/m 7,2 C 7,3 C 4,8 km/h (1 Bft) 98,11 %
25.10.2016 03:56 7,3 C 99 % 1016,6 hPa 0,0 l/m 0,4 km/h (0 Bft) SO 126 0 min 0,000 mm 0,0 UV-I 0 W/m 7,2 C 7,3 C 1,6 km/h (1 Bft) 97,37 %
25.10.2016 03:58 7,3 C 99 % 1016,6 hPa 0,0 l/m 2,0 km/h (1 Bft) SO 129 0 min 0,000 mm 0,0 UV-I 0 W/m 7,2 C 7,3 C 3,2 km/h (1 Bft) 96,00 %
25.10.2016 04:00 7,3 C 99 % 1016,6 hPa 0,0 l/m 0,2 km/h (0 Bft) SO 129 0 min 0,000 mm 0,0 UV-I 0 W/m 7,2 C 7,3 C 1,6 km/h (1 Bft) 97,87 %
25.10.2016 04:02 7,3 C 99 % 1016,6 hPa 0,0 l/m 0,0 km/h (0 Bft) SO 129 0 min 0,000 mm 0,0 UV-I 0 W/m 7,2 C 7,3 C 0,0 km/h (0 Bft) 95,65 %
25.10.2016 04:04 7,3 C 99 % 1016,5 hPa 0,0 l/m 1,6 km/h (1 Bft) SO 129 0 min 0,000 mm 0,0 UV-I 0 W/m 7,2 C 7,3 C 4,8 km/h (1 Bft) 95,74 %
25.10.2016 04:06 7,3 C 99 % 1016,5 hPa 0,0 l/m 1,5 km/h (1 Bft) SO 129 0 min 0,000 mm 0,0 UV-I 0 W/m 7,2 C 7,3 C 3,2 km/h (1 Bft) 97,87 %
25.10.2016 04:08 7,3 C 99 % 1016,5 hPa 0,0 l/m 1,1 km/h (1 Bft) SO 129 0 min 0,000 mm 0,0 UV-I 0 W/m 7,2 C 7,3 C 3,2 km/h (1 Bft) 96,23 %
25.10.2016 04:10 7,3 C 99 % 1016,6 hPa 0,0 l/m 2,2 km/h (1 Bft) SO 129 0 min 0,000 mm 0,0 UV-I 0 W/m 7,2 C 7,3 C 3,2 km/h (1 Bft) 95,24 %
25.10.2016 04:12 7,2 C 99 % 1016,5 hPa 0,0 l/m 0,2 km/h (0 Bft) SO 129 0 min 0,000 mm 0,0 UV-I 0 W/m 7,1 C 7,2 C 1,6 km/h (1 Bft) 98,00 %
25.10.2016 04:14 7,2 C 99 % 1016,5 hPa 0,0 l/m 1,9 km/h (1 Bft) SO 129 0 min 0,000 mm 0,0 UV-I 0 W/m 7,1 C 7,2 C 4,8 km/h (1 Bft) 100,00 %
25.10.2016 04:16 7,2 C 99 % 1016,4 hPa 0,0 l/m 4,3 km/h (1 Bft) SO 134 0 min 0,000 mm 0,0 UV-I 0 W/m 7,1 C 7,2 C 6,4 km/h (2 Bft) 100,00 %
25.10.2016 04:18 7,2 C 99 % 1016,4 hPa 0,0 l/m 2,9 km/h (1 Bft) S-SO 148 0 min 0,000 mm 0,0 UV-I 0 W/m 7,1 C 7,2 C 6,4 km/h (2 Bft) 100,00 %
25.10.2016 04:20 7,2 C 99 % 1016,4 hPa 0,0 l/m 1,9 km/h (1 Bft) S-SO 148 0 min 0,000 mm 0,0 UV-I 0 W/m 7,1 C 7,2 C 4,8 km/h (1 Bft) 97,87 %
25.10.2016 04:22 7,2 C 99 % 1016,5 hPa 0,0 l/m 4,8 km/h (1 Bft) S 175 0 min 0,000 mm 0,0 UV-I 0 W/m 7,1 C 7,2 C 9,7 km/h (2 Bft) 100,00 %
25.10.2016 04:24 7,2 C 99 % 1016,6 hPa 0,0 l/m 4,0 km/h (1 Bft) S 184 0 min 0,000 mm 0,0 UV-I 0 W/m 7,1 C 7,2 C 8,0 km/h (2 Bft) 100,00 %
25.10.2016 04:26 7,1 C 99 % 1016,6 hPa 0,0 l/m 3,9 km/h (1 Bft) S-SW 193 0 min 0,000 mm 0,0 UV-I 0 W/m 7,0 C 7,1 C 6,4 km/h (2 Bft) 100,00 %
25.10.2016 04:28 7,1 C 99 % 1016,6 hPa 0,0 l/m 2,9 km/h (1 Bft) S-SO 166 0 min 0,000 mm 0,0 UV-I 0 W/m 7,0 C 7,1 C 6,4 km/h (2 Bft) 100,00 %
25.10.2016 04:30 7,0 C 99 % 1016,5 hPa 0,0 l/m 3,6 km/h (1 Bft) SO 146 0 min 0,000 mm 0,0 UV-I 0 W/m 6,9 C 7,0 C 6,4 km/h (2 Bft) 100,00 %
25.10.2016 04:32 7,0 C 99 % 1016,5 hPa 0,0 l/m 3,2 km/h (1 Bft) S-SO 164 0 min 0,000 mm 0,0 UV-I 0 W/m 6,9 C 7,0 C 6,4 km/h (2 Bft) 98,11 %
25.10.2016 04:34 7,0 C 99 % 1016,4 hPa 0,0 l/m 2,0 km/h (1 Bft) S-SO 161 0 min 0,000 mm 0,0 UV-I 0 W/m 6,9 C 7,0 C 3,2 km/h (1 Bft) 100,00 %
25.10.2016 04:36 7,0 C 99 % 1016,4 hPa 0,0 l/m 2,3 km/h (1 Bft) S-SO 161 0 min 0,000 mm 0,0 UV-I 0 W/m 6,9 C 7,0 C 3,2 km/h (1 Bft) 100,00 %
25.10.2016 04:38 7,0 C 99 % 1016,5 hPa 0,0 l/m 2,9 km/h (1 Bft) SO 144 0 min 0,000 mm 0,0 UV-I 0 W/m 6,9 C 7,0 C 6,4 km/h (2 Bft) 98,21 %
25.10.2016 04:40 7,0 C 99 % 1016,4 hPa 0,0 l/m 2,9 km/h (1 Bft) SO 144 0 min 0,000 mm 0,0 UV-I 0 W/m 6,9 C 7,0 C 4,8 km/h (1 Bft) 100,00 %
25.10.2016 04:42 7,0 C 99 % 1016,4 hPa 0,0 l/m 5,8 km/h (2 Bft) SO 126 0 min 0,000 mm 0,0 UV-I 0 W/m 6,9 C 7,0 C 11,3 km/h (2 Bft) 98,00 %
25.10.2016 04:44 6,9 C 99 % 1016,4 hPa 0,0 l/m 5,5 km/h (1 Bft) S-SO 155 0 min 0,000 mm 0,0 UV-I 0 W/m 6,8 C 6,9 C 11,3 km/h (2 Bft) 100,00 %
25.10.2016 04:46 6,9 C 99 % 1016,4 hPa 0,0 l/m 2,6 km/h (1 Bft) S-SO 154 0 min 0,000 mm 0,0 UV-I 0 W/m 6,8 C 6,9 C 6,4 km/h (2 Bft) 100,00 %
25.10.2016 04:48 6,9 C 99 % 1016,6 hPa 0,0 l/m 1,8 km/h (1 Bft) S-SO 158 0 min 0,000 mm 0,0 UV-I 0 W/m 6,8 C 6,9 C 4,8 km/h (1 Bft) 100,00 %
25.10.2016 04:50 6,9 C 99 % 1016,7 hPa 0,0 l/m 2,0 km/h (1 Bft) S-SO 158 0 min 0,000 mm 0,0 UV-I 0 W/m 6,8 C 6,9 C 4,8 km/h (1 Bft) 100,00 %
25.10.2016 04:52 6,9 C 99 % 1016,9 hPa 0,0 l/m 4,2 km/h (1 Bft) S-SW 205 0 min 0,000 mm 0,0 UV-I 0 W/m 6,8 C 6,9 C 6,4 km/h (2 Bft) 100,00 %
25.10.2016 04:54 6,9 C 99 % 1016,9 hPa 0,0 l/m 3,9 km/h (1 Bft) S-SW 203 0 min 0,000 mm 0,0 UV-I 0 W/m 6,8 C 6,9 C 6,4 km/h (2 Bft) 100,00 %
25.10.2016 04:56 6,9 C 99 % 1016,9 hPa 0,0 l/m 4,9 km/h (1 Bft) S-SW 213 0 min 0,000 mm 0,0 UV-I 0 W/m 6,8 C 6,9 C 8,0 km/h (2 Bft) 100,00 %
25.10.2016 04:58 6,9 C 99 % 1016,9 hPa 0,0 l/m 2,8 km/h (1 Bft) S-SW 196 0 min 0,000 mm 0,0 UV-I 0 W/m 6,8 C 6,9 C 4,8 km/h (1 Bft) 100,00 %
25.10.2016 05:00 6,8 C 99 % 1017,0 hPa 0,0 l/m 1,0 km/h (0 Bft) S-SW 195 0 min 0,000 mm 0,0 UV-I 0 W/m 6,7 C 6,8 C 4,8 km/h (1 Bft) 100,00 %
25.10.2016 05:02 6,8 C 99 % 1017,1 hPa 0,0 l/m 1,6 km/h (1 Bft) S-SW 195 0 min 0,000 mm 0,0 UV-I 0 W/m 6,7 C 6,8 C 3,2 km/h (1 Bft) 100,00 %
25.10.2016 05:04 6,8 C 99 % 1017,0 hPa 0,0 l/m 1,9 km/h (1 Bft) S-SW 193 0 min 0,000 mm 0,0 UV-I 0 W/m 6,7 C 6,8 C 3,2 km/h (1 Bft) 97,87 %
25.10.2016 05:06 6,8 C 99 % 1017,0 hPa 0,0 l/m 2,7 km/h (1 Bft) S-SW 196 0 min 0,000 mm 0,0 UV-I 0 W/m 6,7 C 6,8 C 4,8 km/h (1 Bft) 100,00 %
25.10.2016 05:08 6,9 C 99 % 1017,0 hPa 0,0 l/m 2,1 km/h (1 Bft) S-SW 196 0 min 0,000 mm 0,0 UV-I 0 W/m 6,8 C 6,9 C 4,8 km/h (1 Bft) 98,21 %
25.10.2016 05:10 6,9 C 99 % 1017,0 hPa 0,0 l/m 3,0 km/h (1 Bft) S 184 0 min 0,000 mm 0,0 UV-I 0 W/m 6,8 C 6,9 C 6,4 km/h (2 Bft) 100,00 %
25.10.2016 05:12 6,9 C 99 % 1017,0 hPa 0,0 l/m 2,1 km/h (1 Bft) S 179 0 min 0,000 mm 0,0 UV-I 0 W/m 6,8 C 6,9 C 4,8 km/h (1 Bft) 100,00 %
25.10.2016 05:14 6,8 C 99 % 1017,0 hPa 0,0 l/m 3,0 km/h (1 Bft) S 180 0 min 0,000 mm 0,0 UV-I 0 W/m 6,7 C 6,8 C 6,4 km/h (2 Bft) 100,00 %
25.10.2016 05:16 6,8 C 99 % 1017,0 hPa 0,0 l/m 2,6 km/h (1 Bft) S 180 0 min 0,000 mm 0,0 UV-I 0 W/m 6,7 C 6,8 C 4,8 km/h (1 Bft) 100,00 %
25.10.2016 05:18 6,8 C 99 % 1017,1 hPa 0,0 l/m 1,4 km/h (1 Bft) S 180 0 min 0,000 mm 0,0 UV-I 0 W/m 6,7 C 6,8 C 3,2 km/h (1 Bft) 100,00 %
25.10.2016 05:20 6,8 C 99 % 1017,1 hPa 0,0 l/m 1,5 km/h (1 Bft) S 180 0 min 0,000 mm 0,0 UV-I 0 W/m 6,7 C 6,8 C 3,2 km/h (1 Bft) 100,00 %
25.10.2016 05:22 6,7 C 99 % 1017,2 hPa 0,0 l/m 0,3 km/h (0 Bft) S 180 0 min 0,000 mm 0,0 UV-I 0 W/m 6,6 C 6,7 C 1,6 km/h (1 Bft) 100,00 %
25.10.2016 05:24 6,8 C 99 % 1017,3 hPa 0,0 l/m 1,8 km/h (1 Bft) S 180 0 min 0,000 mm 0,0 UV-I 0 W/m 6,7 C 6,8 C 3,2 km/h (1 Bft) 98,00 %
25.10.2016 05:26 6,8 C 99 % 1017,3 hPa 0,0 l/m 2,1 km/h (1 Bft) S 180 0 min 0,000 mm 0,0 UV-I 0 W/m 6,7 C 6,8 C 3,2 km/h (1 Bft) 100,00 %
25.10.2016 05:28 6,8 C 99 % 1017,3 hPa 0,0 l/m 4,7 km/h (1 Bft) SW 235 0 min 0,000 mm 0,0 UV-I 0 W/m 6,7 C 6,8 C 6,4 km/h (2 Bft) 97,96 %
25.10.2016 05:30 6,7 C 99 % 1017,4 hPa 0,0 l/m 4,9 km/h (1 Bft) S-SW 211 0 min 0,000 mm 0,0 UV-I 0 W/m 6,6 C 6,7 C 6,4 km/h (2 Bft) 97,92 %
25.10.2016 05:32 6,7 C 99 % 1017,4 hPa 0,0 l/m 1,8 km/h (1 Bft) S-SW 211 0 min 0,000 mm 0,0 UV-I 0 W/m 6,6 C 6,7 C 3,2 km/h (1 Bft) 100,00 %
25.10.2016 05:34 6,7 C 99 % 1017,4 hPa 0,0 l/m 2,1 km/h (1 Bft) S-SW 211 0 min 0,000 mm 0,0 UV-I 0 W/m 6,6 C 6,7 C 3,2 km/h (1 Bft) 100,00 %
25.10.2016 05:36 6,7 C 99 % 1017,3 hPa 0,0 l/m 0,4 km/h (0 Bft) S-SW 211 0 min 0,000 mm 0,0 UV-I 0 W/m 6,6 C 6,7 C 1,6 km/h (1 Bft) 98,11 %
25.10.2016 05:38 6,7 C 99 % 1017,4 hPa 0,0 l/m 2,6 km/h (1 Bft) S-SW 213 0 min 0,000 mm 0,0 UV-I 0 W/m 6,6 C 6,7 C 6,4 km/h (2 Bft) 98,00 %
25.10.2016 05:40 6,7 C 99 % 1017,5 hPa 0,0 l/m 2,6 km/h (1 Bft) S-SW 213 0 min 0,000 mm 0,0 UV-I 0 W/m 6,6 C 6,7 C 4,8 km/h (1 Bft) 100,00 %
25.10.2016 05:42 6,7 C 99 % 1017,5 hPa 0,0 l/m 3,3 km/h (1 Bft) S-SW 213 0 min 0,000 mm 0,0 UV-I 0 W/m 6,6 C 6,7 C 4,8 km/h (1 Bft) 98,00 %
25.10.2016 05:44 6,7 C 99 % 1017,5 hPa 0,0 l/m 4,0 km/h (1 Bft) S-SW 213 0 min 0,000 mm 0,0 UV-I 0 W/m 6,6 C 6,7 C 6,4 km/h (2 Bft) 97,87 %
25.10.2016 05:46 6,7 C 99 % 1017,8 hPa 0,0 l/m 3,6 km/h (1 Bft) S-SW 213 0 min 0,000 mm 0,0 UV-I 0 W/m 6,6 C 6,7 C 4,8 km/h (1 Bft) 98,00 %
25.10.2016 05:48 6,7 C 99 % 1018,0 hPa 0,0 l/m 5,3 km/h (1 Bft) W-SW 238 0 min 0,000 mm 0,0 UV-I 0 W/m 6,6 C 6,7 C 8,0 km/h (2 Bft) 97,73 %
25.10.2016 05:50 6,7 C 99 % 1018,2 hPa 0,0 l/m 6,0 km/h (2 Bft) SW 226 0 min 0,000 mm 0,0 UV-I 0 W/m 6,6 C 6,7 C 8,0 km/h (2 Bft) 96,00 %
25.10.2016 05:52 6,7 C 99 % 1018,1 hPa 0,0 l/m 6,7 km/h (2 Bft) W-SW 252 0 min 0,000 mm 0,0 UV-I 0 W/m 6,6 C 6,5 C 9,7 km/h (2 Bft) 95,12 %
25.10.2016 05:54 6,6 C 99 % 1018,2 hPa 0,0 l/m 7,1 km/h (2 Bft) W-SW 254 0 min 0,000 mm 0,0 UV-I 0 W/m 6,5 C 6,0 C 11,3 km/h (2 Bft) 98,11 %
25.10.2016 05:56 6,6 C 99 % 1018,4 hPa 0,0 l/m 5,7 km/h (1 Bft) W-SW 244 0 min 0,000 mm 0,0 UV-I 0 W/m 6,5 C 6,6 C 9,7 km/h (2 Bft) 97,37 %
25.10.2016 05:58 6,6 C 99 % 1018,5 hPa 0,0 l/m 7,6 km/h (2 Bft) W 271 0 min 0,000 mm 0,0 UV-I 0 W/m 6,5 C 5,6 C 12,9 km/h (3 Bft) 98,11 %
25.10.2016 06:00 6,6 C 99 % 1018,6 hPa 0,0 l/m 7,5 km/h (2 Bft) W-SW 244 0 min 0,000 mm 0,0 UV-I 0 W/m 6,5 C 5,7 C 12,9 km/h (3 Bft) 97,87 %
25.10.2016 06:02 6,7 C 99 % 1018,6 hPa 0,0 l/m 6,3 km/h (2 Bft) W 263 0 min 0,000 mm 0,0 UV-I 0 W/m 6,6 C 6,7 C 12,9 km/h (3 Bft) 97,44 %
25.10.2016 06:04 6,7 C 99 % 1018,6 hPa 0,0 l/m 6,8 km/h (2 Bft) W-SW 238 0 min 0,000 mm 0,0 UV-I 0 W/m 6,6 C 6,4 C 12,9 km/h (3 Bft) 98,00 %
25.10.2016 06:06 6,7 C 99 % 1018,6 hPa 0,0 l/m 4,4 km/h (1 Bft) W 270 0 min 0,000 mm 0,0 UV-I 0 W/m 6,6 C 6,7 C 6,4 km/h (2 Bft) 94,23 %
25.10.2016 06:08 6,7 C 99 % 1018,6 hPa 0,0 l/m 5,7 km/h (1 Bft) W-SW 238 0 min 0,000 mm 0,0 UV-I 0 W/m 6,6 C 6,7 C 8,0 km/h (2 Bft) 100,00 %
25.10.2016 06:10 6,7 C 99 % 1018,6 hPa 0,0 l/m 5,2 km/h (1 Bft) W-SW 244 0 min 0,000 mm 0,0 UV-I 0 W/m 6,6 C 6,7 C 9,7 km/h (2 Bft) 96,23 %
25.10.2016 06:12 6,7 C 99 % 1018,8 hPa 0,0 l/m 5,0 km/h (1 Bft) W-SW 255 0 min 0,000 mm 0,0 UV-I 0 W/m 6,6 C 6,7 C 9,7 km/h (2 Bft) 97,56 %
25.10.2016 06:14 6,7 C 99 % 1018,8 hPa 0,0 l/m 5,8 km/h (2 Bft) W 265 0 min 0,000 mm 0,0 UV-I 0 W/m 6,6 C 6,7 C 9,7 km/h (2 Bft) 96,00 %
25.10.2016 06:16 6,7 C 99 % 1019,0 hPa 0,0 l/m 5,6 km/h (1 Bft) W 265 0 min 0,000 mm 0,0 UV-I 0 W/m 6,6 C 6,7 C 9,7 km/h (2 Bft) 98,00 %
25.10.2016 06:18 6,7 C 99 % 1019,0 hPa 0,0 l/m 4,1 km/h (1 Bft) W-SW 250 0 min 0,000 mm 0,0 UV-I 0 W/m 6,6 C 6,7 C 6,4 km/h (2 Bft) 100,00 %
25.10.2016 06:20 6,7 C 99 % 1019,0 hPa 0,0 l/m 3,5 km/h (1 Bft) W 263 0 min 0,000 mm 0,0 UV-I 0 W/m 6,6 C 6,7 C 4,8 km/h (1 Bft) 98,00 %
25.10.2016 06:22 6,7 C 99 % 1019,2 hPa 0,0 l/m 3,9 km/h (1 Bft) W 277 0 min 0,000 mm 0,0 UV-I 0 W/m 6,6 C 6,7 C 8,0 km/h (2 Bft) 100,00 %
25.10.2016 06:24 6,7 C 99 % 1019,2 hPa 0,0 l/m 5,1 km/h (1 Bft) W-SW 244 0 min 0,000 mm 0,0 UV-I 0 W/m 6,6 C 6,7 C 11,3 km/h (2 Bft) 100,00 %
25.10.2016 06:26 6,8 C 99 % 1019,3 hPa 0,0 l/m 4,4 km/h (1 Bft) SW 232 0 min 0,000 mm 0,0 UV-I 0 W/m 6,7 C 6,8 C 6,4 km/h (2 Bft) 100,00 %
25.10.2016 06:28 6,8 C 99 % 1019,4 hPa 0,0 l/m 4,7 km/h (1 Bft) W-SW 254 0 min 0,000 mm 0,0 UV-I 0 W/m 6,7 C 6,8 C 6,4 km/h (2 Bft) 100,00 %
25.10.2016 06:30 6,8 C 99 % 1019,4 hPa 0,0 l/m 5,2 km/h (1 Bft) W-SW 252 0 min 0,000 mm 0,0 UV-I 0 W/m 6,7 C 6,8 C 9,7 km/h (2 Bft) 100,00 %
25.10.2016 06:32 6,8 C 99 % 1019,4 hPa 0,0 l/m 5,6 km/h (1 Bft) W 262 0 min 0,000 mm 0,0 UV-I 0 W/m 6,7 C 6,8 C 9,7 km/h (2 Bft) 98,00 %
25.10.2016 06:34 6,8 C 99 % 1019,4 hPa 0,0 l/m 6,2 km/h (2 Bft) W 272 0 min 0,000 mm 0,0 UV-I 0 W/m 6,7 C 6,8 C 9,7 km/h (2 Bft) 100,00 %
25.10.2016 06:36 6,8 C 99 % 1019,4 hPa 0,0 l/m 5,6 km/h (1 Bft) W-SW 251 0 min 0,000 mm 0,0 UV-I 0 W/m 6,7 C 6,8 C 12,9 km/h (3 Bft) 98,00 %
25.10.2016 06:38 6,8 C 99 % 1019,3 hPa 0,0 l/m 5,5 km/h (1 Bft) W-SW 244 0 min 0,000 mm 0,0 UV-I 0 W/m 6,7 C 6,8 C 6,4 km/h (2 Bft) 100,00 %
25.10.2016 06:40 6,8 C 99 % 1019,4 hPa 0,0 l/m 5,9 km/h (2 Bft) W-SW 251 0 min 0,000 mm 0,0 UV-I 0 W/m 6,7 C 6,8 C 8,0 km/h (2 Bft) 100,00 %
25.10.2016 06:42 6,8 C 99 % 1019,5 hPa 0,0 l/m 4,8 km/h (1 Bft) SW 228 0 min 0,000 mm 0,0 UV-I 0 W/m 6,7 C 6,8 C 6,4 km/h (2 Bft) 100,00 %
25.10.2016 06:44 6,9 C 99 % 1019,6 hPa 0,0 l/m 6,8 km/h (2 Bft) SW 236 0 min 0,000 mm 0,0 UV-I 0 W/m 6,8 C 6,6 C 9,7 km/h (2 Bft) 100,00 %
25.10.2016 06:46 6,9 C 99 % 1019,6 hPa 0,0 l/m 6,2 km/h (2 Bft) W-SW 254 0 min 0,000 mm 0,0 UV-I 0 W/m 6,8 C 6,9 C 9,7 km/h (2 Bft) 100,00 %
25.10.2016 06:48 6,9 C 99 % 1019,5 hPa 0,0 l/m 5,7 km/h (1 Bft) W 268 0 min 0,000 mm 0,0 UV-I 0 W/m 6,8 C 6,9 C 8,0 km/h (2 Bft) 100,00 %
25.10.2016 06:50 6,9 C 99 % 1019,6 hPa 0,0 l/m 7,3 km/h (2 Bft) W-SW 242 0 min 0,000 mm 0,0 UV-I 0 W/m 6,8 C 6,2 C 11,3 km/h (2 Bft) 100,00 %
25.10.2016 06:52 6,9 C 99 % 1019,7 hPa 0,0 l/m 8,1 km/h (2 Bft) W-SW 238 0 min 0,000 mm 0,0 UV-I 0 W/m 6,8 C 5,5 C 12,9 km/h (3 Bft) 100,00 %
25.10.2016 06:54 6,9 C 99 % 1019,7 hPa 0,0 l/m 7,0 km/h (2 Bft) W-SW 240 0 min 0,000 mm 0,0 UV-I 0 W/m 6,8 C 6,4 C 11,3 km/h (2 Bft) 100,00 %
25.10.2016 06:56 6,9 C 99 % 1019,7 hPa 0,0 l/m 6,5 km/h (2 Bft) SW 229 0 min 0,000 mm 0,0 UV-I 0 W/m 6,8 C 6,8 C 9,7 km/h (2 Bft) 100,00 %
25.10.2016 06:58 6,9 C 99 % 1019,8 hPa 0,0 l/m 8,2 km/h (2 Bft) SW 229 0 min 0,000 mm 0,0 UV-I 0 W/m 6,8 C 5,4 C 12,9 km/h (3 Bft) 100,00 %
25.10.2016 07:00 6,9 C 99 % 1019,8 hPa 0,0 l/m 6,6 km/h (2 Bft) SW 234 0 min 0,000 mm 0,0 UV-I 0 W/m 6,8 C 6,8 C 9,7 km/h (2 Bft) 100,00 %
25.10.2016 07:02 6,9 C 99 % 1019,9 hPa 0,0 l/m 7,5 km/h (2 Bft) SW 232 0 min 0,000 mm 0,0 UV-I 0 W/m 6,8 C 6,0 C 11,3 km/h (2 Bft) 100,00 %
25.10.2016 07:04 6,9 C 99 % 1019,9 hPa 0,0 l/m 8,5 km/h (2 Bft) SW 221 0 min 0,000 mm 0,0 UV-I 0 W/m 6,8 C 5,2 C 12,9 km/h (3 Bft) 94,74 %
25.10.2016 07:06 6,9 C 99 % 1020,1 hPa 0,0 l/m 8,4 km/h (2 Bft) SW 235 0 min 0,000 mm 0,0 UV-I 0 W/m 6,8 C 5,3 C 17,7 km/h (3 Bft) 100,00 %
25.10.2016 07:08 6,9 C 99 % 1020,2 hPa 0,0 l/m 10,2 km/h (2 Bft) S-SW 213 0 min 0,000 mm 0,0 UV-I 0 W/m 6,8 C 4,0 C 14,5 km/h (3 Bft) 100,00 %
25.10.2016 07:10 6,9 C 99 % 1020,2 hPa 0,0 l/m 7,6 km/h (2 Bft) S-SW 213 0 min 0,000 mm 0,0 UV-I 0 W/m 6,8 C 5,9 C 12,9 km/h (3 Bft) 97,56 %
25.10.2016 07:12 6,9 C 99 % 1020,1 hPa 0,0 l/m 7,9 km/h (2 Bft) SW 227 0 min 0,000 mm 0,0 UV-I 0 W/m 6,8 C 5,7 C 12,9 km/h (3 Bft) 100,00 %
25.10.2016 07:14 6,9 C 99 % 1020,1 hPa 0,0 l/m 7,0 km/h (2 Bft) S-SW 204 0 min 0,000 mm 0,0 UV-I 0 W/m 6,8 C 6,4 C 11,3 km/h (2 Bft) 98,04 %
25.10.2016 07:16 6,9 C 99 % 1019,9 hPa 0,0 l/m 5,7 km/h (1 Bft) S-SW 200 0 min 0,000 mm 0,0 UV-I 0 W/m 6,8 C 6,9 C 9,7 km/h (2 Bft) 100,00 %
25.10.2016 07:18 6,9 C 99 % 1020,0 hPa 0,0 l/m 5,0 km/h (1 Bft) SW 233 0 min 0,000 mm 0,0 UV-I 0 W/m 6,8 C 6,9 C 9,7 km/h (2 Bft) 100,00 %
25.10.2016 07:20 6,9 C 99 % 1020,0 hPa 0,0 l/m 5,5 km/h (1 Bft) SW 221 0 min 0,000 mm 0,0 UV-I 0 W/m 6,8 C 6,9 C 8,0 km/h (2 Bft) 98,00 %
25.10.2016 07:22 6,9 C 99 % 1020,0 hPa 0,0 l/m 3,3 km/h (1 Bft) S 173 0 min 0,000 mm 0,0 UV-I 0 W/m 6,8 C 6,9 C 6,4 km/h (2 Bft) 100,00 %
25.10.2016 07:24 6,9 C 99 % 1020,0 hPa 0,0 l/m 2,5 km/h (1 Bft) S-SO 162 0 min 0,000 mm 0,0 UV-I 0 W/m 6,8 C 6,9 C 6,4 km/h (2 Bft) 100,00 %
25.10.2016 07:26 6,9 C 99 % 1020,2 hPa 0,0 l/m 1,9 km/h (1 Bft) S 181 0 min 0,000 mm 0,0 UV-I 0 W/m 6,8 C 6,9 C 6,4 km/h (2 Bft) 100,00 %
25.10.2016 07:28 6,9 C 99 % 1020,3 hPa 0,0 l/m 3,0 km/h (1 Bft) S 188 0 min 0,000 mm 0,0 UV-I 0 W/m 6,8 C 6,9 C 4,8 km/h (1 Bft) 100,00 %
25.10.2016 07:30 6,9 C 99 % 1020,3 hPa 0,0 l/m 3,1 km/h (1 Bft) S-SW 205 0 min 0,000 mm 0,0 UV-I 0 W/m 6,8 C 6,9 C 6,4 km/h (2 Bft) 100,00 %
25.10.2016 07:32 6,9 C 99 % 1020,3 hPa 0,0 l/m 4,6 km/h (1 Bft) SW 231 0 min 0,000 mm 0,0 UV-I 0 W/m 6,8 C 6,9 C 6,4 km/h (2 Bft) 100,00 %
25.10.2016 07:34 6,9 C 99 % 1020,3 hPa 0,0 l/m 4,6 km/h (1 Bft) SW 221 0 min 0,000 mm 0,0 UV-I 0 W/m 6,8 C 6,9 C 6,4 km/h (2 Bft) 100,00 %
25.10.2016 07:36 6,9 C 99 % 1020,4 hPa 0,0 l/m 6,6 km/h (2 Bft) SW 227 0 min 0,000 mm 0,0 UV-I 0 W/m 6,8 C 6,8 C 9,7 km/h (2 Bft) 100,00 %
25.10.2016 07:38 6,9 C 99 % 1020,4 hPa 0,0 l/m 6,4 km/h (2 Bft) SW 215 0 min 0,000 mm 0,0 UV-I 0 W/m 6,8 C 6,9 C 8,0 km/h (2 Bft) 100,00 %
25.10.2016 07:40 6,9 C 99 % 1020,3 hPa 0,0 l/m 4,4 km/h (1 Bft) SW 228 0 min 0,000 mm 0,0 UV-I 3 W/m 6,8 C 6,9 C 8,0 km/h (2 Bft) 100,00 %
25.10.2016 07:42 7,0 C 99 % 1020,3 hPa 0,0 l/m 4,6 km/h (1 Bft) S-SW 198 0 min 0,000 mm 0,0 UV-I 5 W/m 6,9 C 7,0 C 8,0 km/h (2 Bft) 100,00 %
25.10.2016 07:44 7,0 C 99 % 1020,1 hPa 0,0 l/m 3,8 km/h (1 Bft) S 190 0 min 0,000 mm 0,0 UV-I 5 W/m 6,9 C 7,0 C 6,4 km/h (2 Bft) 100,00 %
25.10.2016 07:46 7,1 C 99 % 1020,1 hPa 0,0 l/m 2,4 km/h (1 Bft) S 188 0 min 0,000 mm 0,0 UV-I 7 W/m 7,0 C 7,1 C 4,8 km/h (1 Bft) 97,87 %
25.10.2016 07:48 7,1 C 99 % 1020,3 hPa 0,0 l/m 1,9 km/h (1 Bft) S-SW 204 0 min 0,000 mm 0,0 UV-I 8 W/m 7,0 C 7,1 C 4,8 km/h (1 Bft) 95,74 %
25.10.2016 07:50 7,1 C 99 % 1020,5 hPa 0,0 l/m 5,3 km/h (1 Bft) W-SW 240 0 min 0,000 mm 0,0 UV-I 9 W/m 7,0 C 7,1 C 8,0 km/h (2 Bft) 97,87 %
25.10.2016 07:52 7,1 C 99 % 1020,5 hPa 0,0 l/m 3,5 km/h (1 Bft) W-SW 252 0 min 0,000 mm 0,0 UV-I 10 W/m 7,0 C 7,1 C 8,0 km/h (2 Bft) 91,49 %
25.10.2016 07:54 7,1 C 99 % 1020,4 hPa 0,0 l/m 0,9 km/h (0 Bft) W-SW 252 0 min 0,000 mm 0,0 UV-I 12 W/m 7,0 C 7,1 C 3,2 km/h (1 Bft) 95,74 %
25.10.2016 07:56 7,0 C 99 % 1020,5 hPa 0,0 l/m 0,4 km/h (0 Bft) W-SW 252 0 min 0,000 mm 0,0 UV-I 15 W/m 6,9 C 7,0 C 1,6 km/h (1 Bft) 95,12 %
25.10.2016 07:58 7,1 C 99 % 1020,6 hPa 0,0 l/m 0,0 km/h (0 Bft) W-SW 252 0 min 0,000 mm 0,0 UV-I 16 W/m 7,0 C 7,1 C 0,0 km/h (0 Bft) 97,87 %
25.10.2016 08:00 7,1 C 99 % 1020,6 hPa 0,0 l/m 0,7 km/h (0 Bft) W-SW 252 0 min 0,000 mm 0,0 UV-I 18 W/m 7,0 C 7,1 C 1,6 km/h (1 Bft) 95,83 %
25.10.2016 08:02 7,0 C 99 % 1020,8 hPa 0,0 l/m 0,0 km/h (0 Bft) W-SW 252 0 min 0,000 mm 0,0 UV-I 19 W/m 6,9 C 7,0 C 0,0 km/h (0 Bft) 97,87 %
25.10.2016 08:04 7,1 C 99 % 1020,8 hPa 0,0 l/m 0,0 km/h (0 Bft) W-SW 252 0 min 0,000 mm 0,0 UV-I 20 W/m 7,0 C 7,1 C 0,0 km/h (0 Bft) 98,00 %
25.10.2016 08:06 7,1 C 99 % 1020,8 hPa 0,0 l/m 0,6 km/h (0 Bft) W-SW 252 0 min 0,000 mm 0,0 UV-I 22 W/m 7,0 C 7,1 C 1,6 km/h (1 Bft) 97,87 %
25.10.2016 08:08 7,1 C 99 % 1020,8 hPa 0,0 l/m 0,0 km/h (0 Bft) W-SW 252 0 min 0,000 mm 0,0 UV-I 25 W/m 7,0 C 7,1 C 0,0 km/h (0 Bft) 97,87 %
25.10.2016 08:10 7,2 C 99 % 1020,8 hPa 0,0 l/m 0,1 km/h (0 Bft) W-SW 252 0 min 0,000 mm 0,0 UV-I 26 W/m 7,1 C 7,2 C 1,6 km/h (1 Bft) 93,62 %
25.10.2016 08:12 7,2 C 99 % 1021,0 hPa 0,0 l/m 1,3 km/h (1 Bft) W-SW 252 0 min 0,000 mm 0,0 UV-I 27 W/m 7,1 C 7,2 C 3,2 km/h (1 Bft) 97,87 %
25.10.2016 08:14 7,2 C 99 % 1021,0 hPa 0,0 l/m 1,5 km/h (1 Bft) W-SW 252 0 min 0,000 mm 0,0 UV-I 26 W/m 7,1 C 7,2 C 3,2 km/h (1 Bft) 97,87 %
25.10.2016 08:16 7,2 C 99 % 1021,0 hPa 0,0 l/m 0,0 km/h (0 Bft) W-SW 252 0 min 0,000 mm 0,0 UV-I 27 W/m 7,1 C 7,2 C 0,0 km/h (0 Bft) 97,87 %
25.10.2016 08:18 7,2 C 99 % 1021,0 hPa 0,0 l/m 0,7 km/h (0 Bft) W-SW 252 0 min 0,000 mm 0,0 UV-I 29 W/m 7,1 C 7,2 C 1,6 km/h (1 Bft) 97,87 %
25.10.2016 08:20 7,3 C 99 % 1021,0 hPa 0,0 l/m 1,0 km/h (0 Bft) W-SW 252 0 min 0,000 mm 0,0 UV-I 32 W/m 7,2 C 7,3 C 3,2 km/h (1 Bft) 100,00 %
25.10.2016 08:22 7,3 C 99 % 1021,0 hPa 0,0 l/m 0,0 km/h (0 Bft) W-SW 252 0 min 0,000 mm 0,0 UV-I 31 W/m 7,2 C 7,3 C 0,0 km/h (0 Bft) 100,00 %
25.10.2016 08:24 7,3 C 99 % 1020,9 hPa 0,0 l/m 0,1 km/h (0 Bft) W-SW 252 0 min 0,000 mm 0,0 UV-I 32 W/m 7,2 C 7,3 C 1,6 km/h (1 Bft) 100,00 %
25.10.2016 08:26 7,4 C 99 % 1020,9 hPa 0,0 l/m 2,0 km/h (1 Bft) W-SW 252 0 min 0,000 mm 0,0 UV-I 30 W/m 7,3 C 7,4 C 3,2 km/h (1 Bft) 98,00 %
25.10.2016 08:28 7,4 C 99 % 1021,0 hPa 0,0 l/m 3,3 km/h (1 Bft) S 171 0 min 0,000 mm 0,0 UV-I 26 W/m 7,3 C 7,4 C 6,4 km/h (2 Bft) 100,00 %
25.10.2016 08:30 7,6 C 99 % 1021,1 hPa 0,0 l/m 3,4 km/h (1 Bft) S 171 0 min 0,000 mm 0,0 UV-I 23 W/m 7,5 C 7,6 C 6,4 km/h (2 Bft) 97,87 %
25.10.2016 08:32 7,6 C 99 % 1021,2 hPa 0,0 l/m 2,2 km/h (1 Bft) S 171 0 min 0,000 mm 0,0 UV-I 18 W/m 7,5 C 7,6 C 3,2 km/h (1 Bft) 100,00 %
25.10.2016 08:34 7,6 C 99 % 1021,2 hPa 0,0 l/m 2,9 km/h (1 Bft) S 171 0 min 0,000 mm 0,0 UV-I 18 W/m 7,5 C 7,6 C 3,2 km/h (1 Bft) 97,87 %
25.10.2016 08:36 7,6 C 99 % 1021,1 hPa 0,0 l/m 2,4 km/h (1 Bft) S 171 0 min 0,000 mm 0,0 UV-I 19 W/m 7,5 C 7,6 C 3,2 km/h (1 Bft) 100,00 %
25.10.2016 08:38 7,6 C 99 % 1021,2 hPa 0,0 l/m 1,9 km/h (1 Bft) S 171 0 min 0,000 mm 0,0 UV-I 18 W/m 7,5 C 7,6 C 6,4 km/h (2 Bft) 97,87 %
25.10.2016 08:40 7,6 C 99 % 1021,3 hPa 0,0 l/m 1,0 km/h (0 Bft) S 171 0 min 0,000 mm 0,0 UV-I 19 W/m 7,5 C 7,6 C 3,2 km/h (1 Bft) 97,87 %
25.10.2016 08:42 7,7 C 99 % 1021,3 hPa 0,0 l/m 0,9 km/h (0 Bft) S 171 0 min 0,000 mm 0,0 UV-I 20 W/m 7,6 C 7,7 C 3,2 km/h (1 Bft) 100,00 %
25.10.2016 08:44 7,7 C 99 % 1021,3 hPa 0,0 l/m 0,0 km/h (0 Bft) S 171 0 min 0,000 mm 0,0 UV-I 22 W/m 7,6 C 7,7 C 0,0 km/h (0 Bft) 97,92 %
25.10.2016 08:46 7,7 C 99 % 1021,2 hPa 0,0 l/m 0,4 km/h (0 Bft) S 171 0 min 0,000 mm 0,0 UV-I 23 W/m 7,6 C 7,7 C 3,2 km/h (1 Bft) 97,87 %
25.10.2016 08:48 7,7 C 99 % 1021,2 hPa 0,0 l/m 2,3 km/h (1 Bft) S 171 0 min 0,000 mm 0,0 UV-I 25 W/m 7,6 C 7,7 C 3,2 km/h (1 Bft) 100,00 %
25.10.2016 08:50 7,7 C 99 % 1021,3 hPa 0,0 l/m 3,1 km/h (1 Bft) S 171 0 min 0,000 mm 0,0 UV-I 26 W/m 7,6 C 7,7 C 6,4 km/h (2 Bft) 100,00 %
25.10.2016 08:52 7,7 C 99 % 1021,3 hPa 0,0 l/m 3,3 km/h (1 Bft) S 171 0 min 0,000 mm 0,0 UV-I 28 W/m 7,6 C 7,7 C 6,4 km/h (2 Bft) 100,00 %
25.10.2016 08:54 7,8 C 99 % 1021,2 hPa 0,0 l/m 2,7 km/h (1 Bft) S 171 0 min 0,000 mm 0,0 UV-I 27 W/m 7,7 C 7,8 C 6,4 km/h (2 Bft) 100,00 %
25.10.2016 08:56 7,8 C 99 % 1021,2 hPa 0,0 l/m 1,7 km/h (1 Bft) S 171 0 min 0,000 mm 0,0 UV-I 24 W/m 7,7 C 7,8 C 3,2 km/h (1 Bft) 100,00 %
25.10.2016 08:58 7,8 C 99 % 1021,3 hPa 0,0 l/m 0,7 km/h (0 Bft) S 171 0 min 0,000 mm 0,0 UV-I 23 W/m 7,7 C 7,8 C 3,2 km/h (1 Bft) 100,00 %
25.10.2016 09:00 7,8 C 99 % 1021,4 hPa 0,0 l/m 2,5 km/h (1 Bft) S 171 0 min 0,000 mm 0,0 UV-I 23 W/m 7,7 C 7,8 C 6,4 km/h (2 Bft) 100,00 %
25.10.2016 09:02 7,8 C 99 % 1021,4 hPa 0,0 l/m 1,4 km/h (1 Bft) S 171 0 min 0,000 mm 0,0 UV-I 29 W/m 7,7 C 7,8 C 3,2 km/h (1 Bft) 97,87 %
25.10.2016 09:04 7,9 C 99 % 1021,5 hPa 0,0 l/m 2,9 km/h (1 Bft) S-SW 198 0 min 0,000 mm 0,0 UV-I 35 W/m 7,8 C 7,9 C 6,4 km/h (2 Bft) 100,00 %
25.10.2016 09:06 7,9 C 99 % 1021,7 hPa 0,0 l/m 3,3 km/h (1 Bft) W-SW 251 0 min 0,000 mm 0,0 UV-I 39 W/m 7,8 C 7,9 C 4,8 km/h (1 Bft) 100,00 %
25.10.2016 09:08 8,0 C 99 % 1021,7 hPa 0,0 l/m 0,5 km/h (0 Bft) W-SW 251 0 min 0,000 mm 0,0 UV-I 36 W/m 7,9 C 8,0 C 1,6 km/h (1 Bft) 100,00 %
25.10.2016 09:10 8,0 C 99 % 1021,7 hPa 0,0 l/m 0,0 km/h (0 Bft) W-SW 251 0 min 0,000 mm 0,0 UV-I 29 W/m 7,9 C 8,0 C 0,0 km/h (0 Bft) 100,00 %
25.10.2016 09:12 8,1 C 99 % 1021,6 hPa 0,0 l/m 0,1 km/h (0 Bft) W-SW 251 0 min 0,000 mm 0,0 UV-I 24 W/m 8,0 C 8,1 C 1,6 km/h (1 Bft) 100,00 %
25.10.2016 09:14 8,1 C 99 % 1021,8 hPa 0,0 l/m 0,0 km/h (0 Bft) W-SW 251 0 min 0,000 mm 0,0 UV-I 19 W/m 8,0 C 8,1 C 1,6 km/h (1 Bft) 100,00 %
25.10.2016 09:16 8,1 C 99 % 1022,0 hPa 0,0 l/m 0,2 km/h (0 Bft) W-SW 251 0 min 0,000 mm 0,0 UV-I 20 W/m 8,0 C 8,1 C 1,6 km/h (1 Bft) 100,00 %
25.10.2016 09:18 8,2 C 99 % 1022,0 hPa 0,0 l/m 2,4 km/h (1 Bft) W-SW 251 0 min 0,000 mm 0,0 UV-I 30 W/m 8,1 C 8,2 C 3,2 km/h (1 Bft) 100,00 %
25.10.2016 09:20 8,2 C 99 % 1022,0 hPa 0,0 l/m 2,5 km/h (1 Bft) W-SW 251 0 min 0,000 mm 0,0 UV-I 33 W/m 8,1 C 8,2 C 4,8 km/h (1 Bft) 98,00 %
25.10.2016 09:22 8,3 C 99 % 1021,9 hPa 0,0 l/m 1,9 km/h (1 Bft) W-SW 251 0 min 0,000 mm 0,0 UV-I 39 W/m 8,2 C 8,3 C 3,2 km/h (1 Bft) 97,87 %
25.10.2016 09:24 8,3 C 99 % 1022,0 hPa 0,0 l/m 2,2 km/h (1 Bft) W-SW 251 0 min 0,000 mm 0,0 UV-I 38 W/m 8,2 C 8,3 C 4,8 km/h (1 Bft) 100,00 %
25.10.2016 09:26 8,3 C 99 % 1022,1 hPa 0,0 l/m 3,5 km/h (1 Bft) W-SW 251 0 min 0,000 mm 0,0 UV-I 32 W/m 8,2 C 8,3 C 4,8 km/h (1 Bft) 100,00 %
25.10.2016 09:28 8,3 C 99 % 1022,2 hPa 0,0 l/m 3,5 km/h (1 Bft) W-SW 251 0 min 0,000 mm 0,0 UV-I 22 W/m 8,2 C 8,3 C 4,8 km/h (1 Bft) 97,87 %
25.10.2016 09:30 8,4 C 99 % 1022,3 hPa 0,0 l/m 3,9 km/h (1 Bft) W-SW 251 0 min 0,000 mm 0,0 UV-I 16 W/m 8,3 C 8,4 C 4,8 km/h (1 Bft) 100,00 %
25.10.2016 09:32 8,4 C 99 % 1022,4 hPa 0,0 l/m 3,1 km/h (1 Bft) W-SW 251 0 min 0,000 mm 0,0 UV-I 14 W/m 8,3 C 8,4 C 4,8 km/h (1 Bft) 97,87 %
25.10.2016 09:34 8,4 C 99 % 1022,5 hPa 0,0 l/m 1,6 km/h (1 Bft) W-SW 251 0 min 0,000 mm 0,0 UV-I 14 W/m 8,3 C 8,4 C 4,8 km/h (1 Bft) 97,87 %
25.10.2016 09:36 8,4 C 99 % 1022,6 hPa 0,0 l/m 0,8 km/h (0 Bft) W-SW 251 0 min 0,000 mm 0,0 UV-I 14 W/m 8,3 C 8,4 C 3,2 km/h (1 Bft) 97,87 %
25.10.2016 09:38 8,4 C 99 % 1022,6 hPa 0,0 l/m 1,2 km/h (1 Bft) W-SW 251 0 min 0,000 mm 0,0 UV-I 14 W/m 8,3 C 8,4 C 3,2 km/h (1 Bft) 100,00 %
25.10.2016 09:40 8,4 C 99 % 1022,7 hPa 0,0 l/m 1,6 km/h (1 Bft) W-SW 251 0 min 0,000 mm 0,0 UV-I 16 W/m 8,3 C 8,4 C 3,2 km/h (1 Bft) 100,00 %
25.10.2016 09:42 8,4 C 99 % 1022,6 hPa 0,0 l/m 2,7 km/h (1 Bft) W-SW 251 0 min 0,000 mm 0,0 UV-I 24 W/m 8,3 C 8,4 C 4,8 km/h (1 Bft) 98,00 %
25.10.2016 09:44 8,5 C 99 % 1022,6 hPa 0,0 l/m 1,5 km/h (1 Bft) W-SW 251 0 min 0,000 mm 0,0 UV-I 31 W/m 8,4 C 8,5 C 3,2 km/h (1 Bft) 97,87 %
25.10.2016 09:46 8,5 C 99 % 1022,7 hPa 0,0 l/m 0,0 km/h (0 Bft) W-SW 251 0 min 0,000 mm 0,0 UV-I 37 W/m 8,4 C 8,5 C 1,6 km/h (1 Bft) 97,87 %
25.10.2016 09:48 8,5 C 99 % 1022,7 hPa 0,0 l/m 1,4 km/h (1 Bft) W-SW 251 0 min 0,000 mm 0,0 UV-I 42 W/m 8,4 C 8,5 C 3,2 km/h (1 Bft) 97,87 %
25.10.2016 09:50 8,6 C 99 % 1022,7 hPa 0,2 l/m 0,4 km/h (0 Bft) W-SW 251 0 min 0,000 mm 0,0 UV-I 44 W/m 8,5 C 8,6 C 1,6 km/h (1 Bft) 95,74 %
25.10.2016 09:52 8,6 C 99 % 1022,8 hPa 0,0 l/m 0,3 km/h (0 Bft) W-SW 251 0 min 0,000 mm 0,0 UV-I 48 W/m 8,5 C 8,6 C 1,6 km/h (1 Bft) 95,74 %
25.10.2016 09:54 8,7 C 99 % 1022,8 hPa 0,0 l/m 0,1 km/h (0 Bft) W-SW 251 0 min 0,000 mm 0,0 UV-I 45 W/m 8,6 C 8,7 C 1,6 km/h (1 Bft) 97,87 %
25.10.2016 09:56 8,7 C 99 % 1022,8 hPa 0,0 l/m 1,3 km/h (1 Bft) W-SW 251 0 min 0,000 mm 0,0 UV-I 40 W/m 8,6 C 8,7 C 3,2 km/h (1 Bft) 97,87 %
25.10.2016 09:58 8,7 C 99 % 1022,9 hPa 0,0 l/m 1,0 km/h (0 Bft) W-SW 251 0 min 0,000 mm 0,0 UV-I 38 W/m 8,6 C 8,7 C 1,6 km/h (1 Bft) 95,74 %
25.10.2016 10:00 8,7 C 99 % 1022,9 hPa 0,0 l/m 1,8 km/h (1 Bft) W-SW 251 0 min 0,025 mm 0,0 UV-I 30 W/m 8,6 C 8,7 C 3,2 km/h (1 Bft) 97,87 %
25.10.2016 10:02 8,7 C 99 % 1022,9 hPa 0,0 l/m 1,3 km/h (1 Bft) W-SW 251 0 min 0,000 mm 0,0 UV-I 24 W/m 8,6 C 8,7 C 3,2 km/h (1 Bft) 95,74 %
25.10.2016 10:04 8,7 C 99 % 1023,0 hPa 0,0 l/m 1,4 km/h (1 Bft) W-SW 251 0 min 0,000 mm 0,0 UV-I 19 W/m 8,6 C 8,7 C 3,2 km/h (1 Bft) 97,92 %
25.10.2016 10:06 8,7 C 99 % 1023,0 hPa 0,0 l/m 1,0 km/h (0 Bft) W-SW 251 0 min 0,000 mm 0,0 UV-I 18 W/m 8,6 C 8,7 C 3,2 km/h (1 Bft) 97,87 %
25.10.2016 10:08 8,7 C 99 % 1023,1 hPa 0,0 l/m 1,1 km/h (1 Bft) W-SW 251 0 min 0,000 mm 0,0 UV-I 19 W/m 8,6 C 8,7 C 3,2 km/h (1 Bft) 97,37 %
25.10.2016 10:10 8,7 C 99 % 1023,1 hPa 0,0 l/m 2,8 km/h (1 Bft) W-SW 251 0 min 0,000 mm 0,0 UV-I 21 W/m 8,6 C 8,7 C 4,8 km/h (1 Bft) 97,87 %
25.10.2016 10:12 8,7 C 99 % 1023,1 hPa 0,0 l/m 3,1 km/h (1 Bft) W-SW 251 0 min 0,000 mm 0,0 UV-I 24 W/m 8,6 C 8,7 C 4,8 km/h (1 Bft) 95,74 %
25.10.2016 10:14 8,8 C 99 % 1023,1 hPa 0,2 l/m 1,0 km/h (0 Bft) W-SW 251 0 min 0,000 mm 0,0 UV-I 28 W/m 8,7 C 8,8 C 1,6 km/h (1 Bft) 95,74 %
25.10.2016 10:16 8,8 C 99 % 1023,1 hPa 0,0 l/m 2,2 km/h (1 Bft) W-SW 251 0 min 0,000 mm 0,0 UV-I 33 W/m 8,7 C 8,8 C 4,8 km/h (1 Bft) 97,87 %
25.10.2016 10:18 8,9 C 99 % 1023,2 hPa 0,0 l/m 3,7 km/h (1 Bft) S 182 0 min 0,000 mm 0,0 UV-I 30 W/m 8,8 C 8,9 C 6,4 km/h (2 Bft) 95,74 %
25.10.2016 10:20 8,9 C 99 % 1023,2 hPa 0,2 l/m 4,2 km/h (1 Bft) S 184 0 min 0,000 mm 0,0 UV-I 26 W/m 8,8 C 8,9 C 6,4 km/h (2 Bft) 98,00 %
25.10.2016 10:22 8,9 C 99 % 1023,1 hPa 0,0 l/m 2,9 km/h (1 Bft) S 184 0 min 0,000 mm 0,0 UV-I 26 W/m 8,8 C 8,9 C 4,8 km/h (1 Bft) 97,87 %
25.10.2016 10:24 9,0 C 99 % 1023,1 hPa 0,0 l/m 2,3 km/h (1 Bft) S 183 0 min 0,000 mm 0,0 UV-I 30 W/m 8,9 C 9,0 C 4,8 km/h (1 Bft) 97,87 %
25.10.2016 10:26 9,1 C 99 % 1023,0 hPa 0,0 l/m 3,4 km/h (1 Bft) S 182 0 min 0,000 mm 0,0 UV-I 36 W/m 9,0 C 9,1 C 6,4 km/h (2 Bft) 100,00 %
25.10.2016 10:28 9,2 C 99 % 1022,9 hPa 0,0 l/m 2,2 km/h (1 Bft) S-SO 154 0 min 0,000 mm 0,0 UV-I 44 W/m 9,1 C 9,2 C 4,8 km/h (1 Bft) 97,87 %
25.10.2016 10:30 9,3 C 99 % 1022,7 hPa 0,0 l/m 2,6 km/h (1 Bft) SO 139 0 min 0,000 mm 0,0 UV-I 51 W/m 9,2 C 9,3 C 6,4 km/h (2 Bft) 100,00 %
25.10.2016 10:32 9,6 C 99 % 1022,6 hPa 0,2 l/m 5,8 km/h (2 Bft) SO 146 0 min 0,000 mm 0,0 UV-I 55 W/m 9,5 C 9,6 C 11,3 km/h (2 Bft) 100,00 %
25.10.2016 10:34 9,8 C 99 % 1022,4 hPa 0,0 l/m 6,6 km/h (2 Bft) S-SO 165 0 min 0,000 mm 0,0 UV-I 64 W/m 9,7 C 9,7 C 12,9 km/h (3 Bft) 100,00 %
25.10.2016 10:36 10,1 C 99 % 1022,4 hPa 0,0 l/m 5,6 km/h (1 Bft) S-SO 155 0 min 0,000 mm 0,0 UV-I 68 W/m 9,9 C 10,1 C 11,3 km/h (2 Bft) 100,00 %
25.10.2016 10:38 10,2 C 99 % 1022,5 hPa 0,0 l/m 4,1 km/h (1 Bft) S-SO 154 0 min 0,000 mm 0,0 UV-I 73 W/m 10,0 C 10,2 C 8,0 km/h (2 Bft) 98,00 %
25.10.2016 10:40 10,1 C 99 % 1022,6 hPa 0,0 l/m 2,1 km/h (1 Bft) S-SO 153 0 min 0,000 mm 0,0 UV-I 78 W/m 9,9 C 10,1 C 4,8 km/h (1 Bft) 100,00 %
25.10.2016 10:42 10,0 C 99 % 1022,7 hPa 0,0 l/m 1,7 km/h (1 Bft) S-SO 153 0 min 0,000 mm 0,0 UV-I 74 W/m 9,8 C 10,0 C 4,8 km/h (1 Bft) 96,08 %
25.10.2016 10:44 10,0 C 99 % 1022,7 hPa 0,0 l/m 0,0 km/h (0 Bft) S-SO 153 0 min 0,000 mm 0,0 UV-I 68 W/m 9,8 C 10,0 C 0,0 km/h (0 Bft) 100,00 %
25.10.2016 10:46 10,0 C 99 % 1022,6 hPa 0,0 l/m 0,3 km/h (0 Bft) S-SO 153 0 min 0,000 mm 0,0 UV-I 72 W/m 9,8 C 10,0 C 1,6 km/h (1 Bft) 100,00 %
25.10.2016 10:48 10,1 C 99 % 1022,5 hPa 0,0 l/m 3,5 km/h (1 Bft) SO 141 0 min 0,000 mm 0,0 UV-I 83 W/m 9,9 C 10,1 C 6,4 km/h (2 Bft) 100,00 %
25.10.2016 10:50 10,2 C 99 % 1022,4 hPa 0,0 l/m 6,1 km/h (2 Bft) O-SO 117 0 min 0,000 mm 0,0 UV-I 94 W/m 10,0 C 10,2 C 9,7 km/h (2 Bft) 97,87 %
25.10.2016 10:52 10,2 C 99 % 1022,2 hPa 0,0 l/m 5,4 km/h (1 Bft) SO 129 0 min 0,000 mm 0,0 UV-I 101 W/m 10,0 C 10,2 C 6,4 km/h (2 Bft) 95,74 %
25.10.2016 10:54 10,3 C 99 % 1022,1 hPa 0,0 l/m 3,5 km/h (1 Bft) SO 129 0 min 0,000 mm 0,1 UV-I 113 W/m 10,1 C 10,3 C 6,4 km/h (2 Bft) 100,00 %
25.10.2016 10:56 10,4 C 99 % 1022,1 hPa 0,0 l/m 4,7 km/h (1 Bft) SO 127 0 min 0,000 mm 0,5 UV-I 130 W/m 10,2 C 10,4 C 6,4 km/h (2 Bft) 100,00 %
25.10.2016 10:58 10,6 C 99 % 1022,0 hPa 0,0 l/m 4,2 km/h (1 Bft) SO 130 0 min 0,000 mm 0,5 UV-I 146 W/m 10,4 C 10,6 C 6,4 km/h (2 Bft) 97,87 %
25.10.2016 11:00 10,6 C 99 % 1022,0 hPa 0,0 l/m 6,7 km/h (2 Bft) O-SO 112 0 min 0,026 mm 0,6 UV-I 157 W/m 10,4 C 10,4 C 12,9 km/h (3 Bft) 97,87 %
25.10.2016 11:02 10,6 C 99 % 1022,0 hPa 0,0 l/m 7,0 km/h (2 Bft) O-SO 108 0 min 0,000 mm 0,5 UV-I 147 W/m 10,4 C 10,2 C 11,3 km/h (2 Bft) 100,00 %
25.10.2016 11:04 10,6 C 99 % 1021,7 hPa 0,0 l/m 6,7 km/h (2 Bft) O-SO 119 0 min 0,000 mm 0,5 UV-I 123 W/m 10,4 C 10,4 C 12,9 km/h (3 Bft) 97,87 %
25.10.2016 11:06 10,7 C 99 % 1021,6 hPa 0,0 l/m 10,5 km/h (2 Bft) O-SO 108 0 min 0,000 mm 0,5 UV-I 109 W/m 10,5 C 8,1 C 14,5 km/h (3 Bft) 97,87 %
25.10.2016 11:08 10,7 C 99 % 1021,5 hPa 0,0 l/m 11,3 km/h (2 Bft) O 80 0 min 0,000 mm 0,5 UV-I 105 W/m 10,5 C 7,7 C 14,5 km/h (3 Bft) 100,00 %
25.10.2016 11:10 10,7 C 99 % 1021,6 hPa 0,0 l/m 8,8 km/h (2 Bft) O 86 0 min 0,000 mm 0,5 UV-I 109 W/m 10,5 C 9,1 C 12,9 km/h (3 Bft) 97,87 %
25.10.2016 11:12 10,8 C 99 % 1021,8 hPa 0,0 l/m 6,8 km/h (2 Bft) O 99 0 min 0,000 mm 0,6 UV-I 127 W/m 10,6 C 10,5 C 11,3 km/h (2 Bft) 100,00 %
25.10.2016 11:14 10,8 C 99 % 1021,8 hPa 0,0 l/m 5,1 km/h (1 Bft) O 101 0 min 0,000 mm 0,6 UV-I 152 W/m 10,6 C 10,8 C 9,7 km/h (2 Bft) 100,00 %
25.10.2016 11:16 10,9 C 99 % 1021,9 hPa 0,0 l/m 2,4 km/h (1 Bft) O 95 0 min 0,000 mm 0,7 UV-I 165 W/m 10,7 C 10,9 C 6,4 km/h (2 Bft) 98,08 %
25.10.2016 11:18 10,9 C 99 % 1022,0 hPa 0,0 l/m 1,1 km/h (1 Bft) O 83 0 min 0,000 mm 0,7 UV-I 175 W/m 10,7 C 10,9 C 3,2 km/h (1 Bft) 100,00 %
25.10.2016 11:20 11,1 C 99 % 1022,1 hPa 0,0 l/m 0,6 km/h (0 Bft) O 83 0 min 0,000 mm 0,8 UV-I 193 W/m 10,9 C 11,1 C 1,6 km/h (1 Bft) 94,00 %
25.10.2016 11:22 11,1 C 99 % 1022,1 hPa 0,0 l/m 0,8 km/h (0 Bft) O 80 0 min 0,000 mm 0,9 UV-I 214 W/m 10,9 C 11,1 C 3,2 km/h (1 Bft) 97,87 %
25.10.2016 11:24 11,1 C 99 % 1022,2 hPa 0,0 l/m 0,2 km/h (0 Bft) O-NO 65 0 min 0,000 mm 0,9 UV-I 231 W/m 10,9 C 11,1 C 1,6 km/h (1 Bft) 95,74 %
25.10.2016 11:26 11,2 C 99 % 1022,2 hPa 0,0 l/m 0,3 km/h (0 Bft) O-NO 62 0 min 0,000 mm 1,0 UV-I 237 W/m 11,0 C 11,2 C 1,6 km/h (1 Bft) 97,96 %
25.10.2016 11:28 11,3 C 98 % 1022,2 hPa 0,0 l/m 0,5 km/h (0 Bft) O-NO 60 0 min 0,000 mm 1,0 UV-I 234 W/m 11,0 C 11,3 C 1,6 km/h (1 Bft) 100,00 %
25.10.2016 11:30 11,3 C 99 % 1022,2 hPa 0,0 l/m 1,0 km/h (0 Bft) N-NW 332 0 min 0,000 mm 1,0 UV-I 232 W/m 11,1 C 11,3 C 3,2 km/h (1 Bft) 95,74 %
25.10.2016 11:32 11,4 C 99 % 1022,3 hPa 0,0 l/m 2,0 km/h (1 Bft) N-NO 13 0 min 0,000 mm 1,0 UV-I 247 W/m 11,2 C 11,4 C 4,8 km/h (1 Bft) 100,00 %
25.10.2016 11:34 11,6 C 98 % 1022,4 hPa 0,0 l/m 1,6 km/h (1 Bft) N 11 2 min 0,000 mm 1,1 UV-I 286 W/m 11,3 C 11,6 C 3,2 km/h (1 Bft) 97,87 %
25.10.2016 11:36 11,7 C 98 % 1022,4 hPa 0,0 l/m 3,2 km/h (1 Bft) N-NO 15 2 min 0,000 mm 1,1 UV-I 274 W/m 11,4 C 11,7 C 4,8 km/h (1 Bft) 97,87 %
25.10.2016 11:38 11,8 C 98 % 1022,2 hPa 0,0 l/m 2,5 km/h (1 Bft) N-NW 347 0 min 0,000 mm 1,0 UV-I 217 W/m 11,5 C 11,8 C 6,4 km/h (2 Bft) 97,87 %
25.10.2016 11:40 11,8 C 98 % 1022,1 hPa 0,0 l/m 3,4 km/h (1 Bft) N-NO 20 0 min 0,000 mm 1,0 UV-I 230 W/m 11,5 C 11,8 C 8,0 km/h (2 Bft) 100,00 %
25.10.2016 11:42 11,8 C 98 % 1022,1 hPa 0,0 l/m 2,4 km/h (1 Bft) N-NO 26 0 min 0,000 mm 1,0 UV-I 254 W/m 11,5 C 11,8 C 6,4 km/h (2 Bft) 97,87 %
25.10.2016 11:44 11,8 C 98 % 1022,1 hPa 0,0 l/m 7,1 km/h (2 Bft) N-NO 28 0 min 0,000 mm 1,0 UV-I 222 W/m 11,5 C 11,3 C 12,9 km/h (3 Bft) 100,00 %
25.10.2016 11:46 11,8 C 98 % 1022,1 hPa 0,0 l/m 7,3 km/h (2 Bft) NO 37 0 min 0,000 mm 0,8 UV-I 171 W/m 11,5 C 11,2 C 12,9 km/h (3 Bft) 100,00 %
25.10.2016 11:48 11,6 C 98 % 1022,1 hPa 0,0 l/m 5,8 km/h (2 Bft) N-NO 26 0 min 0,000 mm 0,8 UV-I 161 W/m 11,3 C 11,6 C 11,3 km/h (2 Bft) 97,87 %
25.10.2016 11:50 11,3 C 97 % 1022,1 hPa 0,0 l/m 7,6 km/h (2 Bft) N-NO 26 0 min 0,000 mm 0,8 UV-I 126 W/m 10,8 C 10,5 C 12,9 km/h (3 Bft) 97,87 %
25.10.2016 11:52 11,1 C 97 % 1022,0 hPa 0,0 l/m 7,7 km/h (2 Bft) N-NO 31 0 min 0,000 mm 1,0 UV-I 165 W/m 10,6 C 10,2 C 12,9 km/h (3 Bft) 91,49 %
25.10.2016 11:54 10,9 C 97 % 1022,0 hPa 0,0 l/m 2,4 km/h (1 Bft) N-NO 25 0 min 0,000 mm 1,2 UV-I 224 W/m 10,4 C 10,9 C 6,4 km/h (2 Bft) 95,74 %
25.10.2016 11:56 11,1 C 98 % 1022,0 hPa 0,0 l/m 2,3 km/h (1 Bft) NO 36 2 min 0,000 mm 1,3 UV-I 358 W/m 10,8 C 11,1 C 6,4 km/h (2 Bft) 95,74 %
25.10.2016 11:58 10,9 C 98 % 1021,9 hPa 0,0 l/m 2,3 km/h (1 Bft) NW 311 2 min 0,000 mm 1,2 UV-I 289 W/m 10,6 C 10,9 C 4,8 km/h (1 Bft) 95,74 %
25.10.2016 12:00 10,9 C 98 % 1021,9 hPa 0,0 l/m 3,6 km/h (1 Bft) N-NO 12 0 min 0,000 mm 1,1 UV-I 201 W/m 10,6 C 10,9 C 8,0 km/h (2 Bft) 97,92 %
25.10.2016 12:02 10,8 C 97 % 1021,8 hPa 0,0 l/m 2,6 km/h (1 Bft) N-NW 331 0 min 0,101 mm 1,0 UV-I 216 W/m 10,3 C 10,8 C 4,8 km/h (1 Bft) 97,87 %
25.10.2016 12:04 10,7 C 97 % 1021,8 hPa 0,0 l/m 0,8 km/h (0 Bft) N-NW 344 0 min 0,000 mm 1,0 UV-I 184 W/m 10,2 C 10,7 C 3,2 km/h (1 Bft) 96,00 %
25.10.2016 12:06 10,8 C 97 % 1021,9 hPa 0,0 l/m 1,5 km/h (1 Bft) N-NO 22 0 min 0,000 mm 1,0 UV-I 207 W/m 10,3 C 10,8 C 4,8 km/h (1 Bft) 97,87 %
25.10.2016 12:08 10,7 C 97 % 1021,9 hPa 0,0 l/m 1,0 km/h (0 Bft) N-NW 332 0 min 0,000 mm 1,0 UV-I 221 W/m 10,2 C 10,7 C 3,2 km/h (1 Bft) 94,74 %
25.10.2016 12:10 10,7 C 97 % 1022,0 hPa 0,0 l/m 1,1 km/h (1 Bft) N-NW 329 0 min 0,000 mm 1,1 UV-I 224 W/m 10,2 C 10,7 C 3,2 km/h (1 Bft) 97,87 %
25.10.2016 12:12 10,8 C 98 % 1022,0 hPa 0,0 l/m 1,0 km/h (0 Bft) N 10 2 min 0,000 mm 1,3 UV-I 283 W/m 10,5 C 10,8 C 3,2 km/h (1 Bft) 93,62 %
25.10.2016 12:14 10,9 C 98 % 1022,0 hPa 0,0 l/m 1,6 km/h (1 Bft) N 9 2 min 0,000 mm 1,3 UV-I 392 W/m 10,6 C 10,9 C 3,2 km/h (1 Bft) 97,87 %
25.10.2016 12:16 11,1 C 98 % 1022,0 hPa 0,0 l/m 1,2 km/h (1 Bft) N 5 2 min 0,000 mm 1,1 UV-I 329 W/m 10,8 C 11,1 C 3,2 km/h (1 Bft) 97,87 %
25.10.2016 12:18 11,1 C 98 % 1022,0 hPa 0,0 l/m 1,4 km/h (1 Bft) N-NO 16 0 min 0,000 mm 0,9 UV-I 235 W/m 10,8 C 11,1 C 3,2 km/h (1 Bft) 93,62 %
25.10.2016 12:20 11,2 C 97 % 1022,0 hPa 0,0 l/m 1,9 km/h (1 Bft) N 9 0 min 0,000 mm 0,9 UV-I 223 W/m 10,7 C 11,2 C 3,2 km/h (1 Bft) 97,87 %
25.10.2016 12:22 11,2 C 97 % 1022,0 hPa 0,0 l/m 3,5 km/h (1 Bft) NO 36 2 min 0,000 mm 1,0 UV-I 281 W/m 10,7 C 11,2 C 6,4 km/h (2 Bft) 96,23 %
25.10.2016 12:24 11,2 C 98 % 1022,0 hPa 0,0 l/m 4,6 km/h (1 Bft) N-NO 29 0 min 0,000 mm 1,0 UV-I 256 W/m 10,9 C 11,2 C 8,0 km/h (2 Bft) 95,74 %
25.10.2016 12:26 11,2 C 97 % 1022,1 hPa 0,0 l/m 2,5 km/h (1 Bft) N-NO 16 0 min 0,000 mm 1,0 UV-I 250 W/m 10,7 C 11,2 C 6,4 km/h (2 Bft) 95,74 %
25.10.2016 12:28 11,2 C 97 % 1022,1 hPa 0,0 l/m 2,6 km/h (1 Bft) N-NO 23 0 min 0,000 mm 0,9 UV-I 238 W/m 10,7 C 11,2 C 6,4 km/h (2 Bft) 100,00 %
25.10.2016 12:30 11,2 C 97 % 1022,1 hPa 0,0 l/m 4,5 km/h (1 Bft) N-NO 15 0 min 0,000 mm 0,9 UV-I 218 W/m 10,7 C 11,2 C 11,3 km/h (2 Bft) 97,87 %
25.10.2016 12:32 11,3 C 97 % 1022,1 hPa 0,0 l/m 1,9 km/h (1 Bft) N-NO 16 0 min 0,000 mm 0,9 UV-I 204 W/m 10,8 C 11,3 C 4,8 km/h (1 Bft) 97,44 %
25.10.2016 12:34 11,3 C 97 % 1022,0 hPa 0,0 l/m 4,9 km/h (1 Bft) N 5 0 min 0,000 mm 0,9 UV-I 189 W/m 10,8 C 11,3 C 9,7 km/h (2 Bft) 100,00 %
25.10.2016 12:36 11,3 C 97 % 1022,0 hPa 0,0 l/m 6,5 km/h (2 Bft) N-NO 24 0 min 0,000 mm 0,9 UV-I 191 W/m 10,8 C 11,3 C 8,0 km/h (2 Bft) 100,00 %
25.10.2016 12:38 11,1 C 97 % 1022,0 hPa 0,0 l/m 6,6 km/h (2 Bft) N-NO 28 0 min 0,000 mm 0,9 UV-I 197 W/m 10,6 C 11,0 C 11,3 km/h (2 Bft) 100,00 %
25.10.2016 12:40 11,1 C 97 % 1022,0 hPa 0,0 l/m 4,1 km/h (1 Bft) N-NO 23 0 min 0,000 mm 0,9 UV-I 188 W/m 10,6 C 11,1 C 8,0 km/h (2 Bft) 100,00 %
25.10.2016 12:42 11,1 C 97 % 1022,0 hPa 0,0 l/m 6,9 km/h (2 Bft) N-NO 19 0 min 0,000 mm 0,9 UV-I 170 W/m 10,6 C 10,8 C 9,7 km/h (2 Bft) 100,00 %
25.10.2016 12:44 11,2 C 97 % 1022,0 hPa 0,0 l/m 3,1 km/h (1 Bft) N-NO 26 0 min 0,000 mm 0,9 UV-I 157 W/m 10,7 C 11,2 C 6,4 km/h (2 Bft) 95,74 %
25.10.2016 12:46 11,2 C 97 % 1022,0 hPa 0,0 l/m 6,1 km/h (2 Bft) NO 42 0 min 0,000 mm 0,9 UV-I 176 W/m 10,7 C 11,2 C 8,0 km/h (2 Bft) 97,87 %
25.10.2016 12:48 11,1 C 96 % 1022,0 hPa 0,0 l/m 4,1 km/h (1 Bft) NO 38 0 min 0,000 mm 0,9 UV-I 202 W/m 10,5 C 11,1 C 6,4 km/h (2 Bft) 97,87 %
25.10.2016 12:50 11,2 C 97 % 1022,0 hPa 0,0 l/m 4,6 km/h (1 Bft) NO 52 0 min 0,000 mm 0,9 UV-I 206 W/m 10,7 C 11,2 C 8,0 km/h (2 Bft) 100,00 %
25.10.2016 12:52 11,2 C 97 % 1022,0 hPa 0,0 l/m 5,6 km/h (1 Bft) NO 49 0 min 0,000 mm 0,9 UV-I 164 W/m 10,7 C 11,2 C 8,0 km/h (2 Bft) 98,00 %
25.10.2016 12:54 11,2 C 96 % 1021,9 hPa 0,0 l/m 6,1 km/h (2 Bft) NO 51 0 min 0,000 mm 0,9 UV-I 150 W/m 10,6 C 11,2 C 8,0 km/h (2 Bft) 100,00 %
25.10.2016 12:56 11,2 C 96 % 1021,9 hPa 0,0 l/m 5,0 km/h (1 Bft) NO 50 0 min 0,000 mm 0,9 UV-I 150 W/m 10,6 C 11,2 C 8,0 km/h (2 Bft) 100,00 %
25.10.2016 12:58 11,2 C 96 % 1021,9 hPa 0,0 l/m 3,7 km/h (1 Bft) NO 50 0 min 0,000 mm 0,8 UV-I 130 W/m 10,6 C 11,2 C 6,4 km/h (2 Bft) 97,87 %
25.10.2016 13:00 11,2 C 96 % 1021,8 hPa 0,0 l/m 4,3 km/h (1 Bft) N-NO 31 0 min 0,102 mm 0,8 UV-I 120 W/m 10,6 C 11,2 C 8,0 km/h (2 Bft) 100,00 %
25.10.2016 13:02 11,2 C 96 % 1021,8 hPa 0,0 l/m 3,7 km/h (1 Bft) N-NO 33 0 min 0,000 mm 0,8 UV-I 129 W/m 10,6 C 11,2 C 6,4 km/h (2 Bft) 97,87 %
25.10.2016 13:04 11,2 C 96 % 1021,8 hPa 0,0 l/m 2,3 km/h (1 Bft) N-NO 33 0 min 0,000 mm 0,8 UV-I 144 W/m 10,6 C 11,2 C 3,2 km/h (1 Bft) 97,87 %
25.10.2016 13:06 11,3 C 96 % 1021,9 hPa 0,0 l/m 1,8 km/h (1 Bft) N-NO 33 0 min 0,000 mm 0,8 UV-I 173 W/m 10,7 C 11,3 C 3,2 km/h (1 Bft) 100,00 %
25.10.2016 13:08 11,3 C 96 % 1021,9 hPa 0,0 l/m 0,0 km/h (0 Bft) N-NO 33 0 min 0,000 mm 0,8 UV-I 195 W/m 10,7 C 11,3 C 0,0 km/h (0 Bft) 100,00 %
25.10.2016 13:10 11,3 C 96 % 1021,9 hPa 0,0 l/m 0,2 km/h (0 Bft) N-NO 33 0 min 0,000 mm 0,7 UV-I 179 W/m 10,7 C 11,3 C 1,6 km/h (1 Bft) 100,00 %
25.10.2016 13:12 11,4 C 97 % 1021,7 hPa 0,0 l/m 1,9 km/h (1 Bft) O-NO 67 0 min 0,000 mm 0,7 UV-I 187 W/m 10,9 C 11,4 C 3,2 km/h (1 Bft) 97,92 %
25.10.2016 13:14 11,6 C 97 % 1021,6 hPa 0,0 l/m 3,2 km/h (1 Bft) O 81 0 min 0,000 mm 0,8 UV-I 267 W/m 11,1 C 11,6 C 4,8 km/h (1 Bft) 100,00 %
25.10.2016 13:16 11,7 C 97 % 1021,5 hPa 0,0 l/m 4,2 km/h (1 Bft) O 92 0 min 0,000 mm 0,8 UV-I 260 W/m 11,2 C 11,7 C 9,7 km/h (2 Bft) 100,00 %
25.10.2016 13:18 11,9 C 97 % 1021,5 hPa 0,0 l/m 4,9 km/h (1 Bft) O-SO 109 0 min 0,000 mm 0,7 UV-I 198 W/m 11,4 C 11,9 C 8,0 km/h (2 Bft) 100,00 %
25.10.2016 13:20 11,9 C 97 % 1021,4 hPa 0,0 l/m 5,3 km/h (1 Bft) O 94 0 min 0,000 mm 0,7 UV-I 166 W/m 11,4 C 11,9 C 9,7 km/h (2 Bft) 97,96 %
25.10.2016 13:22 12,0 C 97 % 1021,5 hPa 0,0 l/m 2,5 km/h (1 Bft) O 94 0 min 0,000 mm 0,7 UV-I 159 W/m 11,5 C 12,0 C 4,8 km/h (1 Bft) 100,00 %
25.10.2016 13:24 12,0 C 97 % 1021,5 hPa 0,0 l/m 1,9 km/h (1 Bft) O 94 0 min 0,000 mm 0,7 UV-I 151 W/m 11,5 C 12,0 C 4,8 km/h (1 Bft) 100,00 %
25.10.2016 13:26 12,0 C 96 % 1021,5 hPa 0,0 l/m 1,7 km/h (1 Bft) O 94 0 min 0,000 mm 0,7 UV-I 145 W/m 11,4 C 12,0 C 4,8 km/h (1 Bft) 97,87 %
25.10.2016 13:28 12,1 C 97 % 1021,5 hPa 0,0 l/m 1,2 km/h (1 Bft) O 94 0 min 0,000 mm 0,7 UV-I 144 W/m 11,6 C 12,1 C 3,2 km/h (1 Bft) 97,87 %
25.10.2016 13:30 12,1 C 96 % 1021,4 hPa 0,0 l/m 0,6 km/h (0 Bft) O 94 0 min 0,000 mm 0,7 UV-I 146 W/m 11,5 C 12,1 C 3,2 km/h (1 Bft) 100,00 %
25.10.2016 13:32 12,1 C 96 % 1021,4 hPa 0,0 l/m 0,9 km/h (0 Bft) O 94 0 min 0,000 mm 0,7 UV-I 149 W/m 11,5 C 12,1 C 3,2 km/h (1 Bft) 97,87 %
25.10.2016 13:34 12,2 C 96 % 1021,4 hPa 0,0 l/m 3,3 km/h (1 Bft) O 101 0 min 0,000 mm 0,7 UV-I 155 W/m 11,6 C 12,2 C 6,4 km/h (2 Bft) 100,00 %
25.10.2016 13:36 12,2 C 96 % 1021,4 hPa 0,0 l/m 1,9 km/h (1 Bft) O 101 0 min 0,000 mm 0,7 UV-I 164 W/m 11,6 C 12,2 C 4,8 km/h (1 Bft) 100,00 %
25.10.2016 13:38 12,3 C 96 % 1021,4 hPa 0,0 l/m 3,0 km/h (1 Bft) O 101 0 min 0,000 mm 0,7 UV-I 171 W/m 11,7 C 12,3 C 6,4 km/h (2 Bft) 100,00 %
25.10.2016 13:40 12,4 C 97 % 1021,3 hPa 0,0 l/m 4,8 km/h (1 Bft) O 101 0 min 0,000 mm 0,7 UV-I 175 W/m 11,9 C 12,4 C 6,4 km/h (2 Bft) 100,00 %
25.10.2016 13:42 12,4 C 97 % 1021,3 hPa 0,0 l/m 3,3 km/h (1 Bft) O-SO 111 0 min 0,000 mm 0,7 UV-I 185 W/m 11,9 C 12,4 C 9,7 km/h (2 Bft) 97,87 %
25.10.2016 13:44 12,5 C 96 % 1021,3 hPa 0,0 l/m 2,5 km/h (1 Bft) O 98 0 min 0,000 mm 0,8 UV-I 191 W/m 11,9 C 12,5 C 9,7 km/h (2 Bft) 97,87 %
25.10.2016 13:46 12,6 C 96 % 1021,3 hPa 0,0 l/m 1,7 km/h (1 Bft) O 98 0 min 0,000 mm 0,8 UV-I 205 W/m 12,0 C 12,6 C 4,8 km/h (1 Bft) 100,00 %
25.10.2016 13:48 12,6 C 96 % 1021,3 hPa 0,0 l/m 1,8 km/h (1 Bft) O 98 0 min 0,000 mm 0,9 UV-I 239 W/m 12,0 C 12,6 C 3,2 km/h (1 Bft) 95,74 %
25.10.2016 13:50 12,7 C 96 % 1021,3 hPa 0,0 l/m 3,0 km/h (1 Bft) S-SO 166 0 min 0,000 mm 0,9 UV-I 253 W/m 12,1 C 12,7 C 4,8 km/h (1 Bft) 97,87 %
25.10.2016 13:52 12,8 C 96 % 1021,2 hPa 0,0 l/m 3,4 km/h (1 Bft) S-SO 149 0 min 0,000 mm 0,9 UV-I 253 W/m 12,2 C 12,8 C 6,4 km/h (2 Bft) 97,87 %
25.10.2016 13:54 12,9 C 96 % 1021,2 hPa 0,0 l/m 1,0 km/h (0 Bft) S-SO 149 0 min 0,000 mm 0,9 UV-I 246 W/m 12,3 C 12,9 C 3,2 km/h (1 Bft) 97,87 %
25.10.2016 13:56 13,1 C 95 % 1021,2 hPa 0,0 l/m 0,0 km/h (0 Bft) S-SO 148 0 min 0,000 mm 0,9 UV-I 232 W/m 12,3 C 13,1 C 0,0 km/h (0 Bft) 95,74 %
25.10.2016 13:58 13,3 C 96 % 1021,2 hPa 0,0 l/m 2,2 km/h (1 Bft) O-NO 58 0 min 0,000 mm 0,9 UV-I 228 W/m 12,7 C 13,3 C 6,4 km/h (2 Bft) 97,87 %
25.10.2016 14:00 13,4 C 96 % 1021,1 hPa 0,0 l/m 0,9 km/h (0 Bft) O-NO 58 0 min 0,000 mm 0,9 UV-I 231 W/m 12,8 C 13,4 C 3,2 km/h (1 Bft) 97,92 %
25.10.2016 14:02 13,4 C 95 % 1021,2 hPa 0,0 l/m 0,0 km/h (0 Bft) NO 55 0 min 0,102 mm 1,0 UV-I 239 W/m 12,6 C 13,4 C 1,6 km/h (1 Bft) 98,00 %
25.10.2016 14:04 13,4 C 95 % 1021,2 hPa 0,0 l/m 0,8 km/h (0 Bft) N-NW 342 0 min 0,000 mm 0,9 UV-I 228 W/m 12,6 C 13,4 C 3,2 km/h (1 Bft) 97,37 %
25.10.2016 14:06 13,3 C 94 % 1021,2 hPa 0,0 l/m 0,4 km/h (0 Bft) N-NW 333 0 min 0,000 mm 0,9 UV-I 220 W/m 12,4 C 13,3 C 1,6 km/h (1 Bft) 97,87 %
25.10.2016 14:08 13,3 C 94 % 1021,3 hPa 0,0 l/m 0,8 km/h (0 Bft) N-NW 336 0 min 0,000 mm 0,9 UV-I 210 W/m 12,4 C 13,3 C 3,2 km/h (1 Bft) 95,74 %
25.10.2016 14:10 13,3 C 95 % 1021,3 hPa 0,0 l/m 0,4 km/h (0 Bft) N-NW 336 0 min 0,000 mm 0,8 UV-I 202 W/m 12,5 C 13,3 C 1,6 km/h (1 Bft) 97,87 %
25.10.2016 14:12 13,3 C 94 % 1021,2 hPa 0,0 l/m 0,2 km/h (0 Bft) N-NW 336 0 min 0,000 mm 0,8 UV-I 213 W/m 12,4 C 13,3 C 1,6 km/h (1 Bft) 97,87 %
25.10.2016 14:14 13,3 C 95 % 1021,1 hPa 0,0 l/m 0,0 km/h (0 Bft) N-NW 336 0 min 0,000 mm 0,8 UV-I 211 W/m 12,5 C 13,3 C 0,0 km/h (0 Bft) 96,00 %
25.10.2016 14:16 13,3 C 94 % 1021,1 hPa 0,0 l/m 0,8 km/h (0 Bft) N-NO 16 0 min 0,000 mm 0,8 UV-I 193 W/m 12,4 C 13,3 C 4,8 km/h (1 Bft) 97,87 %
25.10.2016 14:18 13,4 C 95 % 1021,1 hPa 0,0 l/m 0,7 km/h (0 Bft) N-NO 16 0 min 0,000 mm 0,7 UV-I 194 W/m 12,6 C 13,4 C 3,2 km/h (1 Bft) 97,87 %
25.10.2016 14:20 13,4 C 94 % 1021,1 hPa 0,0 l/m 1,8 km/h (1 Bft) N-NO 25 0 min 0,000 mm 0,7 UV-I 202 W/m 12,5 C 13,4 C 4,8 km/h (1 Bft) 97,87 %
25.10.2016 14:22 13,3 C 94 % 1021,0 hPa 0,0 l/m 1,3 km/h (1 Bft) N-NO 25 0 min 0,000 mm 0,8 UV-I 207 W/m 12,4 C 13,3 C 3,2 km/h (1 Bft) 100,00 %
25.10.2016 14:24 13,3 C 94 % 1020,9 hPa 0,0 l/m 3,0 km/h (1 Bft) NO 34 0 min 0,000 mm 0,8 UV-I 204 W/m 12,4 C 13,3 C 4,8 km/h (1 Bft) 100,00 %
25.10.2016 14:25 13,3 C 94 % 1020,9 hPa 0,0 l/m 3,6 km/h (1 Bft) NO 38 0 min 0,000 mm 0,8 UV-I 200 W/m 12,4 C 13,3 C 4,8 km/h (1 Bft) 100,00 %
25.10.2016 14:26 13,3 C 94 % 1020,9 hPa 0,0 l/m 3,6 km/h (1 Bft) NO 38 0 min 0,000 mm 0,7 UV-I 198 W/m 12,4 C 13,3 C 4,8 km/h (1 Bft) 95,65 %
25.10.2016 14:27 13,3 C 94 % 1020,9 hPa 0,0 l/m 3,1 km/h (1 Bft) NO 38 0 min 0,000 mm 0,7 UV-I 195 W/m 12,4 C 13,3 C 4,8 km/h (1 Bft) 100,00 %
25.10.2016 14:28 13,3 C 95 % 1020,9 hPa 0,0 l/m 1,7 km/h (1 Bft) NO 38 0 min 0,000 mm 0,7 UV-I 200 W/m 12,5 C 13,3 C 3,2 km/h (1 Bft) 100,00 %
25.10.2016 14:29 13,3 C 94 % 1020,9 hPa 0,0 l/m 0,0 km/h (0 Bft) NO 38 0 min 0,000 mm 0,7 UV-I 205 W/m 12,4 C 13,3 C 0,0 km/h (0 Bft) 100,00 %
25.10.2016 14:30 13,3 C 94 % 1020,9 hPa 0,0 l/m 0,5 km/h (0 Bft) NO 38 0 min 0,000 mm 0,8 UV-I 211 W/m 12,4 C 13,3 C 1,6 km/h (1 Bft) 100,00 %
25.10.2016 14:31 13,3 C 95 % 1020,9 hPa 0,0 l/m 2,0 km/h (1 Bft) NO 38 0 min 0,000 mm 0,8 UV-I 216 W/m 12,5 C 13,3 C 3,2 km/h (1 Bft) 100,00 %
25.10.2016 14:32 13,3 C 94 % 1020,9 hPa 0,0 l/m 1,7 km/h (1 Bft) NO 38 0 min 0,000 mm 0,8 UV-I 220 W/m 12,4 C 13,3 C 3,2 km/h (1 Bft) 100,00 %
25.10.2016 14:33 13,3 C 94 % 1020,9 hPa 0,0 l/m 0,6 km/h (0 Bft) NO 38 0 min 0,000 mm 0,8 UV-I 225 W/m 12,4 C 13,3 C 3,2 km/h (1 Bft) 100,00 %
25.10.2016 14:34 13,3 C 94 % 1020,8 hPa 0,0 l/m 1,3 km/h (1 Bft) NO 38 0 min 0,000 mm 0,8 UV-I 229 W/m 12,4 C 13,3 C 3,2 km/h (1 Bft) 100,00 %
25.10.2016 14:35 13,3 C 94 % 1020,8 hPa 0,0 l/m 0,3 km/h (0 Bft) NO 36 0 min 0,000 mm 0,8 UV-I 230 W/m 12,4 C 13,3 C 1,6 km/h (1 Bft) 100,00 %
25.10.2016 14:36 13,3 C 95 % 1020,8 hPa 0,0 l/m 1,5 km/h (1 Bft) NO 36 0 min 0,000 mm 0,8 UV-I 228 W/m 12,5 C 13,3 C 3,2 km/h (1 Bft) 100,00 %
25.10.2016 14:37 13,4 C 95 % 1020,7 hPa 0,0 l/m 0,3 km/h (0 Bft) NO 36 0 min 0,000 mm 0,8 UV-I 224 W/m 12,6 C 13,4 C 1,6 km/h (1 Bft) 100,00 %
25.10.2016 14:38 13,4 C 94 % 1020,7 hPa 0,0 l/m 1,5 km/h (1 Bft) NO 36 0 min 0,000 mm 0,7 UV-I 221 W/m 12,5 C 13,4 C 3,2 km/h (1 Bft) 100,00 %
25.10.2016 14:39 13,4 C 94 % 1020,7 hPa 0,0 l/m 1,8 km/h (1 Bft) NO 36 0 min 0,000 mm 0,7 UV-I 218 W/m 12,5 C 13,4 C 3,2 km/h (1 Bft) 100,00 %
25.10.2016 14:40 13,4 C 94 % 1020,7 hPa 0,0 l/m 1,2 km/h (1 Bft) NO 36 0 min 0,000 mm 0,7 UV-I 214 W/m 12,5 C 13,4 C 4,8 km/h (1 Bft) 100,00 %
25.10.2016 14:41 13,4 C 94 % 1020,7 hPa 0,0 l/m 2,7 km/h (1 Bft) NO 36 0 min 0,000 mm 0,7 UV-I 217 W/m 12,5 C 13,4 C 3,2 km/h (1 Bft) 95,65 %
25.10.2016 14:42 13,4 C 94 % 1020,6 hPa 0,0 l/m 2,1 km/h (1 Bft) NO 36 0 min 0,000 mm 0,7 UV-I 218 W/m 12,5 C 13,4 C 3,2 km/h (1 Bft) 100,00 %
25.10.2016 14:43 13,4 C 94 % 1020,6 hPa 0,0 l/m 2,4 km/h (1 Bft) NO 36 0 min 0,000 mm 0,7 UV-I 219 W/m 12,5 C 13,4 C 3,2 km/h (1 Bft) 100,00 %
25.10.2016 14:44 13,4 C 94 % 1020,6 hPa 0,0 l/m 1,5 km/h (1 Bft) NO 36 0 min 0,000 mm 0,7 UV-I 221 W/m 12,5 C 13,4 C 3,2 km/h (1 Bft) 95,83 %
25.10.2016 14:45 13,4 C 94 % 1020,7 hPa 0,0 l/m 0,4 km/h (0 Bft) NO 36 0 min 0,000 mm 0,7 UV-I 223 W/m 12,5 C 13,4 C 1,6 km/h (1 Bft) 100,00 %
25.10.2016 14:46 13,4 C 94 % 1020,7 hPa 0,0 l/m 1,7 km/h (1 Bft) NO 36 0 min 0,000 mm 0,7 UV-I 223 W/m 12,5 C 13,4 C 3,2 km/h (1 Bft) 100,00 %
25.10.2016 14:47 13,4 C 94 % 1020,7 hPa 0,0 l/m 2,0 km/h (1 Bft) NO 36 0 min 0,000 mm 0,7 UV-I 224 W/m 12,5 C 13,4 C 3,2 km/h (1 Bft) 100,00 %
25.10.2016 14:48 13,5 C 94 % 1020,8 hPa 0,0 l/m 1,4 km/h (1 Bft) NO 36 0 min 0,000 mm 0,7 UV-I 221 W/m 12,6 C 13,5 C 3,2 km/h (1 Bft) 100,00 %
25.10.2016 14:49 13,5 C 94 % 1020,8 hPa 0,0 l/m 0,1 km/h (0 Bft) NO 36 0 min 0,000 mm 0,7 UV-I 215 W/m 12,6 C 13,5 C 1,6 km/h (1 Bft) 100,00 %
25.10.2016 14:50 13,6 C 94 % 1020,9 hPa 0,0 l/m 0,0 km/h (0 Bft) NO 36 0 min 0,000 mm 0,7 UV-I 207 W/m 12,7 C 13,6 C 0,0 km/h (0 Bft) 95,83 %
25.10.2016 14:51 13,6 C 94 % 1020,9 hPa 0,0 l/m 2,7 km/h (1 Bft) NO 36 0 min 0,000 mm 0,7 UV-I 196 W/m 12,7 C 13,6 C 4,8 km/h (1 Bft) 100,00 %
25.10.2016 14:52 13,6 C 94 % 1020,8 hPa 0,0 l/m 1,1 km/h (1 Bft) NO 36 0 min 0,000 mm 0,6 UV-I 184 W/m 12,7 C 13,6 C 3,2 km/h (1 Bft) 100,00 %
25.10.2016 14:53 13,5 C 93 % 1020,8 hPa 0,0 l/m 0,2 km/h (0 Bft) NO 36 0 min 0,000 mm 0,6 UV-I 174 W/m 12,4 C 13,5 C 1,6 km/h (1 Bft) 100,00 %
25.10.2016 14:54 13,5 C 94 % 1020,8 hPa 0,0 l/m 0,1 km/h (0 Bft) NO 36 0 min 0,000 mm 0,6 UV-I 165 W/m 12,6 C 13,5 C 1,6 km/h (1 Bft) 100,00 %
25.10.2016 14:55 13,4 C 93 % 1020,9 hPa 0,0 l/m 0,0 km/h (0 Bft) NO 36 0 min 0,000 mm 0,6 UV-I 159 W/m 12,3 C 13,4 C 0,0 km/h (0 Bft) 100,00 %
25.10.2016 14:56 13,4 C 94 % 1020,9 hPa 0,0 l/m 0,0 km/h (0 Bft) NO 36 0 min 0,000 mm 0,6 UV-I 160 W/m 12,5 C 13,4 C 0,0 km/h (0 Bft) 95,83 %
25.10.2016 14:57 13,4 C 94 % 1020,8 hPa 0,0 l/m 0,0 km/h (0 Bft) NO 36 0 min 0,000 mm 0,6 UV-I 166 W/m 12,5 C 13,4 C 0,0 km/h (0 Bft) 100,00 %
25.10.2016 14:58 13,4 C 94 % 1020,8 hPa 0,0 l/m 0,0 km/h (0 Bft) NO 36 0 min 0,000 mm 0,6 UV-I 174 W/m 12,5 C 13,4 C 0,0 km/h (0 Bft) 100,00 %
25.10.2016 14:59 13,4 C 94 % 1020,8 hPa 0,0 l/m 0,0 km/h (0 Bft) NO 36 0 min 0,000 mm 0,6 UV-I 185 W/m 12,5 C 13,4 C 0,0 km/h (0 Bft) 95,65 %
25.10.2016 15:00 13,4 C 93 % 1020,8 hPa 0,0 l/m 0,0 km/h (0 Bft) NO 36 0 min 0,000 mm 0,6 UV-I 194 W/m 12,3 C 13,4 C 0,0 km/h (0 Bft) 100,00 %
25.10.2016 15:01 13,5 C 94 % 1020,8 hPa 0,0 l/m 0,0 km/h (0 Bft) NO 36 0 min 0,101 mm 0,6 UV-I 203 W/m 12,6 C 13,5 C 0,0 km/h (0 Bft) 95,83 %
25.10.2016 15:02 13,6 C 94 % 1020,8 hPa 0,0 l/m 0,0 km/h (0 Bft) NO 36 0 min 0,000 mm 0,6 UV-I 210 W/m 12,7 C 13,6 C 0,0 km/h (0 Bft) 100,00 %
25.10.2016 15:03 13,6 C 94 % 1020,8 hPa 0,0 l/m 0,0 km/h (0 Bft) NO 36 1 min 0,000 mm 0,6 UV-I 215 W/m 12,7 C 13,6 C 0,0 km/h (0 Bft) 100,00 %
25.10.2016 15:04 13,6 C 94 % 1020,8 hPa 0,0 l/m 0,8 km/h (0 Bft) NO 36 1 min 0,000 mm 0,6 UV-I 223 W/m 12,7 C 13,6 C 1,6 km/h (1 Bft) 100,00 %
25.10.2016 15:05 13,6 C 93 % 1020,8 hPa 0,0 l/m 0,1 km/h (0 Bft) NO 36 1 min 0,000 mm 0,6 UV-I 228 W/m 12,5 C 13,6 C 1,6 km/h (1 Bft) 100,00 %
25.10.2016 15:06 13,6 C 94 % 1020,8 hPa 0,0 l/m 0,8 km/h (0 Bft) NO 36 1 min 0,000 mm 0,6 UV-I 232 W/m 12,7 C 13,6 C 1,6 km/h (1 Bft) 95,65 %
25.10.2016 15:07 13,7 C 94 % 1020,8 hPa 0,0 l/m 1,3 km/h (1 Bft) NO 36 1 min 0,000 mm 0,6 UV-I 236 W/m 12,8 C 13,7 C 1,6 km/h (1 Bft) 100,00 %
25.10.2016 15:08 13,7 C 94 % 1020,8 hPa 0,0 l/m 0,7 km/h (0 Bft) NO 36 1 min 0,000 mm 0,6 UV-I 236 W/m 12,8 C 13,7 C 1,6 km/h (1 Bft) 100,00 %
25.10.2016 15:09 13,7 C 94 % 1020,8 hPa 0,0 l/m 0,0 km/h (0 Bft) NO 36 1 min 0,000 mm 0,6 UV-I 241 W/m 12,8 C 13,7 C 0,0 km/h (0 Bft) 100,00 %
25.10.2016 15:10 13,8 C 94 % 1020,8 hPa 0,0 l/m 0,1 km/h (0 Bft) NO 36 1 min 0,000 mm 0,6 UV-I 244 W/m 12,9 C 13,8 C 1,6 km/h (1 Bft) 100,00 %
25.10.2016 15:11 13,8 C 94 % 1020,8 hPa 0,0 l/m 0,1 km/h (0 Bft) NO 36 1 min 0,000 mm 0,6 UV-I 251 W/m 12,9 C 13,8 C 1,6 km/h (1 Bft) 100,00 %
25.10.2016 15:12 13,8 C 93 % 1020,8 hPa 0,0 l/m 0,8 km/h (0 Bft) NO 36 1 min 0,000 mm 0,6 UV-I 249 W/m 12,7 C 13,8 C 1,6 km/h (1 Bft) 100,00 %
25.10.2016 15:13 13,8 C 94 % 1020,9 hPa 0,0 l/m 1,1 km/h (1 Bft) NO 36 1 min 0,000 mm 0,6 UV-I 255 W/m 12,9 C 13,8 C 1,6 km/h (1 Bft) 100,00 %
25.10.2016 15:14 13,9 C 93 % 1020,9 hPa 0,0 l/m 0,5 km/h (0 Bft) NO 36 1 min 0,000 mm 0,6 UV-I 262 W/m 12,8 C 13,9 C 1,6 km/h (1 Bft) 100,00 %
25.10.2016 15:15 13,9 C 93 % 1020,9 hPa 0,0 l/m 0,4 km/h (0 Bft) NO 36 1 min 0,000 mm 0,6 UV-I 264 W/m 12,8 C 13,9 C 1,6 km/h (1 Bft) 100,00 %
25.10.2016 15:16 13,9 C 93 % 1020,9 hPa 0,0 l/m 1,4 km/h (1 Bft) NO 36 1 min 0,000 mm 0,6 UV-I 259 W/m 12,8 C 13,9 C 3,2 km/h (1 Bft) 100,00 %
25.10.2016 15:17 13,9 C 93 % 1020,9 hPa 0,0 l/m 1,4 km/h (1 Bft) NO 36 1 min 0,000 mm 0,6 UV-I 250 W/m 12,8 C 13,9 C 3,2 km/h (1 Bft) 100,00 %
25.10.2016 15:18 14,0 C 93 % 1020,9 hPa 0,0 l/m 1,2 km/h (1 Bft) NO 36 1 min 0,000 mm 0,6 UV-I 244 W/m 12,9 C 14,0 C 3,2 km/h (1 Bft) 100,00 %
25.10.2016 15:19 14,1 C 93 % 1020,9 hPa 0,0 l/m 1,9 km/h (1 Bft) NO 36 1 min 0,000 mm 0,6 UV-I 244 W/m 13,0 C 14,1 C 3,2 km/h (1 Bft) 95,65 %
25.10.2016 15:20 14,1 C 93 % 1021,0 hPa 0,0 l/m 2,2 km/h (1 Bft) NO 36 1 min 0,000 mm 0,6 UV-I 236 W/m 13,0 C 14,1 C 3,2 km/h (1 Bft) 100,00 %
25.10.2016 15:21 14,1 C 93 % 1021,0 hPa 0,0 l/m 3,0 km/h (1 Bft) NO 36 1 min 0,000 mm 0,6 UV-I 212 W/m 13,0 C 14,1 C 3,2 km/h (1 Bft) 95,65 %
25.10.2016 15:22 14,1 C 94 % 1021,0 hPa 0,0 l/m 1,6 km/h (1 Bft) NO 36 1 min 0,000 mm 0,6 UV-I 200 W/m 13,1 C 14,1 C 3,2 km/h (1 Bft) 100,00 %
25.10.2016 15:23 14,1 C 93 % 1021,0 hPa 0,0 l/m 0,3 km/h (0 Bft) NO 36 1 min 0,000 mm 0,5 UV-I 195 W/m 13,0 C 14,1 C 1,6 km/h (1 Bft) 91,30 %
25.10.2016 15:24 14,2 C 93 % 1021,0 hPa 0,0 l/m 2,3 km/h (1 Bft) NO 36 0 min 0,000 mm 0,5 UV-I 186 W/m 13,1 C 14,2 C 4,8 km/h (1 Bft) 95,83 %
25.10.2016 15:25 14,2 C 93 % 1021,0 hPa 0,0 l/m 2,3 km/h (1 Bft) NO 36 0 min 0,000 mm 0,5 UV-I 175 W/m 13,1 C 14,2 C 4,8 km/h (1 Bft) 100,00 %
25.10.2016 15:26 14,2 C 93 % 1021,0 hPa 0,0 l/m 1,5 km/h (1 Bft) NO 36 0 min 0,000 mm 0,5 UV-I 169 W/m 13,1 C 14,2 C 3,2 km/h (1 Bft) 100,00 %
25.10.2016 15:27 14,2 C 93 % 1021,0 hPa 0,0 l/m 3,1 km/h (1 Bft) NO 36 0 min 0,000 mm 0,5 UV-I 160 W/m 13,1 C 14,2 C 4,8 km/h (1 Bft) 100,00 %
25.10.2016 15:28 14,2 C 93 % 1020,9 hPa 0,0 l/m 2,5 km/h (1 Bft) NO 36 0 min 0,000 mm 0,5 UV-I 157 W/m 13,1 C 14,2 C 4,8 km/h (1 Bft) 95,83 %
25.10.2016 15:29 14,2 C 93 % 1021,0 hPa 0,0 l/m 2,5 km/h (1 Bft) NO 36 0 min 0,000 mm 0,5 UV-I 156 W/m 13,1 C 14,2 C 3,2 km/h (1 Bft) 100,00 %
25.10.2016 15:30 14,2 C 93 % 1021,0 hPa 0,0 l/m 2,3 km/h (1 Bft) NO 36 0 min 0,000 mm 0,5 UV-I 156 W/m 13,1 C 14,2 C 3,2 km/h (1 Bft) 100,00 %
25.10.2016 15:31 14,2 C 93 % 1021,0 hPa 0,0 l/m 3,0 km/h (1 Bft) NO 36 0 min 0,000 mm 0,5 UV-I 156 W/m 13,1 C 14,2 C 4,8 km/h (1 Bft) 100,00 %
25.10.2016 15:32 14,2 C 93 % 1021,0 hPa 0,0 l/m 1,9 km/h (1 Bft) NO 36 0 min 0,000 mm 0,1 UV-I 153 W/m 13,1 C 14,2 C 4,8 km/h (1 Bft) 100,00 %
25.10.2016 15:33 14,2 C 93 % 1021,0 hPa 0,0 l/m 3,0 km/h (1 Bft) NO 36 0 min 0,000 mm 0,0 UV-I 155 W/m 13,1 C 14,2 C 4,8 km/h (1 Bft) 100,00 %
25.10.2016 15:34 14,2 C 93 % 1021,0 hPa 0,0 l/m 2,7 km/h (1 Bft) NO 36 0 min 0,000 mm 0,0 UV-I 156 W/m 13,1 C 14,2 C 4,8 km/h (1 Bft) 100,00 %
25.10.2016 15:35 14,2 C 93 % 1021,0 hPa 0,0 l/m 2,7 km/h (1 Bft) NO 36 0 min 0,000 mm 0,0 UV-I 147 W/m 13,1 C 14,2 C 4,8 km/h (1 Bft) 100,00 %
25.10.2016 15:36 14,2 C 93 % 1021,0 hPa 0,0 l/m 1,0 km/h (0 Bft) NO 36 0 min 0,000 mm 0,0 UV-I 145 W/m 13,1 C 14,2 C 1,6 km/h (1 Bft) 100,00 %
25.10.2016 15:37 14,2 C 93 % 1021,0 hPa 0,0 l/m 2,0 km/h (1 Bft) NO 36 0 min 0,000 mm 0,0 UV-I 142 W/m 13,1 C 14,2 C 3,2 km/h (1 Bft) 100,00 %
25.10.2016 15:38 14,1 C 93 % 1021,0 hPa 0,0 l/m 1,5 km/h (1 Bft) NO 36 0 min 0,000 mm 0,0 UV-I 141 W/m 13,0 C 14,1 C 3,2 km/h (1 Bft) 100,00 %
25.10.2016 15:39 14,1 C 93 % 1021,0 hPa 0,0 l/m 2,1 km/h (1 Bft) NO 36 0 min 0,000 mm 0,0 UV-I 139 W/m 13,0 C 14,1 C 3,2 km/h (1 Bft) 100,00 %
25.10.2016 15:40 14,2 C 93 % 1021,0 hPa 0,0 l/m 2,5 km/h (1 Bft) NO 36 0 min 0,000 mm 0,0 UV-I 138 W/m 13,1 C 14,2 C 3,2 km/h (1 Bft) 96,15 %
25.10.2016 15:41 14,2 C 93 % 1021,0 hPa 0,0 l/m 2,3 km/h (1 Bft) NO 36 0 min 0,000 mm 0,0 UV-I 135 W/m 13,1 C 14,2 C 3,2 km/h (1 Bft) 100,00 %
25.10.2016 15:42 14,2 C 93 % 1021,1 hPa 0,0 l/m 2,7 km/h (1 Bft) NO 36 0 min 0,000 mm 0,0 UV-I 130 W/m 13,1 C 14,2 C 3,2 km/h (1 Bft) 91,30 %
25.10.2016 15:43 14,2 C 93 % 1021,0 hPa 0,0 l/m 3,2 km/h (1 Bft) NO 36 0 min 0,000 mm 0,0 UV-I 124 W/m 13,1 C 14,2 C 3,2 km/h (1 Bft) 100,00 %
25.10.2016 15:44 14,2 C 93 % 1021,1 hPa 0,0 l/m 2,2 km/h (1 Bft) NO 36 0 min 0,000 mm 0,0 UV-I 115 W/m 13,1 C 14,2 C 3,2 km/h (1 Bft) 91,30 %
25.10.2016 15:45 14,3 C 93 % 1021,1 hPa 0,0 l/m 1,7 km/h (1 Bft) NO 36 0 min 0,000 mm 0,0 UV-I 110 W/m 13,2 C 14,3 C 3,2 km/h (1 Bft) 100,00 %
25.10.2016 15:46 14,3 C 93 % 1021,1 hPa 0,0 l/m 0,6 km/h (0 Bft) NO 36 0 min 0,000 mm 0,0 UV-I 110 W/m 13,2 C 14,3 C 1,6 km/h (1 Bft) 100,00 %
25.10.2016 15:47 14,3 C 93 % 1021,1 hPa 0,0 l/m 0,0 km/h (0 Bft) NO 36 0 min 0,000 mm 0,0 UV-I 112 W/m 13,2 C 14,3 C 0,0 km/h (0 Bft) 96,30 %
25.10.2016 15:48 14,3 C 93 % 1021,1 hPa 0,0 l/m 0,0 km/h (0 Bft) NO 36 0 min 0,000 mm 0,0 UV-I 117 W/m 13,2 C 14,3 C 0,0 km/h (0 Bft) 100,00 %
25.10.2016 15:49 14,2 C 93 % 1021,1 hPa 0,0 l/m 0,0 km/h (0 Bft) NO 36 0 min 0,000 mm 0,0 UV-I 122 W/m 13,1 C 14,2 C 0,0 km/h (0 Bft) 95,65 %
25.10.2016 15:50 14,3 C 93 % 1021,0 hPa 0,0 l/m 0,5 km/h (0 Bft) NO 36 0 min 0,000 mm 0,0 UV-I 127 W/m 13,2 C 14,3 C 1,6 km/h (1 Bft) 95,83 %
25.10.2016 15:51 14,3 C 93 % 1021,0 hPa 0,0 l/m 0,1 km/h (0 Bft) NO 36 0 min 0,000 mm 0,0 UV-I 129 W/m 13,2 C 14,3 C 1,6 km/h (1 Bft) 95,65 %
25.10.2016 15:52 14,3 C 93 % 1021,0 hPa 0,0 l/m 0,1 km/h (0 Bft) NO 36 0 min 0,000 mm 0,0 UV-I 134 W/m 13,2 C 14,3 C 1,6 km/h (1 Bft) 100,00 %
25.10.2016 15:53 14,3 C 93 % 1021,0 hPa 0,0 l/m 0,8 km/h (0 Bft) NO 36 0 min 0,000 mm 0,0 UV-I 138 W/m 13,2 C 14,3 C 1,6 km/h (1 Bft) 95,65 %
25.10.2016 15:54 14,3 C 93 % 1021,0 hPa 0,0 l/m 0,8 km/h (0 Bft) NO 36 0 min 0,000 mm 0,0 UV-I 140 W/m 13,2 C 14,3 C 3,2 km/h (1 Bft) 100,00 %
25.10.2016 15:55 14,3 C 93 % 1021,1 hPa 0,0 l/m 1,5 km/h (1 Bft) NO 36 0 min 0,000 mm 0,0 UV-I 141 W/m 13,2 C 14,3 C 3,2 km/h (1 Bft) 91,30 %
25.10.2016 15:56 14,3 C 93 % 1021,1 hPa 0,0 l/m 1,2 km/h (1 Bft) NO 36 0 min 0,000 mm 0,0 UV-I 138 W/m 13,2 C 14,3 C 1,6 km/h (1 Bft) 100,00 %
25.10.2016 15:57 14,4 C 93 % 1021,1 hPa 0,0 l/m 1,0 km/h (0 Bft) NO 36 0 min 0,000 mm 0,0 UV-I 132 W/m 13,3 C 14,4 C 3,2 km/h (1 Bft) 91,30 %
25.10.2016 15:58 14,4 C 93 % 1021,1 hPa 0,0 l/m 0,1 km/h (0 Bft) NO 36 0 min 0,000 mm 0,0 UV-I 124 W/m 13,3 C 14,4 C 1,6 km/h (1 Bft) 95,83 %
25.10.2016 15:59 14,4 C 93 % 1021,1 hPa 0,0 l/m 1,3 km/h (1 Bft) NO 36 0 min 0,000 mm 0,0 UV-I 116 W/m 13,3 C 14,4 C 3,2 km/h (1 Bft) 100,00 %
25.10.2016 16:00 14,4 C 93 % 1021,1 hPa 0,0 l/m 2,2 km/h (1 Bft) NO 36 0 min 0,000 mm 0,0 UV-I 109 W/m 13,3 C 14,4 C 3,2 km/h (1 Bft) 95,83 %
25.10.2016 16:01 14,4 C 93 % 1021,1 hPa 0,0 l/m 1,6 km/h (1 Bft) NO 36 0 min 0,102 mm 0,0 UV-I 104 W/m 13,3 C 14,4 C 3,2 km/h (1 Bft) 96,15 %
25.10.2016 16:02 14,4 C 93 % 1021,1 hPa 0,0 l/m 2,1 km/h (1 Bft) NO 36 0 min 0,000 mm 0,0 UV-I 104 W/m 13,3 C 14,4 C 3,2 km/h (1 Bft) 95,83 %
25.10.2016 16:03 14,5 C 93 % 1021,2 hPa 0,0 l/m 2,2 km/h (1 Bft) NO 36 0 min 0,000 mm 0,0 UV-I 107 W/m 13,4 C 14,5 C 3,2 km/h (1 Bft) 100,00 %
25.10.2016 16:04 14,5 C 93 % 1021,2 hPa 0,0 l/m 2,5 km/h (1 Bft) NO 36 0 min 0,000 mm 0,0 UV-I 112 W/m 13,4 C 14,5 C 3,2 km/h (1 Bft) 95,83 %
25.10.2016 16:05 14,5 C 93 % 1021,2 hPa 0,0 l/m 1,9 km/h (1 Bft) NO 36 0 min 0,000 mm 0,0 UV-I 113 W/m 13,4 C 14,5 C 3,2 km/h (1 Bft) 100,00 %
25.10.2016 16:06 14,5 C 93 % 1021,2 hPa 0,0 l/m 2,1 km/h (1 Bft) NO 36 0 min 0,000 mm 0,0 UV-I 114 W/m 13,4 C 14,5 C 3,2 km/h (1 Bft) 95,83 %
25.10.2016 16:07 14,5 C 93 % 1021,2 hPa 0,0 l/m 0,9 km/h (0 Bft) NO 36 0 min 0,000 mm 0,0 UV-I 118 W/m 13,4 C 14,5 C 3,2 km/h (1 Bft) 95,83 %
25.10.2016 16:08 14,5 C 93 % 1021,2 hPa 0,0 l/m 0,3 km/h (0 Bft) NO 36 0 min 0,000 mm 0,0 UV-I 116 W/m 13,4 C 14,5 C 1,6 km/h (1 Bft) 100,00 %
25.10.2016 16:09 14,6 C 93 % 1021,2 hPa 0,0 l/m 0,0 km/h (0 Bft) NO 36 0 min 0,000 mm 0,0 UV-I 114 W/m 13,5 C 14,6 C 0,0 km/h (0 Bft) 95,83 %
25.10.2016 16:10 14,6 C 93 % 1021,2 hPa 0,0 l/m 1,6 km/h (1 Bft) NO 36 0 min 0,000 mm 0,0 UV-I 112 W/m 13,5 C 14,6 C 3,2 km/h (1 Bft) 95,65 %
25.10.2016 16:11 14,6 C 93 % 1021,3 hPa 0,0 l/m 0,1 km/h (0 Bft) NO 36 0 min 0,000 mm 0,0 UV-I 110 W/m 13,5 C 14,6 C 1,6 km/h (1 Bft) 95,83 %
25.10.2016 16:12 14,6 C 93 % 1021,2 hPa 0,0 l/m 0,5 km/h (0 Bft) NO 36 0 min 0,000 mm 0,0 UV-I 107 W/m 13,5 C 14,6 C 1,6 km/h (1 Bft) 95,65 %
25.10.2016 16:13 14,6 C 93 % 1021,3 hPa 0,0 l/m 0,1 km/h (0 Bft) NO 36 0 min 0,000 mm 0,0 UV-I 104 W/m 13,5 C 14,6 C 1,6 km/h (1 Bft) 95,83 %
25.10.2016 16:14 14,6 C 93 % 1021,3 hPa 0,0 l/m 0,1 km/h (0 Bft) NO 36 0 min 0,000 mm 0,0 UV-I 99 W/m 13,5 C 14,6 C 1,6 km/h (1 Bft) 95,65 %
25.10.2016 16:15 14,5 C 93 % 1021,3 hPa 0,0 l/m 0,7 km/h (0 Bft) NO 36 0 min 0,000 mm 0,0 UV-I 96 W/m 13,4 C 14,5 C 1,6 km/h (1 Bft) 100,00 %
25.10.2016 16:16 14,6 C 93 % 1021,3 hPa 0,0 l/m 0,9 km/h (0 Bft) NO 36 0 min 0,000 mm 0,0 UV-I 93 W/m 13,5 C 14,6 C 1,6 km/h (1 Bft) 95,65 %
25.10.2016 16:17 14,6 C 93 % 1021,3 hPa 0,0 l/m 0,9 km/h (0 Bft) NO 36 0 min 0,000 mm 0,0 UV-I 90 W/m 13,5 C 14,6 C 1,6 km/h (1 Bft) 100,00 %
25.10.2016 16:18 14,6 C 93 % 1021,3 hPa 0,0 l/m 0,4 km/h (0 Bft) NO 36 0 min 0,000 mm 0,0 UV-I 88 W/m 13,5 C 14,6 C 1,6 km/h (1 Bft) 85,71 %
25.10.2016 16:19 14,6 C 93 % 1021,3 hPa 0,0 l/m 0,0 km/h (0 Bft) NO 36 0 min 0,000 mm 0,0 UV-I 88 W/m 13,5 C 14,6 C 0,0 km/h (0 Bft) 100,00 %
25.10.2016 16:20 14,6 C 93 % 1021,3 hPa 0,0 l/m 0,1 km/h (0 Bft) NO 36 0 min 0,000 mm 0,0 UV-I 88 W/m 13,5 C 14,6 C 1,6 km/h (1 Bft) 95,65 %
25.10.2016 16:21 14,6 C 93 % 1021,4 hPa 0,0 l/m 0,0 km/h (0 Bft) NO 36 0 min 0,000 mm 0,0 UV-I 88 W/m 13,5 C 14,6 C 0,0 km/h (0 Bft) 100,00 %
25.10.2016 16:22 14,6 C 93 % 1021,4 hPa 0,0 l/m 0,0 km/h (0 Bft) NO 36 0 min 0,000 mm 0,0 UV-I 87 W/m 13,5 C 14,6 C 0,0 km/h (0 Bft) 95,65 %
25.10.2016 16:23 14,6 C 93 % 1021,4 hPa 0,0 l/m 0,0 km/h (0 Bft) NO 36 0 min 0,000 mm 0,0 UV-I 85 W/m 13,5 C 14,6 C 0,0 km/h (0 Bft) 100,00 %
25.10.2016 16:24 14,6 C 93 % 1021,4 hPa 0,0 l/m 0,0 km/h (0 Bft) NO 36 0 min 0,000 mm 0,0 UV-I 83 W/m 13,5 C 14,6 C 0,0 km/h (0 Bft) 91,67 %
25.10.2016 16:25 14,6 C 93 % 1021,4 hPa 0,0 l/m 0,4 km/h (0 Bft) NO 36 0 min 0,000 mm 0,0 UV-I 81 W/m 13,5 C 14,6 C 1,6 km/h (1 Bft) 95,65 %
25.10.2016 16:26 14,6 C 93 % 1021,4 hPa 0,0 l/m 0,0 km/h (0 Bft) NO 36 0 min 0,000 mm 0,0 UV-I 81 W/m 13,5 C 14,6 C 0,0 km/h (0 Bft) 100,00 %
25.10.2016 16:27 14,6 C 93 % 1021,4 hPa 0,0 l/m 0,0 km/h (0 Bft) NO 36 0 min 0,000 mm 0,0 UV-I 80 W/m 13,5 C 14,6 C 0,0 km/h (0 Bft) 100,00 %
25.10.2016 16:28 14,6 C 93 % 1021,4 hPa 0,0 l/m 0,0 km/h (0 Bft) NO 36 0 min 0,000 mm 0,0 UV-I 78 W/m 13,5 C 14,6 C 0,0 km/h (0 Bft) 100,00 %
25.10.2016 16:29 14,6 C 93 % 1021,4 hPa 0,0 l/m 0,1 km/h (0 Bft) NO 36 0 min 0,000 mm 0,0 UV-I 75 W/m 13,5 C 14,6 C 1,6 km/h (1 Bft) 100,00 %
25.10.2016 16:30 14,6 C 93 % 1021,4 hPa 0,0 l/m 0,0 km/h (0 Bft) NO 36 0 min 0,000 mm 0,0 UV-I 71 W/m 13,5 C 14,6 C 0,0 km/h (0 Bft) 100,00 %
25.10.2016 16:31 14,6 C 93 % 1021,4 hPa 0,0 l/m 0,0 km/h (0 Bft) NO 36 0 min 0,000 mm 0,0 UV-I 68 W/m 13,5 C 14,6 C 0,0 km/h (0 Bft) 95,65 %
25.10.2016 16:32 14,6 C 93 % 1021,4 hPa 0,0 l/m 0,6 km/h (0 Bft) NO 36 0 min 0,000 mm 0,0 UV-I 64 W/m 13,5 C 14,6 C 1,6 km/h (1 Bft) 100,00 %
25.10.2016 16:33 14,6 C 94 % 1021,4 hPa 0,0 l/m 0,5 km/h (0 Bft) NO 36 0 min 0,000 mm 0,0 UV-I 62 W/m 13,6 C 14,6 C 1,6 km/h (1 Bft) 95,65 %
25.10.2016 16:34 14,6 C 94 % 1021,4 hPa 0,0 l/m 1,1 km/h (1 Bft) NO 36 0 min 0,000 mm 0,0 UV-I 57 W/m 13,6 C 14,6 C 1,6 km/h (1 Bft) 96,15 %
25.10.2016 16:35 14,6 C 94 % 1021,4 hPa 0,0 l/m 0,0 km/h (0 Bft) NO 36 0 min 0,000 mm 0,0 UV-I 52 W/m 13,6 C 14,6 C 0,0 km/h (0 Bft) 95,65 %
25.10.2016 16:36 14,6 C 94 % 1021,4 hPa 0,0 l/m 0,3 km/h (0 Bft) NO 36 0 min 0,000 mm 0,0 UV-I 46 W/m 13,6 C 14,6 C 1,6 km/h (1 Bft) 100,00 %
25.10.2016 16:37 14,6 C 94 % 1021,4 hPa 0,0 l/m 2,2 km/h (1 Bft) NO 36 0 min 0,000 mm 0,0 UV-I 40 W/m 13,6 C 14,6 C 3,2 km/h (1 Bft) 100,00 %
25.10.2016 16:38 14,6 C 94 % 1021,4 hPa 0,0 l/m 2,6 km/h (1 Bft) NO 36 0 min 0,000 mm 0,0 UV-I 36 W/m 13,6 C 14,6 C 3,2 km/h (1 Bft) 100,00 %
25.10.2016 16:39 14,5 C 94 % 1021,4 hPa 0,0 l/m 1,5 km/h (1 Bft) NO 36 0 min 0,000 mm 0,0 UV-I 33 W/m 13,5 C 14,5 C 3,2 km/h (1 Bft) 100,00 %
25.10.2016 16:40 14,5 C 94 % 1021,4 hPa 0,0 l/m 1,2 km/h (1 Bft) NO 36 0 min 0,000 mm 0,0 UV-I 31 W/m 13,5 C 14,5 C 3,2 km/h (1 Bft) 100,00 %
25.10.2016 16:41 14,5 C 94 % 1021,4 hPa 0,0 l/m 0,7 km/h (0 Bft) NO 36 0 min 0,000 mm 0,0 UV-I 28 W/m 13,5 C 14,5 C 1,6 km/h (1 Bft) 95,65 %
25.10.2016 16:42 14,4 C 94 % 1021,4 hPa 0,0 l/m 1,5 km/h (1 Bft) NO 36 0 min 0,000 mm 0,0 UV-I 28 W/m 13,4 C 14,4 C 3,2 km/h (1 Bft) 100,00 %
25.10.2016 16:43 14,4 C 94 % 1021,4 hPa 0,0 l/m 1,4 km/h (1 Bft) NO 36 0 min 0,000 mm 0,0 UV-I 26 W/m 13,4 C 14,4 C 3,2 km/h (1 Bft) 95,65 %
25.10.2016 16:44 14,4 C 94 % 1021,4 hPa 0,0 l/m 1,8 km/h (1 Bft) NO 36 0 min 0,000 mm 0,0 UV-I 24 W/m 13,4 C 14,4 C 3,2 km/h (1 Bft) 100,00 %
25.10.2016 16:45 14,4 C 94 % 1021,4 hPa 0,0 l/m 0,1 km/h (0 Bft) NO 36 0 min 0,000 mm 0,0 UV-I 22 W/m 13,4 C 14,4 C 1,6 km/h (1 Bft) 100,00 %
25.10.2016 16:46 14,4 C 94 % 1021,4 hPa 0,0 l/m 0,0 km/h (0 Bft) NO 36 0 min 0,000 mm 0,0 UV-I 21 W/m 13,4 C 14,4 C 0,0 km/h (0 Bft) 100,00 %
25.10.2016 16:47 14,3 C 94 % 1021,3 hPa 0,0 l/m 0,0 km/h (0 Bft) NO 36 0 min 0,000 mm 0,0 UV-I 19 W/m 13,3 C 14,3 C 0,0 km/h (0 Bft) 95,65 %
25.10.2016 16:48 14,3 C 94 % 1021,3 hPa 0,0 l/m 0,0 km/h (0 Bft) NO 36 0 min 0,000 mm 0,0 UV-I 19 W/m 13,3 C 14,3 C 0,0 km/h (0 Bft) 100,00 %
25.10.2016 16:49 14,3 C 94 % 1021,3 hPa 0,0 l/m 0,0 km/h (0 Bft) NO 36 0 min 0,000 mm 0,0 UV-I 19 W/m 13,3 C 14,3 C 0,0 km/h (0 Bft) 100,00 %
25.10.2016 16:50 14,3 C 94 % 1021,3 hPa 0,0 l/m 0,0 km/h (0 Bft) NO 36 0 min 0,000 mm 0,0 UV-I 19 W/m 13,3 C 14,3 C 0,0 km/h (0 Bft) 100,00 %
25.10.2016 16:51 14,2 C 94 % 1021,3 hPa 0,0 l/m 0,0 km/h (0 Bft) NO 36 0 min 0,000 mm 0,0 UV-I 19 W/m 13,2 C 14,2 C 0,0 km/h (0 Bft) 100,00 %
25.10.2016 16:52 14,2 C 95 % 1021,3 hPa 0,0 l/m 0,0 km/h (0 Bft) NO 36 0 min 0,000 mm 0,0 UV-I 19 W/m 13,4 C 14,2 C 0,0 km/h (0 Bft) 100,00 %
25.10.2016 16:53 14,2 C 95 % 1021,3 hPa 0,0 l/m 0,3 km/h (0 Bft) NO 36 0 min 0,000 mm 0,0 UV-I 19 W/m 13,4 C 14,2 C 1,6 km/h (1 Bft) 100,00 %
25.10.2016 16:54 14,2 C 95 % 1021,3 hPa 0,0 l/m 2,9 km/h (1 Bft) NO 36 0 min 0,000 mm 0,0 UV-I 19 W/m 13,4 C 14,2 C 4,8 km/h (1 Bft) 100,00 %
25.10.2016 16:55 14,1 C 95 % 1021,3 hPa 0,0 l/m 2,3 km/h (1 Bft) NO 36 0 min 0,000 mm 0,0 UV-I 19 W/m 13,3 C 14,1 C 3,2 km/h (1 Bft) 100,00 %
25.10.2016 16:56 14,1 C 95 % 1021,3 hPa 0,0 l/m 2,1 km/h (1 Bft) NO 36 0 min 0,000 mm 0,0 UV-I 19 W/m 13,3 C 14,1 C 3,2 km/h (1 Bft) 100,00 %
25.10.2016 16:57 14,1 C 95 % 1021,3 hPa 0,0 l/m 0,3 km/h (0 Bft) NO 36 0 min 0,000 mm 0,0 UV-I 19 W/m 13,3 C 14,1 C 1,6 km/h (1 Bft) 100,00 %
25.10.2016 16:58 14,1 C 95 % 1021,2 hPa 0,0 l/m 0,1 km/h (0 Bft) NO 36 0 min 0,000 mm 0,0 UV-I 19 W/m 13,3 C 14,1 C 1,6 km/h (1 Bft) 100,00 %
25.10.2016 16:59 14,1 C 95 % 1021,3 hPa 0,0 l/m 0,4 km/h (0 Bft) NO 36 0 min 0,000 mm 0,0 UV-I 19 W/m 13,3 C 14,1 C 1,6 km/h (1 Bft) 100,00 %
25.10.2016 17:00 14,1 C 95 % 1021,3 hPa 0,0 l/m 0,9 km/h (0 Bft) NO 36 0 min 0,000 mm 0,0 UV-I 19 W/m 13,3 C 14,1 C 3,2 km/h (1 Bft) 100,00 %
25.10.2016 17:02 14,1 C 95 % 1021,3 hPa 0,0 l/m 0,3 km/h (0 Bft) N 5 0 min 0,025 mm 0,0 UV-I 19 W/m 13,3 C 14,1 C 1,6 km/h (1 Bft) 98,00 %
25.10.2016 17:03 14,1 C 95 % 1021,3 hPa 0,0 l/m 0,0 km/h (0 Bft) N 355 0 min 0,000 mm 0,0 UV-I 20 W/m 13,3 C 14,1 C 0,0 km/h (0 Bft) 100,00 %
25.10.2016 17:04 14,1 C 95 % 1021,3 hPa 0,0 l/m 0,0 km/h (0 Bft) N 355 0 min 0,000 mm 0,0 UV-I 22 W/m 13,3 C 14,1 C 0,0 km/h (0 Bft) 95,65 %
25.10.2016 17:05 14,0 C 95 % 1021,2 hPa 0,0 l/m 0,1 km/h (0 Bft) N 355 0 min 0,000 mm 0,0 UV-I 23 W/m 13,2 C 14,0 C 1,6 km/h (1 Bft) 100,00 %
25.10.2016 17:10 13,9 C 95 % 1021,3 hPa 0,0 l/m 1,6 km/h (1 Bft) NO 45 0 min 0,000 mm 0,0 UV-I 21 W/m 13,1 C 13,9 C 4,8 km/h (1 Bft) 99,12 %
25.10.2016 17:15 13,8 C 96 % 1021,3 hPa 0,0 l/m 0,0 km/h (0 Bft) NO 45 0 min 0,000 mm 0,0 UV-I 15 W/m 13,2 C 13,8 C 3,2 km/h (1 Bft) 100,00 %
25.10.2016 17:20 13,8 C 96 % 1021,3 hPa 0,0 l/m 0,0 km/h (0 Bft) N 0 0 min 0,000 mm 0,0 UV-I 14 W/m 13,2 C 13,8 C 0,0 km/h (0 Bft) 100,00 %
25.10.2016 17:25 13,8 C 96 % 1021,3 hPa 0,0 l/m 0,0 km/h (0 Bft) N 0 0 min 0,000 mm 0,0 UV-I 12 W/m 13,2 C 13,8 C 0,0 km/h (0 Bft) 100,00 %
25.10.2016 17:30 13,8 C 96 % 1021,2 hPa 0,0 l/m 0,0 km/h (0 Bft) NO 45 0 min 0,000 mm 0,0 UV-I 8 W/m 13,2 C 13,8 C 1,6 km/h (1 Bft) 99,12 %
25.10.2016 17:35 13,8 C 96 % 1021,2 hPa 0,0 l/m 0,0 km/h (0 Bft) NO 45 0 min 0,000 mm 0,0 UV-I 7 W/m 13,2 C 13,8 C 1,6 km/h (1 Bft) 100,00 %
25.10.2016 17:40 13,6 C 96 % 1021,3 hPa 0,0 l/m 0,0 km/h (0 Bft) NO 45 0 min 0,000 mm 0,0 UV-I 7 W/m 13,0 C 13,6 C 3,2 km/h (1 Bft) 100,00 %
25.10.2016 17:45 13,6 C 97 % 1021,3 hPa 0,0 l/m 0,0 km/h (0 Bft) NO 45 0 min 0,000 mm 0,0 UV-I 5 W/m 13,1 C 13,6 C 1,6 km/h (1 Bft) 100,00 %
25.10.2016 17:50 13,6 C 97 % 1021,3 hPa 0,2 l/m 1,6 km/h (1 Bft) NO 45 0 min 0,000 mm 0,0 UV-I 3 W/m 13,1 C 13,6 C 3,2 km/h (1 Bft) 99,12 %
25.10.2016 17:55 13,5 C 97 % 1021,2 hPa 0,0 l/m 0,0 km/h (0 Bft) NO 45 0 min 0,000 mm 0,0 UV-I 0 W/m 13,0 C 13,5 C 1,6 km/h (1 Bft) 99,12 %
25.10.2016 18:00 13,4 C 97 % 1021,3 hPa 0,0 l/m 0,0 km/h (0 Bft) NO 45 0 min 0,000 mm 0,0 UV-I 0 W/m 12,9 C 13,4 C 1,6 km/h (1 Bft) 100,00 %
25.10.2016 18:04 13,5 C 97 % 1021,3 hPa 0,2 l/m 0,1 km/h (0 Bft) NO 39 0 min 0,000 mm 0,0 UV-I 0 W/m 13,0 C 13,5 C 1,6 km/h (1 Bft) 100,00 %
25.10.2016 18:05 13,5 C 97 % 1021,3 hPa 0,0 l/m 0,1 km/h (0 Bft) NO 39 0 min 0,000 mm 0,0 UV-I 0 W/m 13,0 C 13,5 C 1,6 km/h (1 Bft) 100,00 %
25.10.2016 18:06 13,5 C 97 % 1021,3 hPa 0,0 l/m 0,1 km/h (0 Bft) NO 39 0 min 0,000 mm 0,0 UV-I 0 W/m 13,0 C 13,5 C 1,6 km/h (1 Bft) 95,65 %
25.10.2016 18:08 13,5 C 97 % 1021,3 hPa 0,0 l/m 0,0 km/h (0 Bft) NO 39 0 min 0,000 mm 0,0 UV-I 0 W/m 13,0 C 13,5 C 1,6 km/h (1 Bft) 97,87 %
25.10.2016 18:09 13,5 C 97 % 1021,3 hPa 0,0 l/m 0,0 km/h (0 Bft) NO 39 0 min 0,000 mm 0,0 UV-I 0 W/m 13,0 C 13,5 C 0,0 km/h (0 Bft) 91,67 %
25.10.2016 18:10 13,5 C 97 % 1021,3 hPa 0,0 l/m 0,0 km/h (0 Bft) NO 39 0 min 0,000 mm 0,0 UV-I 0 W/m 13,0 C 13,5 C 0,0 km/h (0 Bft) 100,00 %
25.10.2016 18:11 13,4 C 97 % 1021,4 hPa 0,0 l/m 0,0 km/h (0 Bft) NO 39 0 min 0,000 mm 0,0 UV-I 0 W/m 12,9 C 13,4 C 0,0 km/h (0 Bft) 97,62 %
25.10.2016 18:12 13,4 C 97 % 1021,4 hPa 0,0 l/m 0,1 km/h (0 Bft) NO 39 0 min 0,000 mm 0,0 UV-I 0 W/m 12,9 C 13,4 C 1,6 km/h (1 Bft) 100,00 %
25.10.2016 18:13 13,4 C 97 % 1021,4 hPa 0,0 l/m 0,0 km/h (0 Bft) NO 39 0 min 0,000 mm 0,0 UV-I 0 W/m 12,9 C 13,4 C 0,0 km/h (0 Bft) 95,83 %
25.10.2016 18:14 13,4 C 97 % 1021,4 hPa 0,0 l/m 0,0 km/h (0 Bft) NO 39 0 min 0,000 mm 0,0 UV-I 0 W/m 12,9 C 13,4 C 0,0 km/h (0 Bft) 95,65 %
25.10.2016 18:15 13,4 C 97 % 1021,4 hPa 0,0 l/m 0,0 km/h (0 Bft) NO 39 0 min 0,000 mm 0,0 UV-I 0 W/m 12,9 C 13,4 C 0,0 km/h (0 Bft) 100,00 %
25.10.2016 18:16 13,4 C 97 % 1021,4 hPa 0,0 l/m 0,0 km/h (0 Bft) NO 39 0 min 0,000 mm 0,0 UV-I 0 W/m 12,9 C 13,4 C 0,0 km/h (0 Bft) 91,30 %
25.10.2016 18:17 13,4 C 97 % 1021,4 hPa 0,0 l/m 0,0 km/h (0 Bft) NO 39 0 min 0,000 mm 0,0 UV-I 0 W/m 12,9 C 13,4 C 0,0 km/h (0 Bft) 100,00 %
25.10.2016 18:18 13,4 C 97 % 1021,4 hPa 0,0 l/m 0,0 km/h (0 Bft) NO 39 0 min 0,000 mm 0,0 UV-I 0 W/m 12,9 C 13,4 C 0,0 km/h (0 Bft) 95,65 %
25.10.2016 18:19 13,4 C 97 % 1021,4 hPa 0,0 l/m 0,0 km/h (0 Bft) NO 39 0 min 0,000 mm 0,0 UV-I 0 W/m 12,9 C 13,4 C 0,0 km/h (0 Bft) 100,00 %
25.10.2016 18:20 13,3 C 97 % 1021,4 hPa 0,0 l/m 0,7 km/h (0 Bft) NO 39 0 min 0,000 mm 0,0 UV-I 0 W/m 12,8 C 13,3 C 1,6 km/h (1 Bft) 95,65 %
25.10.2016 18:21 13,3 C 97 % 1021,4 hPa 0,0 l/m 1,3 km/h (1 Bft) NO 39 0 min 0,000 mm 0,0 UV-I 0 W/m 12,8 C 13,3 C 3,2 km/h (1 Bft) 100,00 %
25.10.2016 18:22 13,3 C 97 % 1021,5 hPa 0,0 l/m 1,2 km/h (1 Bft) NO 39 0 min 0,000 mm 0,0 UV-I 0 W/m 12,8 C 13,3 C 1,6 km/h (1 Bft) 95,65 %
25.10.2016 18:23 13,3 C 97 % 1021,4 hPa 0,0 l/m 0,0 km/h (0 Bft) NO 39 0 min 0,000 mm 0,0 UV-I 0 W/m 12,8 C 13,3 C 0,0 km/h (0 Bft) 96,30 %
25.10.2016 18:24 13,3 C 97 % 1021,5 hPa 0,0 l/m 0,0 km/h (0 Bft) NO 39 0 min 0,000 mm 0,0 UV-I 0 W/m 12,8 C 13,3 C 0,0 km/h (0 Bft) 96,15 %
25.10.2016 18:25 13,3 C 97 % 1021,5 hPa 0,0 l/m 0,0 km/h (0 Bft) NO 39 0 min 0,000 mm 0,0 UV-I 0 W/m 12,8 C 13,3 C 0,0 km/h (0 Bft) 95,83 %
25.10.2016 18:26 13,3 C 97 % 1021,5 hPa 0,0 l/m 0,0 km/h (0 Bft) NO 39 0 min 0,000 mm 0,0 UV-I 0 W/m 12,8 C 13,3 C 0,0 km/h (0 Bft) 100,00 %
25.10.2016 18:27 13,3 C 97 % 1021,5 hPa 0,0 l/m 0,0 km/h (0 Bft) NO 39 0 min 0,000 mm 0,0 UV-I 0 W/m 12,8 C 13,3 C 0,0 km/h (0 Bft) 95,83 %
25.10.2016 18:28 13,3 C 97 % 1021,5 hPa 0,0 l/m 0,0 km/h (0 Bft) NO 39 0 min 0,000 mm 0,0 UV-I 0 W/m 12,8 C 13,3 C 0,0 km/h (0 Bft) 100,00 %
25.10.2016 18:29 13,3 C 97 % 1021,6 hPa 0,0 l/m 0,0 km/h (0 Bft) NO 39 0 min 0,000 mm 0,0 UV-I 0 W/m 12,8 C 13,3 C 0,0 km/h (0 Bft) 96,43 %
25.10.2016 18:30 13,2 C 97 % 1021,6 hPa 0,0 l/m 0,0 km/h (0 Bft) NO 39 0 min 0,000 mm 0,0 UV-I 0 W/m 12,7 C 13,2 C 0,0 km/h (0 Bft) 100,00 %
25.10.2016 18:31 13,2 C 97 % 1021,6 hPa 0,0 l/m 0,0 km/h (0 Bft) NO 39 0 min 0,000 mm 0,0 UV-I 0 W/m 12,7 C 13,2 C 0,0 km/h (0 Bft) 95,65 %
25.10.2016 18:32 13,2 C 97 % 1021,6 hPa 0,0 l/m 0,0 km/h (0 Bft) NO 39 0 min 0,000 mm 0,0 UV-I 0 W/m 12,7 C 13,2 C 0,0 km/h (0 Bft) 100,00 %
25.10.2016 18:33 13,2 C 97 % 1021,6 hPa 0,0 l/m 0,0 km/h (0 Bft) NO 39 0 min 0,000 mm 0,0 UV-I 0 W/m 12,7 C 13,2 C 0,0 km/h (0 Bft) 100,00 %
25.10.2016 18:34 13,2 C 97 % 1021,6 hPa 0,0 l/m 0,0 km/h (0 Bft) NO 39 0 min 0,000 mm 0,0 UV-I 0 W/m 12,7 C 13,2 C 0,0 km/h (0 Bft) 100,00 %
25.10.2016 18:35 13,2 C 97 % 1021,7 hPa 0,0 l/m 0,0 km/h (0 Bft) NO 39 0 min 0,000 mm 0,0 UV-I 0 W/m 12,7 C 13,2 C 0,0 km/h (0 Bft) 100,00 %
25.10.2016 18:36 13,2 C 97 % 1021,7 hPa 0,0 l/m 0,0 km/h (0 Bft) NO 39 0 min 0,000 mm 0,0 UV-I 0 W/m 12,7 C 13,2 C 0,0 km/h (0 Bft) 91,67 %
25.10.2016 18:37 13,1 C 97 % 1021,7 hPa 0,0 l/m 0,0 km/h (0 Bft) NO 39 0 min 0,000 mm 0,0 UV-I 0 W/m 12,6 C 13,1 C 0,0 km/h (0 Bft) 100,00 %
25.10.2016 18:38 13,1 C 97 % 1021,7 hPa 0,0 l/m 0,0 km/h (0 Bft) NO 39 0 min 0,000 mm 0,0 UV-I 0 W/m 12,6 C 13,1 C 0,0 km/h (0 Bft) 100,00 %
25.10.2016 18:39 13,1 C 97 % 1021,7 hPa 0,0 l/m 0,0 km/h (0 Bft) NO 39 0 min 0,000 mm 0,0 UV-I 0 W/m 12,6 C 13,1 C 0,0 km/h (0 Bft) 100,00 %
25.10.2016 18:40 13,1 C 97 % 1021,7 hPa 0,0 l/m 0,0 km/h (0 Bft) NO 39 0 min 0,000 mm 0,0 UV-I 0 W/m 12,6 C 13,1 C 0,0 km/h (0 Bft) 93,33 %
25.10.2016 18:41 13,1 C 97 % 1021,7 hPa 0,0 l/m 0,0 km/h (0 Bft) NO 39 0 min 0,000 mm 0,0 UV-I 0 W/m 12,6 C 13,1 C 0,0 km/h (0 Bft) 100,00 %
25.10.2016 18:42 13,1 C 97 % 1021,7 hPa 0,0 l/m 0,0 km/h (0 Bft) NO 39 0 min 0,000 mm 0,0 UV-I 0 W/m 12,6 C 13,1 C 0,0 km/h (0 Bft) 100,00 %
25.10.2016 18:43 13,1 C 97 % 1021,7 hPa 0,0 l/m 0,0 km/h (0 Bft) NO 39 0 min 0,000 mm 0,0 UV-I 0 W/m 12,6 C 13,1 C 0,0 km/h (0 Bft) 100,00 %
25.10.2016 18:44 13,1 C 97 % 1021,7 hPa 0,0 l/m 0,0 km/h (0 Bft) NO 39 0 min 0,000 mm 0,0 UV-I 0 W/m 12,6 C 13,1 C 0,0 km/h (0 Bft) 95,83 %
25.10.2016 18:45 13,1 C 97 % 1021,7 hPa 0,0 l/m 0,0 km/h (0 Bft) NO 39 0 min 0,000 mm 0,0 UV-I 0 W/m 12,6 C 13,1 C 0,0 km/h (0 Bft) 100,00 %
25.10.2016 18:46 13,1 C 97 % 1021,7 hPa 0,0 l/m 0,0 km/h (0 Bft) NO 39 0 min 0,000 mm 0,0 UV-I 0 W/m 12,6 C 13,1 C 0,0 km/h (0 Bft) 100,00 %
25.10.2016 18:47 13,1 C 98 % 1021,7 hPa 0,0 l/m 0,0 km/h (0 Bft) NO 39 0 min 0,000 mm 0,0 UV-I 0 W/m 12,8 C 13,1 C 0,0 km/h (0 Bft) 100,00 %
25.10.2016 18:48 13,1 C 98 % 1021,7 hPa 0,0 l/m 0,0 km/h (0 Bft) NO 39 0 min 0,000 mm 0,0 UV-I 0 W/m 12,8 C 13,1 C 0,0 km/h (0 Bft) 100,00 %
25.10.2016 18:49 13,1 C 98 % 1021,7 hPa 0,0 l/m 0,0 km/h (0 Bft) NO 39 0 min 0,000 mm 0,0 UV-I 0 W/m 12,8 C 13,1 C 0,0 km/h (0 Bft) 100,00 %
25.10.2016 18:50 13,1 C 98 % 1021,7 hPa 0,0 l/m 1,9 km/h (1 Bft) NO 39 0 min 0,000 mm 0,0 UV-I 0 W/m 12,8 C 13,1 C 4,8 km/h (1 Bft) 100,00 %
25.10.2016 18:51 13,1 C 98 % 1021,8 hPa 0,0 l/m 2,6 km/h (1 Bft) NO 40 0 min 0,000 mm 0,0 UV-I 0 W/m 12,8 C 13,1 C 4,8 km/h (1 Bft) 100,00 %
25.10.2016 18:52 13,1 C 98 % 1021,7 hPa 0,0 l/m 2,6 km/h (1 Bft) O-NO 58 0 min 0,000 mm 0,0 UV-I 0 W/m 12,8 C 13,1 C 3,2 km/h (1 Bft) 100,00 %
25.10.2016 18:53 13,1 C 98 % 1021,7 hPa 0,0 l/m 2,4 km/h (1 Bft) O-NO 58 0 min 0,000 mm 0,0 UV-I 0 W/m 12,8 C 13,1 C 3,2 km/h (1 Bft) 100,00 %
25.10.2016 18:54 13,1 C 98 % 1021,8 hPa 0,0 l/m 2,3 km/h (1 Bft) O-NO 58 0 min 0,000 mm 0,0 UV-I 0 W/m 12,8 C 13,1 C 3,2 km/h (1 Bft) 100,00 %
25.10.2016 18:55 13,1 C 98 % 1021,8 hPa 0,0 l/m 2,4 km/h (1 Bft) O 80 0 min 0,000 mm 0,0 UV-I 0 W/m 12,8 C 13,1 C 3,2 km/h (1 Bft) 100,00 %
25.10.2016 18:56 13,1 C 98 % 1021,8 hPa 0,0 l/m 2,0 km/h (1 Bft) O 80 0 min 0,000 mm 0,0 UV-I 0 W/m 12,8 C 13,1 C 3,2 km/h (1 Bft) 100,00 %
25.10.2016 18:57 13,1 C 98 % 1021,7 hPa 0,2 l/m 2,3 km/h (1 Bft) O 92 0 min 0,000 mm 0,0 UV-I 0 W/m 12,8 C 13,1 C 3,2 km/h (1 Bft) 100,00 %
25.10.2016 18:58 13,1 C 98 % 1021,7 hPa 0,0 l/m 1,6 km/h (1 Bft) O 100 0 min 0,000 mm 0,0 UV-I 0 W/m 12,8 C 13,1 C 3,2 km/h (1 Bft) 95,65 %
25.10.2016 18:59 13,1 C 98 % 1021,8 hPa 0,0 l/m 1,4 km/h (1 Bft) O 100 0 min 0,000 mm 0,0 UV-I 0 W/m 12,8 C 13,1 C 3,2 km/h (1 Bft) 100,00 %
25.10.2016 19:00 13,1 C 98 % 1021,7 hPa 0,0 l/m 0,8 km/h (0 Bft) O 100 0 min 0,000 mm 0,0 UV-I 0 W/m 12,8 C 13,1 C 1,6 km/h (1 Bft) 100,00 %
25.10.2016 19:02 13,1 C 98 % 1021,8 hPa 0,0 l/m 1,6 km/h (1 Bft) O 100 0 min 0,000 mm 0,0 UV-I 0 W/m 12,8 C 13,1 C 3,2 km/h (1 Bft) 100,00 %
25.10.2016 19:03 13,1 C 98 % 1021,8 hPa 0,0 l/m 3,3 km/h (1 Bft) O-SO 105 0 min 0,000 mm 0,0 UV-I 0 W/m 12,8 C 13,1 C 4,8 km/h (1 Bft) 100,00 %
25.10.2016 19:04 13,1 C 98 % 1021,8 hPa 0,0 l/m 2,9 km/h (1 Bft) O-SO 105 0 min 0,000 mm 0,0 UV-I 0 W/m 12,8 C 13,1 C 3,2 km/h (1 Bft) 100,00 %
25.10.2016 19:05 13,1 C 98 % 1021,8 hPa 0,0 l/m 3,4 km/h (1 Bft) S 182 0 min 0,000 mm 0,0 UV-I 0 W/m 12,8 C 13,1 C 6,4 km/h (2 Bft) 100,00 %
25.10.2016 19:06 13,1 C 98 % 1021,8 hPa 0,0 l/m 3,0 km/h (1 Bft) S 182 0 min 0,000 mm 0,0 UV-I 0 W/m 12,8 C 13,1 C 4,8 km/h (1 Bft) 100,00 %
25.10.2016 19:07 13,1 C 98 % 1021,8 hPa 0,0 l/m 1,3 km/h (1 Bft) S 182 0 min 0,000 mm 0,0 UV-I 0 W/m 12,8 C 13,1 C 3,2 km/h (1 Bft) 100,00 %
25.10.2016 19:08 13,1 C 98 % 1021,8 hPa 0,0 l/m 1,9 km/h (1 Bft) S 182 0 min 0,000 mm 0,0 UV-I 0 W/m 12,8 C 13,1 C 3,2 km/h (1 Bft) 100,00 %
25.10.2016 19:09 13,1 C 98 % 1021,8 hPa 0,0 l/m 1,3 km/h (1 Bft) S 182 0 min 0,000 mm 0,0 UV-I 0 W/m 12,8 C 13,1 C 3,2 km/h (1 Bft) 100,00 %
25.10.2016 19:10 13,1 C 98 % 1021,9 hPa 0,0 l/m 1,6 km/h (1 Bft) S 182 0 min 0,000 mm 0,0 UV-I 0 W/m 12,8 C 13,1 C 3,2 km/h (1 Bft) 100,00 %
25.10.2016 19:11 13,1 C 98 % 1021,9 hPa 0,0 l/m 2,0 km/h (1 Bft) S 182 0 min 0,000 mm 0,0 UV-I 0 W/m 12,8 C 13,1 C 3,2 km/h (1 Bft) 100,00 %
25.10.2016 19:12 13,1 C 97 % 1021,9 hPa 0,0 l/m 2,9 km/h (1 Bft) S 182 0 min 0,000 mm 0,0 UV-I 0 W/m 12,6 C 13,1 C 3,2 km/h (1 Bft) 100,00 %
25.10.2016 19:13 13,1 C 97 % 1021,9 hPa 0,0 l/m 2,4 km/h (1 Bft) S 182 0 min 0,000 mm 0,0 UV-I 0 W/m 12,6 C 13,1 C 3,2 km/h (1 Bft) 100,00 %
25.10.2016 19:14 13,1 C 98 % 1021,9 hPa 0,0 l/m 2,5 km/h (1 Bft) S 182 0 min 0,000 mm 0,0 UV-I 0 W/m 12,8 C 13,1 C 3,2 km/h (1 Bft) 100,00 %
25.10.2016 19:15 13,1 C 98 % 1021,9 hPa 0,0 l/m 3,0 km/h (1 Bft) S 182 0 min 0,000 mm 0,0 UV-I 0 W/m 12,8 C 13,1 C 4,8 km/h (1 Bft) 100,00 %
25.10.2016 19:16 13,1 C 98 % 1022,0 hPa 0,0 l/m 3,6 km/h (1 Bft) S 182 0 min 0,000 mm 0,0 UV-I 0 W/m 12,8 C 13,1 C 4,8 km/h (1 Bft) 100,00 %
25.10.2016 19:17 13,0 C 98 % 1021,9 hPa 0,0 l/m 2,8 km/h (1 Bft) S 182 0 min 0,000 mm 0,0 UV-I 0 W/m 12,7 C 13,0 C 4,8 km/h (1 Bft) 100,00 %
25.10.2016 19:18 13,0 C 98 % 1021,9 hPa 0,0 l/m 3,5 km/h (1 Bft) S 182 0 min 0,000 mm 0,0 UV-I 0 W/m 12,7 C 13,0 C 4,8 km/h (1 Bft) 100,00 %
25.10.2016 19:19 12,9 C 98 % 1022,0 hPa 0,0 l/m 3,4 km/h (1 Bft) S 182 0 min 0,000 mm 0,0 UV-I 0 W/m 12,6 C 12,9 C 4,8 km/h (1 Bft) 100,00 %
25.10.2016 19:20 12,9 C 98 % 1022,0 hPa 0,0 l/m 1,5 km/h (1 Bft) S 182 0 min 0,000 mm 0,0 UV-I 0 W/m 12,6 C 12,9 C 3,2 km/h (1 Bft) 100,00 %
25.10.2016 19:21 12,9 C 98 % 1022,0 hPa 0,0 l/m 1,4 km/h (1 Bft) S 182 0 min 0,000 mm 0,0 UV-I 0 W/m 12,6 C 12,9 C 3,2 km/h (1 Bft) 100,00 %
25.10.2016 19:22 12,9 C 98 % 1022,0 hPa 0,0 l/m 0,6 km/h (0 Bft) S 182 0 min 0,000 mm 0,0 UV-I 0 W/m 12,6 C 12,9 C 3,2 km/h (1 Bft) 100,00 %
25.10.2016 19:23 12,9 C 98 % 1022,0 hPa 0,0 l/m 1,2 km/h (1 Bft) S 182 0 min 0,000 mm 0,0 UV-I 0 W/m 12,6 C 12,9 C 3,2 km/h (1 Bft) 96,15 %
25.10.2016 19:24 12,9 C 98 % 1022,0 hPa 0,0 l/m 2,0 km/h (1 Bft) S 182 0 min 0,000 mm 0,0 UV-I 0 W/m 12,6 C 12,9 C 4,8 km/h (1 Bft) 100,00 %
25.10.2016 19:25 12,9 C 98 % 1022,0 hPa 0,0 l/m 2,5 km/h (1 Bft) S 182 0 min 0,000 mm 0,0 UV-I 0 W/m 12,6 C 12,9 C 3,2 km/h (1 Bft) 100,00 %
25.10.2016 19:26 12,9 C 98 % 1022,0 hPa 0,0 l/m 2,5 km/h (1 Bft) S 182 0 min 0,000 mm 0,0 UV-I 0 W/m 12,6 C 12,9 C 3,2 km/h (1 Bft) 100,00 %
25.10.2016 19:27 12,9 C 98 % 1022,1 hPa 0,0 l/m 2,8 km/h (1 Bft) S 182 0 min 0,000 mm 0,0 UV-I 0 W/m 12,6 C 12,9 C 3,2 km/h (1 Bft) 100,00 %
25.10.2016 19:28 12,9 C 98 % 1022,1 hPa 0,0 l/m 2,7 km/h (1 Bft) S 182 0 min 0,000 mm 0,0 UV-I 0 W/m 12,6 C 12,9 C 3,2 km/h (1 Bft) 100,00 %
25.10.2016 19:29 12,8 C 98 % 1022,2 hPa 0,2 l/m 3,4 km/h (1 Bft) S 182 0 min 0,000 mm 0,0 UV-I 0 W/m 12,5 C 12,8 C 4,8 km/h (1 Bft) 100,00 %
25.10.2016 19:30 12,9 C 98 % 1022,2 hPa 0,0 l/m 4,4 km/h (1 Bft) S 183 0 min 0,000 mm 0,0 UV-I 0 W/m 12,6 C 12,9 C 6,4 km/h (2 Bft) 100,00 %
25.10.2016 19:31 12,9 C 98 % 1022,2 hPa 0,0 l/m 2,9 km/h (1 Bft) S 183 0 min 0,000 mm 0,0 UV-I 0 W/m 12,6 C 12,9 C 4,8 km/h (1 Bft) 100,00 %
25.10.2016 19:32 12,9 C 98 % 1022,2 hPa 0,0 l/m 3,5 km/h (1 Bft) S 183 0 min 0,000 mm 0,0 UV-I 0 W/m 12,6 C 12,9 C 4,8 km/h (1 Bft) 100,00 %
25.10.2016 19:33 12,9 C 98 % 1022,2 hPa 0,2 l/m 3,2 km/h (1 Bft) S 183 0 min 0,000 mm 0,0 UV-I 0 W/m 12,6 C 12,9 C 4,8 km/h (1 Bft) 100,00 %
25.10.2016 19:34 12,9 C 98 % 1022,2 hPa 0,0 l/m 2,9 km/h (1 Bft) S 186 0 min 0,000 mm 0,0 UV-I 0 W/m 12,6 C 12,9 C 4,8 km/h (1 Bft) 100,00 %
25.10.2016 19:35 12,9 C 98 % 1022,2 hPa 0,0 l/m 2,2 km/h (1 Bft) S 186 0 min 0,000 mm 0,0 UV-I 0 W/m 12,6 C 12,9 C 4,8 km/h (1 Bft) 96,30 %
25.10.2016 19:36 12,9 C 98 % 1022,2 hPa 0,2 l/m 1,3 km/h (1 Bft) S 186 0 min 0,000 mm 0,0 UV-I 0 W/m 12,6 C 12,9 C 3,2 km/h (1 Bft) 100,00 %
25.10.2016 19:37 12,9 C 98 % 1022,2 hPa 0,0 l/m 0,8 km/h (0 Bft) S 186 0 min 0,000 mm 0,0 UV-I 0 W/m 12,6 C 12,9 C 1,6 km/h (1 Bft) 100,00 %
25.10.2016 19:38 12,9 C 98 % 1022,2 hPa 0,0 l/m 1,5 km/h (1 Bft) S 186 0 min 0,000 mm 0,0 UV-I 0 W/m 12,6 C 12,9 C 3,2 km/h (1 Bft) 100,00 %
25.10.2016 19:39 12,9 C 98 % 1022,2 hPa 0,0 l/m 1,3 km/h (1 Bft) S 186 0 min 0,000 mm 0,0 UV-I 0 W/m 12,6 C 12,9 C 3,2 km/h (1 Bft) 100,00 %
25.10.2016 19:40 12,9 C 98 % 1022,3 hPa 0,0 l/m 2,2 km/h (1 Bft) S 186 0 min 0,000 mm 0,0 UV-I 0 W/m 12,6 C 12,9 C 3,2 km/h (1 Bft) 100,00 %
25.10.2016 19:41 12,9 C 98 % 1022,3 hPa 0,0 l/m 2,7 km/h (1 Bft) S 186 0 min 0,000 mm 0,0 UV-I 0 W/m 12,6 C 12,9 C 3,2 km/h (1 Bft) 100,00 %
25.10.2016 19:42 13,0 C 98 % 1022,3 hPa 0,2 l/m 2,1 km/h (1 Bft) S 186 0 min 0,000 mm 0,0 UV-I 0 W/m 12,7 C 13,0 C 3,2 km/h (1 Bft) 100,00 %
25.10.2016 19:43 13,0 C 98 % 1022,3 hPa 0,0 l/m 2,1 km/h (1 Bft) S 186 0 min 0,000 mm 0,0 UV-I 0 W/m 12,7 C 13,0 C 3,2 km/h (1 Bft) 100,00 %
25.10.2016 19:44 13,0 C 98 % 1022,3 hPa 0,0 l/m 2,3 km/h (1 Bft) S 186 0 min 0,000 mm 0,0 UV-I 0 W/m 12,7 C 13,0 C 3,2 km/h (1 Bft) 100,00 %
25.10.2016 19:45 13,0 C 98 % 1022,3 hPa 0,0 l/m 2,1 km/h (1 Bft) S 186 0 min 0,000 mm 0,0 UV-I 0 W/m 12,7 C 13,0 C 3,2 km/h (1 Bft) 100,00 %
25.10.2016 19:47 13,0 C 98 % 1022,3 hPa 0,2 l/m 0,7 km/h (0 Bft) S 186 0 min 0,000 mm 0,0 UV-I 0 W/m 12,7 C 13,0 C 1,6 km/h (1 Bft) 98,31 %
25.10.2016 19:48 13,0 C 98 % 1022,3 hPa 0,0 l/m 0,0 km/h (0 Bft) S 186 0 min 0,000 mm 0,0 UV-I 0 W/m 12,7 C 13,0 C 0,0 km/h (0 Bft) 100,00 %
25.10.2016 19:49 13,0 C 98 % 1022,3 hPa 0,0 l/m 0,0 km/h (0 Bft) S 186 0 min 0,000 mm 0,0 UV-I 0 W/m 12,7 C 13,0 C 0,0 km/h (0 Bft) 100,00 %
25.10.2016 19:50 13,0 C 98 % 1022,3 hPa 0,0 l/m 0,0 km/h (0 Bft) S 186 0 min 0,000 mm 0,0 UV-I 0 W/m 12,7 C 13,0 C 0,0 km/h (0 Bft) 100,00 %
25.10.2016 19:51 13,0 C 98 % 1022,3 hPa 0,0 l/m 0,0 km/h (0 Bft) S 186 0 min 0,000 mm 0,0 UV-I 0 W/m 12,7 C 13,0 C 0,0 km/h (0 Bft) 100,00 %
25.10.2016 19:52 12,9 C 98 % 1022,3 hPa 0,2 l/m 0,0 km/h (0 Bft) S 186 0 min 0,000 mm 0,0 UV-I 0 W/m 12,6 C 12,9 C 0,0 km/h (0 Bft) 100,00 %
25.10.2016 19:53 12,9 C 98 % 1022,3 hPa 0,0 l/m 0,0 km/h (0 Bft) S 186 0 min 0,000 mm 0,0 UV-I 0 W/m 12,6 C 12,9 C 0,0 km/h (0 Bft) 100,00 %
25.10.2016 19:54 12,9 C 98 % 1022,3 hPa 0,0 l/m 0,0 km/h (0 Bft) S 186 0 min 0,000 mm 0,0 UV-I 0 W/m 12,6 C 12,9 C 0,0 km/h (0 Bft) 100,00 %
25.10.2016 19:55 12,9 C 98 % 1022,3 hPa 0,2 l/m 0,0 km/h (0 Bft) S 186 0 min 0,000 mm 0,0 UV-I 0 W/m 12,6 C 12,9 C 0,0 km/h (0 Bft) 100,00 %
25.10.2016 19:56 13,0 C 98 % 1022,4 hPa 0,0 l/m 0,0 km/h (0 Bft) S 186 0 min 0,000 mm 0,0 UV-I 0 W/m 12,7 C 13,0 C 0,0 km/h (0 Bft) 100,00 %
25.10.2016 19:57 13,0 C 98 % 1022,4 hPa 0,0 l/m 0,0 km/h (0 Bft) S 186 0 min 0,000 mm 0,0 UV-I 0 W/m 12,7 C 13,0 C 0,0 km/h (0 Bft) 100,00 %
25.10.2016 19:58 13,0 C 98 % 1022,4 hPa 0,0 l/m 0,0 km/h (0 Bft) S 186 0 min 0,000 mm 0,0 UV-I 0 W/m 12,7 C 13,0 C 0,0 km/h (0 Bft) 95,83 %
25.10.2016 19:59 13,0 C 98 % 1022,4 hPa 0,2 l/m 0,0 km/h (0 Bft) S 186 0 min 0,000 mm 0,0 UV-I 0 W/m 12,7 C 13,0 C 0,0 km/h (0 Bft) 100,00 %
25.10.2016 20:00 12,9 C 98 % 1022,4 hPa 0,0 l/m 0,0 km/h (0 Bft) S 186 0 min 0,000 mm 0,0 UV-I 0 W/m 12,6 C 12,9 C 0,0 km/h (0 Bft) 100,00 %
25.10.2016 20:01 12,9 C 98 % 1022,4 hPa 0,0 l/m 0,2 km/h (0 Bft) S 186 0 min 0,000 mm 0,0 UV-I 0 W/m 12,6 C 12,9 C 1,6 km/h (1 Bft) 91,67 %
25.10.2016 20:02 12,9 C 98 % 1022,4 hPa 0,0 l/m 0,5 km/h (0 Bft) S 186 0 min 0,000 mm 0,0 UV-I 0 W/m 12,6 C 12,9 C 1,6 km/h (1 Bft) 96,15 %
25.10.2016 20:03 12,9 C 98 % 1022,4 hPa 0,0 l/m 0,0 km/h (0 Bft) S 186 0 min 0,000 mm 0,0 UV-I 0 W/m 12,6 C 12,9 C 0,0 km/h (0 Bft) 100,00 %
25.10.2016 20:04 13,0 C 98 % 1022,5 hPa 0,2 l/m 0,0 km/h (0 Bft) S 186 0 min 0,000 mm 0,0 UV-I 0 W/m 12,7 C 13,0 C 0,0 km/h (0 Bft) 96,15 %
25.10.2016 20:05 13,0 C 98 % 1022,4 hPa 0,0 l/m 0,0 km/h (0 Bft) S 186 0 min 0,000 mm 0,0 UV-I 0 W/m 12,7 C 13,0 C 0,0 km/h (0 Bft) 100,00 %
25.10.2016 20:06 12,9 C 98 % 1022,5 hPa 0,0 l/m 0,0 km/h (0 Bft) S 186 0 min 0,000 mm 0,0 UV-I 0 W/m 12,6 C 12,9 C 0,0 km/h (0 Bft) 97,37 %
25.10.2016 20:10 13,0 C 98 % 1022,5 hPa 0,0 l/m 0,0 km/h (0 Bft) N 0 0 min 0,000 mm 0,0 UV-I 0 W/m 12,7 C 13,0 C 0,0 km/h (0 Bft) 100,00 %
25.10.2016 20:16 13,0 C 98 % 1022,4 hPa 0,0 l/m 0,0 km/h (0 Bft) S 186 0 min 0,000 mm 0,0 UV-I 0 W/m 12,7 C 13,0 C 0,0 km/h (0 Bft) 97,50 %
25.10.2016 20:17 13,1 C 98 % 1022,4 hPa 0,0 l/m 0,5 km/h (0 Bft) S 186 0 min 0,000 mm 0,0 UV-I 0 W/m 12,8 C 13,1 C 1,6 km/h (1 Bft) 100,00 %
25.10.2016 20:18 13,1 C 98 % 1022,4 hPa 0,0 l/m 0,8 km/h (0 Bft) S 186 0 min 0,000 mm 0,0 UV-I 0 W/m 12,8 C 13,1 C 1,6 km/h (1 Bft) 100,00 %
25.10.2016 20:19 13,0 C 98 % 1022,4 hPa 0,2 l/m 0,1 km/h (0 Bft) S 186 0 min 0,000 mm 0,0 UV-I 0 W/m 12,7 C 13,0 C 1,6 km/h (1 Bft) 96,30 %
25.10.2016 20:20 13,0 C 98 % 1022,3 hPa 0,0 l/m 0,6 km/h (0 Bft) S 186 0 min 0,000 mm 0,0 UV-I 0 W/m 12,7 C 13,0 C 1,6 km/h (1 Bft) 96,15 %
25.10.2016 20:21 13,0 C 98 % 1022,4 hPa 0,0 l/m 0,3 km/h (0 Bft) S 186 0 min 0,000 mm 0,0 UV-I 0 W/m 12,7 C 13,0 C 1,6 km/h (1 Bft) 100,00 %
25.10.2016 20:22 13,1 C 98 % 1022,3 hPa 0,0 l/m 0,7 km/h (0 Bft) S 186 0 min 0,000 mm 0,0 UV-I 0 W/m 12,8 C 13,1 C 1,6 km/h (1 Bft) 93,33 %
25.10.2016 20:23 13,1 C 98 % 1022,3 hPa 0,0 l/m 0,1 km/h (0 Bft) S 186 0 min 0,000 mm 0,0 UV-I 0 W/m 12,8 C 13,1 C 1,6 km/h (1 Bft) 100,00 %
25.10.2016 20:24 13,0 C 98 % 1022,4 hPa 0,0 l/m 0,2 km/h (0 Bft) S 186 0 min 0,000 mm 0,0 UV-I 0 W/m 12,7 C 13,0 C 1,6 km/h (1 Bft) 91,67 %
25.10.2016 20:25 12,9 C 98 % 1022,4 hPa 0,0 l/m 1,7 km/h (1 Bft) S 186 0 min 0,000 mm 0,0 UV-I 0 W/m 12,6 C 12,9 C 3,2 km/h (1 Bft) 100,00 %
25.10.2016 20:26 13,0 C 98 % 1022,4 hPa 0,2 l/m 0,9 km/h (0 Bft) S 186 0 min 0,000 mm 0,0 UV-I 0 W/m 12,7 C 13,0 C 3,2 km/h (1 Bft) 96,88 %
25.10.2016 20:27 13,0 C 98 % 1022,4 hPa 0,0 l/m 0,1 km/h (0 Bft) S 186 0 min 0,000 mm 0,0 UV-I 0 W/m 12,7 C 13,0 C 1,6 km/h (1 Bft) 95,83 %
25.10.2016 20:28 13,0 C 98 % 1022,3 hPa 0,0 l/m 1,2 km/h (1 Bft) S 186 0 min 0,000 mm 0,0 UV-I 0 W/m 12,7 C 13,0 C 1,6 km/h (1 Bft) 100,00 %
25.10.2016 20:29 13,1 C 98 % 1022,3 hPa 0,0 l/m 1,3 km/h (1 Bft) S 186 0 min 0,000 mm 0,0 UV-I 0 W/m 12,8 C 13,1 C 1,6 km/h (1 Bft) 96,15 %
25.10.2016 20:30 13,1 C 98 % 1022,4 hPa 0,0 l/m 1,5 km/h (1 Bft) S 186 0 min 0,000 mm 0,0 UV-I 0 W/m 12,8 C 13,1 C 3,2 km/h (1 Bft) 100,00 %
25.10.2016 20:31 13,1 C 98 % 1022,4 hPa 0,0 l/m 1,0 km/h (0 Bft) S 186 0 min 0,000 mm 0,0 UV-I 0 W/m 12,8 C 13,1 C 1,6 km/h (1 Bft) 91,30 %
25.10.2016 20:32 13,1 C 98 % 1022,3 hPa 0,0 l/m 2,7 km/h (1 Bft) S 186 0 min 0,000 mm 0,0 UV-I 0 W/m 12,8 C 13,1 C 3,2 km/h (1 Bft) 100,00 %
25.10.2016 20:33 13,0 C 98 % 1022,3 hPa 0,0 l/m 1,5 km/h (1 Bft) S 186 0 min 0,000 mm 0,0 UV-I 0 W/m 12,7 C 13,0 C 1,6 km/h (1 Bft) 91,30 %
25.10.2016 20:34 12,9 C 98 % 1022,3 hPa 0,0 l/m 1,4 km/h (1 Bft) S 186 0 min 0,000 mm 0,0 UV-I 0 W/m 12,6 C 12,9 C 1,6 km/h (1 Bft) 100,00 %
25.10.2016 20:35 12,9 C 98 % 1022,3 hPa 0,0 l/m 0,5 km/h (0 Bft) S 186 0 min 0,000 mm 0,0 UV-I 0 W/m 12,6 C 12,9 C 1,6 km/h (1 Bft) 100,00 %
25.10.2016 20:36 12,9 C 98 % 1022,3 hPa 0,0 l/m 1,8 km/h (1 Bft) S 186 0 min 0,000 mm 0,0 UV-I 0 W/m 12,6 C 12,9 C 3,2 km/h (1 Bft) 95,65 %
25.10.2016 20:37 12,9 C 98 % 1022,3 hPa 0,2 l/m 0,1 km/h (0 Bft) S 186 0 min 0,000 mm 0,0 UV-I 0 W/m 12,6 C 12,9 C 1,6 km/h (1 Bft) 95,83 %
25.10.2016 20:38 12,9 C 98 % 1022,3 hPa 0,0 l/m 0,1 km/h (0 Bft) S 186 0 min 0,000 mm 0,0 UV-I 0 W/m 12,6 C 12,9 C 1,6 km/h (1 Bft) 100,00 %
25.10.2016 20:39 12,9 C 98 % 1022,3 hPa 0,0 l/m 1,9 km/h (1 Bft) S 186 0 min 0,000 mm 0,0 UV-I 0 W/m 12,6 C 12,9 C 3,2 km/h (1 Bft) 100,00 %
25.10.2016 20:40 12,9 C 98 % 1022,3 hPa 0,0 l/m 1,8 km/h (1 Bft) S 186 0 min 0,000 mm 0,0 UV-I 0 W/m 12,6 C 12,9 C 3,2 km/h (1 Bft) 100,00 %
25.10.2016 20:41 12,9 C 98 % 1022,3 hPa 0,0 l/m 3,6 km/h (1 Bft) S 186 0 min 0,000 mm 0,0 UV-I 0 W/m 12,6 C 12,9 C 4,8 km/h (1 Bft) 100,00 %
25.10.2016 20:42 12,9 C 98 % 1022,3 hPa 0,0 l/m 3,1 km/h (1 Bft) S 186 0 min 0,000 mm 0,0 UV-I 0 W/m 12,6 C 12,9 C 6,4 km/h (2 Bft) 100,00 %
25.10.2016 20:43 12,9 C 98 % 1022,3 hPa 0,0 l/m 2,5 km/h (1 Bft) S 186 0 min 0,000 mm 0,0 UV-I 0 W/m 12,6 C 12,9 C 3,2 km/h (1 Bft) 100,00 %
25.10.2016 20:44 12,9 C 98 % 1022,3 hPa 0,0 l/m 3,5 km/h (1 Bft) S-SW 196 0 min 0,000 mm 0,0 UV-I 0 W/m 12,6 C 12,9 C 6,4 km/h (2 Bft) 100,00 %
25.10.2016 20:45 12,9 C 98 % 1022,3 hPa 0,0 l/m 4,0 km/h (1 Bft) S-SW 198 0 min 0,000 mm 0,0 UV-I 0 W/m 12,6 C 12,9 C 6,4 km/h (2 Bft) 95,65 %
25.10.2016 20:46 12,9 C 98 % 1022,2 hPa 0,0 l/m 4,2 km/h (1 Bft) S-SW 201 0 min 0,000 mm 0,0 UV-I 0 W/m 12,6 C 12,9 C 4,8 km/h (1 Bft) 100,00 %
25.10.2016 20:47 12,9 C 98 % 1022,2 hPa 0,0 l/m 4,0 km/h (1 Bft) S-SW 202 0 min 0,000 mm 0,0 UV-I 0 W/m 12,6 C 12,9 C 6,4 km/h (2 Bft) 100,00 %
25.10.2016 20:48 12,9 C 98 % 1022,2 hPa 0,0 l/m 2,3 km/h (1 Bft) S-SW 202 0 min 0,000 mm 0,0 UV-I 0 W/m 12,6 C 12,9 C 3,2 km/h (1 Bft) 100,00 %
25.10.2016 20:49 12,9 C 98 % 1022,2 hPa 0,2 l/m 3,5 km/h (1 Bft) S-SW 202 0 min 0,000 mm 0,0 UV-I 0 W/m 12,6 C 12,9 C 4,8 km/h (1 Bft) 92,86 %
25.10.2016 20:50 12,9 C 98 % 1022,2 hPa 0,0 l/m 3,2 km/h (1 Bft) S-SW 205 0 min 0,000 mm 0,0 UV-I 0 W/m 12,6 C 12,9 C 4,8 km/h (1 Bft) 100,00 %
25.10.2016 20:51 12,9 C 98 % 1022,2 hPa 0,0 l/m 2,4 km/h (1 Bft) S-SW 205 0 min 0,000 mm 0,0 UV-I 0 W/m 12,6 C 12,9 C 4,8 km/h (1 Bft) 100,00 %
25.10.2016 20:52 12,9 C 98 % 1022,2 hPa 0,0 l/m 2,4 km/h (1 Bft) S-SW 205 0 min 0,000 mm 0,0 UV-I 0 W/m 12,6 C 12,9 C 3,2 km/h (1 Bft) 100,00 %
25.10.2016 20:53 12,9 C 98 % 1022,2 hPa 0,0 l/m 3,3 km/h (1 Bft) S-SW 205 0 min 0,000 mm 0,0 UV-I 0 W/m 12,6 C 12,9 C 4,8 km/h (1 Bft) 100,00 %
25.10.2016 20:54 12,9 C 98 % 1022,2 hPa 0,0 l/m 2,8 km/h (1 Bft) S-SW 205 0 min 0,000 mm 0,0 UV-I 0 W/m 12,6 C 12,9 C 4,8 km/h (1 Bft) 100,00 %
25.10.2016 20:55 12,9 C 98 % 1022,2 hPa 0,0 l/m 3,0 km/h (1 Bft) S-SW 205 0 min 0,000 mm 0,0 UV-I 0 W/m 12,6 C 12,9 C 4,8 km/h (1 Bft) 94,12 %
25.10.2016 20:56 12,9 C 98 % 1022,3 hPa 0,0 l/m 3,8 km/h (1 Bft) SW 215 0 min 0,000 mm 0,0 UV-I 0 W/m 12,6 C 12,9 C 4,8 km/h (1 Bft) 100,00 %
25.10.2016 20:57 12,9 C 98 % 1022,3 hPa 0,0 l/m 2,5 km/h (1 Bft) SW 215 0 min 0,000 mm 0,0 UV-I 0 W/m 12,6 C 12,9 C 4,8 km/h (1 Bft) 100,00 %
25.10.2016 20:58 12,9 C 98 % 1022,3 hPa 0,0 l/m 3,6 km/h (1 Bft) SW 215 0 min 0,000 mm 0,0 UV-I 0 W/m 12,6 C 12,9 C 4,8 km/h (1 Bft) 100,00 %
25.10.2016 20:59 12,9 C 98 % 1022,3 hPa 0,0 l/m 3,6 km/h (1 Bft) SW 215 0 min 0,000 mm 0,0 UV-I 0 W/m 12,6 C 12,9 C 4,8 km/h (1 Bft) 100,00 %
25.10.2016 21:00 12,9 C 98 % 1022,3 hPa 0,0 l/m 2,8 km/h (1 Bft) SW 215 0 min 0,000 mm 0,0 UV-I 0 W/m 12,6 C 12,9 C 4,8 km/h (1 Bft) 100,00 %
25.10.2016 21:02 12,8 C 98 % 1022,3 hPa 0,0 l/m 3,6 km/h (1 Bft) SW 218 0 min 0,000 mm 0,0 UV-I 0 W/m 12,5 C 12,8 C 4,8 km/h (1 Bft) 100,00 %
25.10.2016 21:03 12,8 C 98 % 1022,3 hPa 0,0 l/m 1,9 km/h (1 Bft) SW 218 0 min 0,000 mm 0,0 UV-I 0 W/m 12,5 C 12,8 C 3,2 km/h (1 Bft) 100,00 %
25.10.2016 21:04 12,8 C 98 % 1022,4 hPa 0,0 l/m 3,8 km/h (1 Bft) SW 220 0 min 0,000 mm 0,0 UV-I 0 W/m 12,5 C 12,8 C 4,8 km/h (1 Bft) 100,00 %
25.10.2016 21:05 12,8 C 98 % 1022,4 hPa 0,0 l/m 3,8 km/h (1 Bft) SW 220 0 min 0,000 mm 0,0 UV-I 0 W/m 12,5 C 12,8 C 6,4 km/h (2 Bft) 100,00 %
25.10.2016 21:06 12,8 C 98 % 1022,3 hPa 0,2 l/m 3,4 km/h (1 Bft) SW 220 0 min 0,000 mm 0,0 UV-I 0 W/m 12,5 C 12,8 C 4,8 km/h (1 Bft) 100,00 %
25.10.2016 21:07 12,8 C 98 % 1022,3 hPa 0,0 l/m 3,2 km/h (1 Bft) SW 220 0 min 0,000 mm 0,0 UV-I 0 W/m 12,5 C 12,8 C 4,8 km/h (1 Bft) 100,00 %
25.10.2016 21:08 12,8 C 98 % 1022,3 hPa 0,0 l/m 5,2 km/h (1 Bft) S-SW 207 0 min 0,000 mm 0,0 UV-I 0 W/m 12,5 C 12,8 C 8,0 km/h (2 Bft) 100,00 %
25.10.2016 21:09 12,8 C 98 % 1022,4 hPa 0,0 l/m 3,6 km/h (1 Bft) S-SW 205 0 min 0,000 mm 0,0 UV-I 0 W/m 12,5 C 12,8 C 6,4 km/h (2 Bft) 100,00 %
25.10.2016 21:10 12,8 C 98 % 1022,4 hPa 0,0 l/m 4,5 km/h (1 Bft) SW 221 0 min 0,000 mm 0,0 UV-I 0 W/m 12,5 C 12,8 C 6,4 km/h (2 Bft) 100,00 %
25.10.2016 21:11 12,8 C 98 % 1022,4 hPa 0,0 l/m 3,9 km/h (1 Bft) SW 217 0 min 0,000 mm 0,0 UV-I 0 W/m 12,5 C 12,8 C 6,4 km/h (2 Bft) 96,30 %
25.10.2016 21:12 12,8 C 98 % 1022,4 hPa 0,0 l/m 4,9 km/h (1 Bft) S-SW 209 0 min 0,000 mm 0,0 UV-I 0 W/m 12,5 C 12,8 C 8,0 km/h (2 Bft) 100,00 %
25.10.2016 21:13 12,8 C 98 % 1022,4 hPa 0,0 l/m 4,2 km/h (1 Bft) S-SW 210 0 min 0,000 mm 0,0 UV-I 0 W/m 12,5 C 12,8 C 8,0 km/h (2 Bft) 100,00 %
25.10.2016 21:14 12,8 C 98 % 1022,4 hPa 0,0 l/m 5,3 km/h (1 Bft) S-SW 212 0 min 0,000 mm 0,0 UV-I 0 W/m 12,5 C 12,8 C 8,0 km/h (2 Bft) 100,00 %
25.10.2016 21:15 12,8 C 98 % 1022,4 hPa 0,0 l/m 4,9 km/h (1 Bft) S-SW 211 0 min 0,000 mm 0,0 UV-I 0 W/m 12,5 C 12,8 C 6,4 km/h (2 Bft) 100,00 %
25.10.2016 21:16 12,8 C 98 % 1022,4 hPa 0,0 l/m 4,3 km/h (1 Bft) S-SW 211 0 min 0,000 mm 0,0 UV-I 0 W/m 12,5 C 12,8 C 6,4 km/h (2 Bft) 100,00 %
25.10.2016 21:17 12,8 C 98 % 1022,4 hPa 0,0 l/m 6,0 km/h (2 Bft) S-SW 211 0 min 0,000 mm 0,0 UV-I 0 W/m 12,5 C 12,8 C 8,0 km/h (2 Bft) 96,30 %
25.10.2016 21:18 12,7 C 98 % 1022,4 hPa 0,0 l/m 6,2 km/h (2 Bft) S-SW 210 0 min 0,000 mm 0,0 UV-I 0 W/m 12,4 C 12,7 C 8,0 km/h (2 Bft) 100,00 %
25.10.2016 21:19 12,7 C 98 % 1022,4 hPa 0,0 l/m 6,2 km/h (2 Bft) S-SW 208 0 min 0,000 mm 0,0 UV-I 0 W/m 12,4 C 12,7 C 8,0 km/h (2 Bft) 100,00 %
25.10.2016 21:20 12,7 C 98 % 1022,4 hPa 0,0 l/m 5,2 km/h (1 Bft) S-SW 209 0 min 0,000 mm 0,0 UV-I 0 W/m 12,4 C 12,7 C 6,4 km/h (2 Bft) 98,74 %
25.10.2016 21:21 12,7 C 98 % 1022,4 hPa 0,0 l/m 3,5 km/h (1 Bft) S-SW 207 0 min 0,000 mm 0,0 UV-I 0 W/m 12,4 C 12,7 C 6,4 km/h (2 Bft) 97,73 %
25.10.2016 21:22 12,8 C 98 % 1022,4 hPa 0,0 l/m 2,9 km/h (1 Bft) S-SW 209 0 min 0,000 mm 0,0 UV-I 0 W/m 12,5 C 12,8 C 4,8 km/h (1 Bft) 96,15 %
25.10.2016 21:23 12,8 C 98 % 1022,4 hPa 0,0 l/m 2,4 km/h (1 Bft) S-SW 209 0 min 0,000 mm 0,0 UV-I 0 W/m 12,5 C 12,8 C 3,2 km/h (1 Bft) 100,00 %
25.10.2016 21:24 12,8 C 98 % 1022,3 hPa 0,0 l/m 4,7 km/h (1 Bft) S-SW 209 0 min 0,000 mm 0,0 UV-I 0 W/m 12,5 C 12,8 C 6,4 km/h (2 Bft) 100,00 %
25.10.2016 21:25 12,7 C 98 % 1022,3 hPa 0,0 l/m 5,1 km/h (1 Bft) S-SW 209 0 min 0,000 mm 0,0 UV-I 0 W/m 12,4 C 12,7 C 8,0 km/h (2 Bft) 100,00 %
25.10.2016 21:29 12,7 C 98 % 1022,4 hPa 0,0 l/m 4,5 km/h (1 Bft) S-SW 210 0 min 0,000 mm 0,0 UV-I 0 W/m 12,4 C 12,7 C 6,4 km/h (2 Bft) 100,00 %
25.10.2016 21:30 12,7 C 98 % 1022,4 hPa 0,0 l/m 4,8 km/h (1 Bft) S-SW 202 0 min 0,000 mm 0,0 UV-I 0 W/m 12,4 C 12,7 C 6,4 km/h (2 Bft) 99,12 %
25.10.2016 21:32 12,7 C 98 % 1022,5 hPa 0,0 l/m 2,8 km/h (1 Bft) SW 232 0 min 0,000 mm 0,0 UV-I 0 W/m 12,4 C 12,7 C 3,2 km/h (1 Bft) 96,97 %
25.10.2016 21:33 12,7 C 98 % 1022,5 hPa 0,0 l/m 3,0 km/h (1 Bft) SW 232 0 min 0,000 mm 0,0 UV-I 0 W/m 12,4 C 12,7 C 4,8 km/h (1 Bft) 100,00 %
25.10.2016 21:34 12,7 C 98 % 1022,4 hPa 0,0 l/m 3,8 km/h (1 Bft) SW 232 0 min 0,000 mm 0,0 UV-I 0 W/m 12,4 C 12,7 C 4,8 km/h (1 Bft) 100,00 %
25.10.2016 21:35 12,7 C 98 % 1022,5 hPa 0,0 l/m 3,1 km/h (1 Bft) SW 232 0 min 0,000 mm 0,0 UV-I 0 W/m 12,4 C 12,7 C 4,8 km/h (1 Bft) 100,00 %
25.10.2016 21:36 12,7 C 98 % 1022,5 hPa 0,0 l/m 3,6 km/h (1 Bft) SW 232 0 min 0,000 mm 0,0 UV-I 0 W/m 12,4 C 12,7 C 4,8 km/h (1 Bft) 100,00 %
25.10.2016 21:37 12,7 C 98 % 1022,5 hPa 0,0 l/m 5,2 km/h (1 Bft) SW 234 0 min 0,000 mm 0,0 UV-I 0 W/m 12,4 C 12,7 C 8,0 km/h (2 Bft) 100,00 %
25.10.2016 21:38 12,7 C 98 % 1022,5 hPa 0,0 l/m 5,9 km/h (2 Bft) SW 234 0 min 0,000 mm 0,0 UV-I 0 W/m 12,4 C 12,7 C 8,0 km/h (2 Bft) 100,00 %
25.10.2016 21:39 12,7 C 98 % 1022,5 hPa 0,0 l/m 4,6 km/h (1 Bft) SW 234 0 min 0,000 mm 0,0 UV-I 0 W/m 12,4 C 12,7 C 6,4 km/h (2 Bft) 100,00 %
25.10.2016 21:40 12,6 C 98 % 1022,5 hPa 0,0 l/m 5,7 km/h (1 Bft) SW 235 0 min 0,000 mm 0,0 UV-I 0 W/m 12,3 C 12,6 C 8,0 km/h (2 Bft) 100,00 %
25.10.2016 21:41 12,6 C 98 % 1022,5 hPa 0,0 l/m 3,9 km/h (1 Bft) SW 221 0 min 0,000 mm 0,0 UV-I 0 W/m 12,3 C 12,6 C 6,4 km/h (2 Bft) 100,00 %
25.10.2016 21:42 12,6 C 98 % 1022,6 hPa 0,0 l/m 3,5 km/h (1 Bft) SW 221 0 min 0,000 mm 0,0 UV-I 0 W/m 12,3 C 12,6 C 4,8 km/h (1 Bft) 100,00 %
25.10.2016 21:43 12,6 C 98 % 1022,6 hPa 0,0 l/m 4,4 km/h (1 Bft) SW 225 0 min 0,000 mm 0,0 UV-I 0 W/m 12,3 C 12,6 C 6,4 km/h (2 Bft) 100,00 %
25.10.2016 21:44 12,6 C 98 % 1022,6 hPa 0,0 l/m 3,6 km/h (1 Bft) SW 225 0 min 0,000 mm 0,0 UV-I 0 W/m 12,3 C 12,6 C 4,8 km/h (1 Bft) 100,00 %
25.10.2016 21:45 12,6 C 98 % 1022,6 hPa 0,0 l/m 4,6 km/h (1 Bft) SW 225 0 min 0,000 mm 0,0 UV-I 0 W/m 12,3 C 12,6 C 4,8 km/h (1 Bft) 96,30 %
25.10.2016 21:46 12,6 C 98 % 1022,6 hPa 0,0 l/m 3,6 km/h (1 Bft) SW 225 0 min 0,000 mm 0,0 UV-I 0 W/m 12,3 C 12,6 C 4,8 km/h (1 Bft) 100,00 %
25.10.2016 21:47 12,6 C 98 % 1022,6 hPa 0,0 l/m 2,6 km/h (1 Bft) SW 225 0 min 0,000 mm 0,0 UV-I 0 W/m 12,3 C 12,6 C 4,8 km/h (1 Bft) 100,00 %
25.10.2016 21:48 12,6 C 98 % 1022,6 hPa 0,0 l/m 3,3 km/h (1 Bft) SW 225 0 min 0,000 mm 0,0 UV-I 0 W/m 12,3 C 12,6 C 6,4 km/h (2 Bft) 100,00 %
25.10.2016 21:49 12,6 C 98 % 1022,6 hPa 0,0 l/m 3,3 km/h (1 Bft) SW 225 0 min 0,000 mm 0,0 UV-I 0 W/m 12,3 C 12,6 C 4,8 km/h (1 Bft) 100,00 %
25.10.2016 21:50 12,6 C 98 % 1022,6 hPa 0,0 l/m 5,6 km/h (1 Bft) SW 225 0 min 0,000 mm 0,0 UV-I 0 W/m 12,3 C 12,6 C 6,4 km/h (2 Bft) 100,00 %
25.10.2016 21:51 12,6 C 98 % 1022,5 hPa 0,0 l/m 4,1 km/h (1 Bft) SW 225 0 min 0,000 mm 0,0 UV-I 0 W/m 12,3 C 12,6 C 6,4 km/h (2 Bft) 95,83 %
25.10.2016 21:52 12,6 C 98 % 1022,5 hPa 0,0 l/m 5,8 km/h (2 Bft) SW 218 0 min 0,000 mm 0,0 UV-I 0 W/m 12,3 C 12,6 C 8,0 km/h (2 Bft) 100,00 %
25.10.2016 21:53 12,6 C 98 % 1022,6 hPa 0,0 l/m 5,3 km/h (1 Bft) SW 215 0 min 0,000 mm 0,0 UV-I 0 W/m 12,3 C 12,6 C 6,4 km/h (2 Bft) 100,00 %
25.10.2016 21:54 12,6 C 98 % 1022,6 hPa 0,0 l/m 5,2 km/h (1 Bft) SW 219 0 min 0,000 mm 0,0 UV-I 0 W/m 12,3 C 12,6 C 8,0 km/h (2 Bft) 100,00 %
25.10.2016 21:55 12,6 C 98 % 1022,6 hPa 0,0 l/m 3,3 km/h (1 Bft) SW 219 0 min 0,000 mm 0,0 UV-I 0 W/m 12,3 C 12,6 C 4,8 km/h (1 Bft) 100,00 %
25.10.2016 21:56 12,6 C 98 % 1022,6 hPa 0,0 l/m 4,8 km/h (1 Bft) SW 219 0 min 0,000 mm 0,0 UV-I 0 W/m 12,3 C 12,6 C 6,4 km/h (2 Bft) 100,00 %
25.10.2016 21:57 12,6 C 98 % 1022,6 hPa 0,0 l/m 4,1 km/h (1 Bft) SW 219 0 min 0,000 mm 0,0 UV-I 0 W/m 12,3 C 12,6 C 4,8 km/h (1 Bft) 100,00 %
25.10.2016 21:58 12,6 C 98 % 1022,6 hPa 0,0 l/m 3,8 km/h (1 Bft) SW 219 0 min 0,000 mm 0,0 UV-I 0 W/m 12,3 C 12,6 C 6,4 km/h (2 Bft) 100,00 %
25.10.2016 21:59 12,6 C 98 % 1022,6 hPa 0,0 l/m 3,9 km/h (1 Bft) SW 219 0 min 0,000 mm 0,0 UV-I 0 W/m 12,3 C 12,6 C 6,4 km/h (2 Bft) 100,00 %
25.10.2016 22:00 12,6 C 98 % 1022,6 hPa 0,0 l/m 3,0 km/h (1 Bft) SW 219 0 min 0,000 mm 0,0 UV-I 0 W/m 12,3 C 12,6 C 3,2 km/h (1 Bft) 100,00 %
25.10.2016 22:01 12,6 C 98 % 1022,6 hPa 0,0 l/m 4,8 km/h (1 Bft) SW 219 0 min 0,000 mm 0,0 UV-I 0 W/m 12,3 C 12,6 C 6,4 km/h (2 Bft) 100,00 %
25.10.2016 22:02 12,6 C 98 % 1022,6 hPa 0,0 l/m 3,8 km/h (1 Bft) SW 219 0 min 0,000 mm 0,0 UV-I 0 W/m 12,3 C 12,6 C 6,4 km/h (2 Bft) 100,00 %
25.10.2016 22:03 12,6 C 98 % 1022,6 hPa 0,0 l/m 4,0 km/h (1 Bft) SW 219 0 min 0,000 mm 0,0 UV-I 0 W/m 12,3 C 12,6 C 6,4 km/h (2 Bft) 100,00 %
25.10.2016 22:04 12,6 C 98 % 1022,6 hPa 0,0 l/m 3,8 km/h (1 Bft) SW 219 0 min 0,000 mm 0,0 UV-I 0 W/m 12,3 C 12,6 C 4,8 km/h (1 Bft) 95,83 %
25.10.2016 22:05 12,6 C 98 % 1022,6 hPa 0,0 l/m 3,7 km/h (1 Bft) SW 219 0 min 0,000 mm 0,0 UV-I 0 W/m 12,3 C 12,6 C 4,8 km/h (1 Bft) 100,00 %
25.10.2016 22:06 12,6 C 98 % 1022,6 hPa 0,0 l/m 3,5 km/h (1 Bft) SW 219 0 min 0,000 mm 0,0 UV-I 0 W/m 12,3 C 12,6 C 4,8 km/h (1 Bft) 91,67 %
25.10.2016 22:07 12,6 C 98 % 1022,6 hPa 0,0 l/m 2,7 km/h (1 Bft) SW 219 0 min 0,000 mm 0,0 UV-I 0 W/m 12,3 C 12,6 C 3,2 km/h (1 Bft) 100,00 %
25.10.2016 22:08 12,6 C 98 % 1022,6 hPa 0,0 l/m 3,6 km/h (1 Bft) SW 219 0 min 0,000 mm 0,0 UV-I 0 W/m 12,3 C 12,6 C 6,4 km/h (2 Bft) 96,30 %
25.10.2016 22:09 12,6 C 98 % 1022,6 hPa 0,0 l/m 4,3 km/h (1 Bft) SW 220 0 min 0,000 mm 0,0 UV-I 0 W/m 12,3 C 12,6 C 6,4 km/h (2 Bft) 96,15 %
25.10.2016 22:10 12,6 C 98 % 1022,6 hPa 0,0 l/m 5,1 km/h (1 Bft) SW 221 0 min 0,000 mm 0,0 UV-I 0 W/m 12,3 C 12,6 C 6,4 km/h (2 Bft) 100,00 %
25.10.2016 22:11 12,6 C 98 % 1022,6 hPa 0,0 l/m 4,7 km/h (1 Bft) SW 227 0 min 0,000 mm 0,0 UV-I 0 W/m 12,3 C 12,6 C 6,4 km/h (2 Bft) 98,83 %
25.10.2016 22:12 12,6 C 98 % 1022,6 hPa 0,0 l/m 3,3 km/h (1 Bft) SW 227 0 min 0,000 mm 0,0 UV-I 0 W/m 12,3 C 12,6 C 4,8 km/h (1 Bft) 95,12 %
25.10.2016 22:13 12,6 C 98 % 1022,6 hPa 0,0 l/m 3,5 km/h (1 Bft) SW 227 0 min 0,000 mm 0,0 UV-I 0 W/m 12,3 C 12,6 C 6,4 km/h (2 Bft) 96,15 %
25.10.2016 22:14 12,6 C 98 % 1022,6 hPa 0,0 l/m 4,0 km/h (1 Bft) SW 227 0 min 0,000 mm 0,0 UV-I 0 W/m 12,3 C 12,6 C 4,8 km/h (1 Bft) 100,00 %
25.10.2016 22:15 12,6 C 98 % 1022,6 hPa 0,0 l/m 2,5 km/h (1 Bft) SW 227 0 min 0,000 mm 0,0 UV-I 0 W/m 12,3 C 12,6 C 4,8 km/h (1 Bft) 91,30 %
25.10.2016 22:16 12,6 C 98 % 1022,6 hPa 0,0 l/m 3,8 km/h (1 Bft) SW 227 0 min 0,000 mm 0,0 UV-I 0 W/m 12,3 C 12,6 C 4,8 km/h (1 Bft) 100,00 %
25.10.2016 22:17 12,6 C 98 % 1022,6 hPa 0,0 l/m 4,0 km/h (1 Bft) SW 227 0 min 0,000 mm 0,0 UV-I 0 W/m 12,3 C 12,6 C 4,8 km/h (1 Bft) 95,83 %
25.10.2016 22:18 12,6 C 98 % 1022,6 hPa 0,0 l/m 3,8 km/h (1 Bft) SW 226 0 min 0,000 mm 0,0 UV-I 0 W/m 12,3 C 12,6 C 6,4 km/h (2 Bft) 95,65 %
25.10.2016 22:19 12,6 C 98 % 1022,6 hPa 0,0 l/m 5,9 km/h (2 Bft) SW 219 0 min 0,000 mm 0,0 UV-I 0 W/m 12,3 C 12,6 C 8,0 km/h (2 Bft) 95,83 %
25.10.2016 22:20 12,6 C 98 % 1022,6 hPa 0,0 l/m 5,3 km/h (1 Bft) SW 217 0 min 0,000 mm 0,0 UV-I 0 W/m 12,3 C 12,6 C 6,4 km/h (2 Bft) 96,15 %
25.10.2016 22:21 12,6 C 98 % 1022,6 hPa 0,0 l/m 5,7 km/h (1 Bft) S-SW 211 0 min 0,000 mm 0,0 UV-I 0 W/m 12,3 C 12,6 C 8,0 km/h (2 Bft) 100,00 %
25.10.2016 22:22 12,6 C 98 % 1022,6 hPa 0,0 l/m 4,7 km/h (1 Bft) S-SW 211 0 min 0,000 mm 0,0 UV-I 0 W/m 12,3 C 12,6 C 6,4 km/h (2 Bft) 95,65 %
25.10.2016 22:23 12,6 C 98 % 1022,6 hPa 0,0 l/m 4,6 km/h (1 Bft) S-SW 211 0 min 0,000 mm 0,0 UV-I 0 W/m 12,3 C 12,6 C 6,4 km/h (2 Bft) 95,83 %
25.10.2016 22:24 12,6 C 98 % 1022,6 hPa 0,0 l/m 4,1 km/h (1 Bft) S-SW 211 0 min 0,000 mm 0,0 UV-I 0 W/m 12,3 C 12,6 C 4,8 km/h (1 Bft) 95,65 %
25.10.2016 22:25 12,6 C 98 % 1022,6 hPa 0,0 l/m 5,5 km/h (1 Bft) S-SW 212 0 min 0,000 mm 0,0 UV-I 0 W/m 12,3 C 12,6 C 6,4 km/h (2 Bft) 96,30 %
25.10.2016 22:26 12,6 C 98 % 1022,6 hPa 0,0 l/m 3,1 km/h (1 Bft) S-SW 212 0 min 0,000 mm 0,0 UV-I 0 W/m 12,3 C 12,6 C 6,4 km/h (2 Bft) 100,00 %
25.10.2016 22:27 12,6 C 98 % 1022,6 hPa 0,0 l/m 3,8 km/h (1 Bft) SW 221 0 min 0,000 mm 0,0 UV-I 0 W/m 12,3 C 12,6 C 6,4 km/h (2 Bft) 95,83 %
25.10.2016 22:28 12,6 C 98 % 1022,6 hPa 0,0 l/m 4,2 km/h (1 Bft) SW 221 0 min 0,000 mm 0,0 UV-I 0 W/m 12,3 C 12,6 C 6,4 km/h (2 Bft) 92,31 %
25.10.2016 22:29 12,6 C 98 % 1022,6 hPa 0,0 l/m 3,6 km/h (1 Bft) SW 224 0 min 0,000 mm 0,0 UV-I 0 W/m 12,3 C 12,6 C 4,8 km/h (1 Bft) 95,83 %
25.10.2016 22:30 12,6 C 98 % 1022,6 hPa 0,0 l/m 4,3 km/h (1 Bft) SW 223 0 min 0,000 mm 0,0 UV-I 0 W/m 12,3 C 12,6 C 8,0 km/h (2 Bft) 100,00 %
25.10.2016 22:31 12,6 C 98 % 1022,7 hPa 0,0 l/m 3,1 km/h (1 Bft) SW 223 0 min 0,000 mm 0,0 UV-I 0 W/m 12,3 C 12,6 C 4,8 km/h (1 Bft) 95,83 %
25.10.2016 22:32 12,6 C 98 % 1022,6 hPa 0,0 l/m 3,1 km/h (1 Bft) SW 223 0 min 0,000 mm 0,0 UV-I 0 W/m 12,3 C 12,6 C 4,8 km/h (1 Bft) 100,00 %
25.10.2016 22:33 12,6 C 98 % 1022,6 hPa 0,0 l/m 3,5 km/h (1 Bft) SW 223 0 min 0,000 mm 0,0 UV-I 0 W/m 12,3 C 12,6 C 4,8 km/h (1 Bft) 91,67 %
25.10.2016 22:34 12,6 C 98 % 1022,7 hPa 0,0 l/m 4,7 km/h (1 Bft) SW 223 0 min 0,000 mm 0,0 UV-I 0 W/m 12,3 C 12,6 C 6,4 km/h (2 Bft) 96,30 %
25.10.2016 22:35 12,6 C 98 % 1022,7 hPa 0,0 l/m 2,8 km/h (1 Bft) SW 223 0 min 0,000 mm 0,0 UV-I 0 W/m 12,3 C 12,6 C 4,8 km/h (1 Bft) 95,65 %
25.10.2016 22:36 12,5 C 98 % 1022,7 hPa 0,0 l/m 4,6 km/h (1 Bft) SW 223 0 min 0,000 mm 0,0 UV-I 0 W/m 12,2 C 12,5 C 6,4 km/h (2 Bft) 100,00 %
25.10.2016 22:37 12,5 C 98 % 1022,7 hPa 0,0 l/m 5,1 km/h (1 Bft) SW 223 0 min 0,000 mm 0,0 UV-I 0 W/m 12,2 C 12,5 C 6,4 km/h (2 Bft) 95,65 %
25.10.2016 22:38 12,5 C 98 % 1022,7 hPa 0,0 l/m 5,1 km/h (1 Bft) SW 223 0 min 0,000 mm 0,0 UV-I 0 W/m 12,2 C 12,5 C 6,4 km/h (2 Bft) 100,00 %
25.10.2016 22:39 12,4 C 98 % 1022,7 hPa 0,0 l/m 5,1 km/h (1 Bft) SW 224 0 min 0,000 mm 0,0 UV-I 0 W/m 12,1 C 12,4 C 6,4 km/h (2 Bft) 100,00 %
25.10.2016 22:40 12,4 C 98 % 1022,7 hPa 0,0 l/m 4,5 km/h (1 Bft) SW 224 0 min 0,000 mm 0,0 UV-I 0 W/m 12,1 C 12,4 C 6,4 km/h (2 Bft) 100,00 %
25.10.2016 22:41 12,4 C 98 % 1022,7 hPa 0,0 l/m 4,8 km/h (1 Bft) SW 225 0 min 0,000 mm 0,0 UV-I 0 W/m 12,1 C 12,4 C 6,4 km/h (2 Bft) 100,00 %
25.10.2016 22:42 12,4 C 98 % 1022,7 hPa 0,0 l/m 4,8 km/h (1 Bft) SW 226 0 min 0,000 mm 0,0 UV-I 0 W/m 12,1 C 12,4 C 6,4 km/h (2 Bft) 96,30 %
25.10.2016 22:43 12,4 C 98 % 1022,7 hPa 0,0 l/m 4,4 km/h (1 Bft) SW 226 0 min 0,000 mm 0,0 UV-I 0 W/m 12,1 C 12,4 C 6,4 km/h (2 Bft) 100,00 %
25.10.2016 22:44 12,4 C 98 % 1022,7 hPa 0,0 l/m 4,3 km/h (1 Bft) SW 226 0 min 0,000 mm 0,0 UV-I 0 W/m 12,1 C 12,4 C 6,4 km/h (2 Bft) 95,83 %
25.10.2016 22:45 12,4 C 98 % 1022,6 hPa 0,0 l/m 4,0 km/h (1 Bft) SW 226 0 min 0,000 mm 0,0 UV-I 0 W/m 12,1 C 12,4 C 6,4 km/h (2 Bft) 100,00 %
25.10.2016 22:46 12,4 C 98 % 1022,7 hPa 0,0 l/m 4,5 km/h (1 Bft) SW 226 0 min 0,000 mm 0,0 UV-I 0 W/m 12,1 C 12,4 C 6,4 km/h (2 Bft) 100,00 %
25.10.2016 22:47 12,4 C 98 % 1022,7 hPa 0,0 l/m 4,2 km/h (1 Bft) SW 226 0 min 0,000 mm 0,0 UV-I 0 W/m 12,1 C 12,4 C 4,8 km/h (1 Bft) 100,00 %
25.10.2016 22:48 12,4 C 98 % 1022,7 hPa 0,0 l/m 2,9 km/h (1 Bft) SW 226 0 min 0,000 mm 0,0 UV-I 0 W/m 12,1 C 12,4 C 4,8 km/h (1 Bft) 100,00 %
25.10.2016 22:49 12,4 C 98 % 1022,6 hPa 0,0 l/m 3,5 km/h (1 Bft) SW 226 0 min 0,000 mm 0,0 UV-I 0 W/m 12,1 C 12,4 C 4,8 km/h (1 Bft) 100,00 %
25.10.2016 22:50 12,4 C 98 % 1022,6 hPa 0,0 l/m 4,2 km/h (1 Bft) SW 226 0 min 0,000 mm 0,0 UV-I 0 W/m 12,1 C 12,4 C 6,4 km/h (2 Bft) 100,00 %
25.10.2016 22:51 12,4 C 98 % 1022,7 hPa 0,0 l/m 3,5 km/h (1 Bft) SW 226 0 min 0,000 mm 0,0 UV-I 0 W/m 12,1 C 12,4 C 4,8 km/h (1 Bft) 100,00 %
25.10.2016 22:52 12,4 C 98 % 1022,6 hPa 0,0 l/m 3,9 km/h (1 Bft) SW 226 0 min 0,000 mm 0,0 UV-I 0 W/m 12,1 C 12,4 C 4,8 km/h (1 Bft) 100,00 %
25.10.2016 22:53 12,4 C 98 % 1022,6 hPa 0,0 l/m 4,0 km/h (1 Bft) SW 226 0 min 0,000 mm 0,0 UV-I 0 W/m 12,1 C 12,4 C 4,8 km/h (1 Bft) 100,00 %
25.10.2016 22:54 12,4 C 98 % 1022,6 hPa 0,0 l/m 4,0 km/h (1 Bft) SW 226 0 min 0,000 mm 0,0 UV-I 0 W/m 12,1 C 12,4 C 6,4 km/h (2 Bft) 100,00 %
25.10.2016 22:55 12,4 C 98 % 1022,6 hPa 0,0 l/m 3,4 km/h (1 Bft) SW 226 0 min 0,000 mm 0,0 UV-I 0 W/m 12,1 C 12,4 C 4,8 km/h (1 Bft) 100,00 %
25.10.2016 22:56 12,4 C 98 % 1022,6 hPa 0,0 l/m 3,4 km/h (1 Bft) SW 226 0 min 0,000 mm 0,0 UV-I 0 W/m 12,1 C 12,4 C 4,8 km/h (1 Bft) 100,00 %
25.10.2016 22:57 12,4 C 98 % 1022,6 hPa 0,0 l/m 2,6 km/h (1 Bft) SW 226 0 min 0,000 mm 0,0 UV-I 0 W/m 12,1 C 12,4 C 4,8 km/h (1 Bft) 100,00 %
25.10.2016 22:58 12,4 C 98 % 1022,6 hPa 0,0 l/m 2,8 km/h (1 Bft) SW 226 0 min 0,000 mm 0,0 UV-I 0 W/m 12,1 C 12,4 C 3,2 km/h (1 Bft) 100,00 %
25.10.2016 22:59 12,4 C 98 % 1022,5 hPa 0,0 l/m 3,6 km/h (1 Bft) SW 226 0 min 0,000 mm 0,0 UV-I 0 W/m 12,1 C 12,4 C 4,8 km/h (1 Bft) 100,00 %
25.10.2016 23:00 12,4 C 98 % 1022,6 hPa 0,0 l/m 3,4 km/h (1 Bft) SW 226 0 min 0,000 mm 0,0 UV-I 0 W/m 12,1 C 12,4 C 4,8 km/h (1 Bft) 100,00 %
25.10.2016 23:01 12,4 C 98 % 1022,6 hPa 0,0 l/m 3,4 km/h (1 Bft) SW 226 0 min 0,000 mm 0,0 UV-I 0 W/m 12,1 C 12,4 C 4,8 km/h (1 Bft) 100,00 %
25.10.2016 23:02 12,4 C 98 % 1022,6 hPa 0,0 l/m 4,2 km/h (1 Bft) SW 226 0 min 0,000 mm 0,0 UV-I 0 W/m 12,1 C 12,4 C 6,4 km/h (2 Bft) 100,00 %
25.10.2016 23:03 12,4 C 98 % 1022,6 hPa 0,0 l/m 4,3 km/h (1 Bft) SW 226 0 min 0,000 mm 0,0 UV-I 0 W/m 12,1 C 12,4 C 6,4 km/h (2 Bft) 100,00 %
25.10.2016 23:04 12,4 C 98 % 1022,7 hPa 0,0 l/m 3,0 km/h (1 Bft) SW 226 0 min 0,000 mm 0,0 UV-I 0 W/m 12,1 C 12,4 C 4,8 km/h (1 Bft) 100,00 %
25.10.2016 23:05 12,4 C 98 % 1022,6 hPa 0,0 l/m 2,4 km/h (1 Bft) SW 226 0 min 0,000 mm 0,0 UV-I 0 W/m 12,1 C 12,4 C 4,8 km/h (1 Bft) 100,00 %
25.10.2016 23:06 12,4 C 98 % 1022,6 hPa 0,0 l/m 3,3 km/h (1 Bft) SW 226 0 min 0,000 mm 0,0 UV-I 0 W/m 12,1 C 12,4 C 4,8 km/h (1 Bft) 100,00 %
25.10.2016 23:07 12,3 C 98 % 1022,7 hPa 0,0 l/m 3,2 km/h (1 Bft) SW 226 0 min 0,000 mm 0,0 UV-I 0 W/m 12,0 C 12,3 C 4,8 km/h (1 Bft) 100,00 %
25.10.2016 23:08 12,3 C 98 % 1022,7 hPa 0,0 l/m 4,3 km/h (1 Bft) SW 234 0 min 0,000 mm 0,0 UV-I 0 W/m 12,0 C 12,3 C 6,4 km/h (2 Bft) 100,00 %
25.10.2016 23:09 12,3 C 98 % 1022,7 hPa 0,0 l/m 2,8 km/h (1 Bft) SW 234 0 min 0,000 mm 0,0 UV-I 0 W/m 12,0 C 12,3 C 4,8 km/h (1 Bft) 100,00 %
25.10.2016 23:10 12,3 C 98 % 1022,7 hPa 0,0 l/m 3,5 km/h (1 Bft) SW 234 0 min 0,000 mm 0,0 UV-I 0 W/m 12,0 C 12,3 C 4,8 km/h (1 Bft) 100,00 %
25.10.2016 23:11 12,3 C 98 % 1022,6 hPa 0,0 l/m 3,1 km/h (1 Bft) SW 234 0 min 0,000 mm 0,0 UV-I 0 W/m 12,0 C 12,3 C 4,8 km/h (1 Bft) 100,00 %
25.10.2016 23:13 12,3 C 98 % 1022,6 hPa 0,0 l/m 3,8 km/h (1 Bft) SW 220 0 min 0,000 mm 0,0 UV-I 0 W/m 12,0 C 12,3 C 6,4 km/h (2 Bft) 100,00 %
25.10.2016 23:14 12,3 C 98 % 1022,6 hPa 0,0 l/m 5,6 km/h (1 Bft) SW 219 0 min 0,000 mm 0,0 UV-I 0 W/m 12,0 C 12,3 C 6,4 km/h (2 Bft) 100,00 %
25.10.2016 23:15 12,3 C 98 % 1022,6 hPa 0,0 l/m 4,1 km/h (1 Bft) SW 219 0 min 0,000 mm 0,0 UV-I 0 W/m 12,0 C 12,3 C 4,8 km/h (1 Bft) 100,00 %
25.10.2016 23:16 12,3 C 98 % 1022,6 hPa 0,0 l/m 4,6 km/h (1 Bft) SW 219 0 min 0,000 mm 0,0 UV-I 0 W/m 12,0 C 12,3 C 8,0 km/h (2 Bft) 100,00 %
25.10.2016 23:17 12,3 C 98 % 1022,6 hPa 0,0 l/m 5,3 km/h (1 Bft) S-SW 212 0 min 0,000 mm 0,0 UV-I 0 W/m 12,0 C 12,3 C 8,0 km/h (2 Bft) 96,15 %
25.10.2016 23:18 12,3 C 98 % 1022,6 hPa 0,0 l/m 5,6 km/h (1 Bft) SW 227 0 min 0,000 mm 0,0 UV-I 0 W/m 12,0 C 12,3 C 8,0 km/h (2 Bft) 100,00 %
25.10.2016 23:19 12,3 C 99 % 1022,6 hPa 0,0 l/m 4,6 km/h (1 Bft) SW 227 0 min 0,000 mm 0,0 UV-I 0 W/m 12,1 C 12,3 C 6,4 km/h (2 Bft) 100,00 %
25.10.2016 23:20 12,4 C 99 % 1022,6 hPa 0,0 l/m 4,5 km/h (1 Bft) SW 227 0 min 0,000 mm 0,0 UV-I 0 W/m 12,2 C 12,4 C 6,4 km/h (2 Bft) 100,00 %
25.10.2016 23:21 12,3 C 99 % 1022,6 hPa 0,0 l/m 3,9 km/h (1 Bft) SW 227 0 min 0,000 mm 0,0 UV-I 0 W/m 12,1 C 12,3 C 6,4 km/h (2 Bft) 100,00 %
25.10.2016 23:22 12,4 C 99 % 1022,6 hPa 0,0 l/m 5,2 km/h (1 Bft) SW 232 0 min 0,000 mm 0,0 UV-I 0 W/m 12,2 C 12,4 C 8,0 km/h (2 Bft) 100,00 %
25.10.2016 23:23 12,4 C 99 % 1022,6 hPa 0,0 l/m 5,0 km/h (1 Bft) SW 232 0 min 0,000 mm 0,0 UV-I 0 W/m 12,2 C 12,4 C 8,0 km/h (2 Bft) 100,00 %
25.10.2016 23:24 12,4 C 99 % 1022,6 hPa 0,0 l/m 6,0 km/h (2 Bft) SW 235 0 min 0,000 mm 0,0 UV-I 0 W/m 12,2 C 12,4 C 6,4 km/h (2 Bft) 100,00 %
25.10.2016 23:25 12,4 C 99 % 1022,5 hPa 0,0 l/m 4,9 km/h (1 Bft) SW 235 0 min 0,000 mm 0,0 UV-I 0 W/m 12,2 C 12,4 C 6,4 km/h (2 Bft) 100,00 %
25.10.2016 23:27 12,3 C 98 % 1022,4 hPa 0,0 l/m 4,8 km/h (1 Bft) SW 229 0 min 0,000 mm 0,0 UV-I 0 W/m 12,0 C 12,3 C 8,0 km/h (2 Bft) 100,00 %
25.10.2016 23:28 12,3 C 98 % 1022,4 hPa 0,0 l/m 4,2 km/h (1 Bft) SW 229 0 min 0,000 mm 0,0 UV-I 0 W/m 12,0 C 12,3 C 6,4 km/h (2 Bft) 100,00 %
25.10.2016 23:29 12,3 C 98 % 1022,5 hPa 0,0 l/m 4,2 km/h (1 Bft) SW 232 0 min 0,000 mm 0,0 UV-I 0 W/m 12,0 C 12,3 C 6,4 km/h (2 Bft) 100,00 %
25.10.2016 23:30 12,3 C 98 % 1022,4 hPa 0,0 l/m 4,2 km/h (1 Bft) SW 232 0 min 0,000 mm 0,0 UV-I 0 W/m 12,0 C 12,3 C 6,4 km/h (2 Bft) 100,00 %
25.10.2016 23:31 12,3 C 98 % 1022,5 hPa 0,0 l/m 3,8 km/h (1 Bft) SW 232 0 min 0,000 mm 0,0 UV-I 0 W/m 12,0 C 12,3 C 6,4 km/h (2 Bft) 95,65 %
25.10.2016 23:32 12,3 C 98 % 1022,5 hPa 0,0 l/m 4,5 km/h (1 Bft) SW 232 0 min 0,000 mm 0,0 UV-I 0 W/m 12,0 C 12,3 C 6,4 km/h (2 Bft) 100,00 %
25.10.2016 23:33 12,3 C 98 % 1022,5 hPa 0,0 l/m 2,9 km/h (1 Bft) SW 232 0 min 0,000 mm 0,0 UV-I 0 W/m 12,0 C 12,3 C 4,8 km/h (1 Bft) 100,00 %
25.10.2016 23:34 12,3 C 98 % 1022,5 hPa 0,0 l/m 4,8 km/h (1 Bft) SW 236 0 min 0,000 mm 0,0 UV-I 0 W/m 12,0 C 12,3 C 6,4 km/h (2 Bft) 97,37 %
25.10.2016 23:35 12,3 C 98 % 1022,5 hPa 0,0 l/m 4,2 km/h (1 Bft) SW 231 0 min 0,000 mm 0,0 UV-I 0 W/m 12,0 C 12,3 C 6,4 km/h (2 Bft) 100,00 %
25.10.2016 23:36 12,3 C 98 % 1022,4 hPa 0,0 l/m 5,0 km/h (1 Bft) SW 233 0 min 0,000 mm 0,0 UV-I 0 W/m 12,0 C 12,3 C 8,0 km/h (2 Bft) 100,00 %
25.10.2016 23:37 12,3 C 98 % 1022,4 hPa 0,0 l/m 4,8 km/h (1 Bft) SW 233 0 min 0,000 mm 0,0 UV-I 0 W/m 12,0 C 12,3 C 8,0 km/h (2 Bft) 100,00 %
25.10.2016 23:38 12,3 C 98 % 1022,4 hPa 0,0 l/m 4,9 km/h (1 Bft) SW 234 0 min 0,000 mm 0,0 UV-I 0 W/m 12,0 C 12,3 C 6,4 km/h (2 Bft) 96,55 %
25.10.2016 23:39 12,3 C 98 % 1022,4 hPa 0,0 l/m 4,1 km/h (1 Bft) SW 234 0 min 0,000 mm 0,0 UV-I 0 W/m 12,0 C 12,3 C 6,4 km/h (2 Bft) 100,00 %
25.10.2016 23:40 12,3 C 98 % 1022,4 hPa 0,0 l/m 4,4 km/h (1 Bft) SW 229 0 min 0,000 mm 0,0 UV-I 0 W/m 12,0 C 12,3 C 6,4 km/h (2 Bft) 98,78 %
25.10.2016 23:41 12,3 C 98 % 1022,4 hPa 0,0 l/m 3,6 km/h (1 Bft) SW 231 0 min 0,000 mm 0,0 UV-I 0 W/m 12,0 C 12,3 C 4,8 km/h (1 Bft) 100,00 %
25.10.2016 23:42 12,3 C 98 % 1022,4 hPa 0,0 l/m 3,8 km/h (1 Bft) SW 231 0 min 0,000 mm 0,0 UV-I 0 W/m 12,0 C 12,3 C 4,8 km/h (1 Bft) 100,00 %
25.10.2016 23:43 12,3 C 98 % 1022,4 hPa 0,0 l/m 4,7 km/h (1 Bft) SW 217 0 min 0,000 mm 0,0 UV-I 0 W/m 12,0 C 12,3 C 6,4 km/h (2 Bft) 100,00 %
25.10.2016 23:44 12,3 C 98 % 1022,4 hPa 0,0 l/m 4,5 km/h (1 Bft) SW 221 0 min 0,000 mm 0,0 UV-I 0 W/m 12,0 C 12,3 C 6,4 km/h (2 Bft) 100,00 %
25.10.2016 23:45 12,3 C 98 % 1022,4 hPa 0,0 l/m 6,1 km/h (2 Bft) SW 219 0 min 0,000 mm 0,0 UV-I 0 W/m 12,0 C 12,3 C 6,4 km/h (2 Bft) 100,00 %
25.10.2016 23:46 12,3 C 98 % 1022,4 hPa 0,0 l/m 5,6 km/h (1 Bft) SW 214 0 min 0,000 mm 0,0 UV-I 0 W/m 12,0 C 12,3 C 6,4 km/h (2 Bft) 100,00 %
25.10.2016 23:47 12,3 C 98 % 1022,4 hPa 0,0 l/m 6,5 km/h (2 Bft) S-SW 201 0 min 0,000 mm 0,0 UV-I 0 W/m 12,0 C 12,3 C 9,7 km/h (2 Bft) 100,00 %
25.10.2016 23:48 12,3 C 98 % 1022,4 hPa 0,0 l/m 6,1 km/h (2 Bft) SW 218 0 min 0,000 mm 0,0 UV-I 0 W/m 12,0 C 12,3 C 8,0 km/h (2 Bft) 100,00 %
25.10.2016 23:49 12,3 C 98 % 1022,4 hPa 0,0 l/m 5,6 km/h (1 Bft) SW 217 0 min 0,000 mm 0,0 UV-I 0 W/m 12,0 C 12,3 C 6,4 km/h (2 Bft) 95,83 %
25.10.2016 23:50 12,3 C 98 % 1022,4 hPa 0,0 l/m 6,2 km/h (2 Bft) S-SW 200 0 min 0,000 mm 0,0 UV-I 0 W/m 12,0 C 12,3 C 8,0 km/h (2 Bft) 100,00 %
25.10.2016 23:51 12,4 C 99 % 1022,4 hPa 0,0 l/m 6,5 km/h (2 Bft) W-SW 239 0 min 0,000 mm 0,0 UV-I 0 W/m 12,2 C 12,4 C 11,3 km/h (2 Bft) 100,00 %
25.10.2016 23:52 12,4 C 99 % 1022,5 hPa 0,0 l/m 4,5 km/h (1 Bft) SW 233 0 min 0,000 mm 0,0 UV-I 0 W/m 12,2 C 12,4 C 8,0 km/h (2 Bft) 100,00 %
25.10.2016 23:53 12,4 C 99 % 1022,5 hPa 0,0 l/m 5,3 km/h (1 Bft) SW 231 0 min 0,000 mm 0,0 UV-I 0 W/m 12,2 C 12,4 C 8,0 km/h (2 Bft) 100,00 %
25.10.2016 23:54 12,3 C 99 % 1022,5 hPa 0,0 l/m 6,8 km/h (2 Bft) SW 235 0 min 0,000 mm 0,0 UV-I 0 W/m 12,1 C 12,0 C 8,0 km/h (2 Bft) 100,00 %
25.10.2016 23:55 12,4 C 99 % 1022,4 hPa 0,0 l/m 4,7 km/h (1 Bft) SW 235 0 min 0,000 mm 0,0 UV-I 0 W/m 12,2 C 12,4 C 6,4 km/h (2 Bft) 100,00 %
25.10.2016 23:56 12,4 C 98 % 1022,4 hPa 0,0 l/m 4,2 km/h (1 Bft) W-SW 239 0 min 0,000 mm 0,0 UV-I 0 W/m 12,1 C 12,4 C 6,4 km/h (2 Bft) 100,00 %
25.10.2016 23:57 12,4 C 99 % 1022,3 hPa 0,0 l/m 5,4 km/h (1 Bft) SW 228 0 min 0,000 mm 0,0 UV-I 0 W/m 12,2 C 12,4 C 8,0 km/h (2 Bft) 100,00 %
25.10.2016 23:58 12,4 C 98 % 1022,3 hPa 0,0 l/m 5,5 km/h (1 Bft) SW 235 0 min 0,000 mm 0,0 UV-I 0 W/m 12,1 C 12,4 C 6,4 km/h (2 Bft) 96,30 %
25.10.2016 23:59 12,4 C 99 % 1022,4 hPa 0,0 l/m 6,4 km/h (2 Bft) SW 231 0 min 0,000 mm 0,0 UV-I 0 W/m 12,2 C 12,4 C 8,0 km/h (2 Bft) 100,00 %
_ Min-Zeit 05:44 14:53 01:46 - 00:06 - - - - - - 05:54 07:08 00:06 00:02
Minimum _ 6,6 C 93 % 1015,9 hPa - 0,0 km/h (0 Bft) - - - - - - 6,5 C 4,0 C 0,0 km/h (0 Bft) 5,26 %
_ Max-Zeit 16:29 01:22 10:18 09:50 11:08 - - 11:34 13:00 11:56 12:14 16:33 16:09 07:06 00:12
Maximum _ 14,7 C 99 % 1023,2 hPa 0,2 l/m 11,3 km/h
O (2 Bft)
- - 2 min 0,102 mm 1,3 UV-I 392 W/m 13,6 C 14,6 C 17,7 km/h
W-SW (3 Bft)
100,00 %
Durchschnitt _ 10,4 C 98 % 1020,4 hPa #4,2 l/m 2,6 km/h (1 Bft) SW - #37 min. #0,584 mm 0,8 UV-I 115 W/m 10,0 C 10,3 C 4,7 km/h (1 Bft) 98,54 %